[[{"header":{"parameterUnit":"m.s-1","parameterCategory":1,"la1":30.6,"la2":28.766,"lo1":-90.7593,"lo2":-88.6598,"dy":0.0162,"dx":0.0183,"nx":116,"ny":114,"refTime":"2023-11-18T06:00:00:Z","depth":0,"parameterNumber":2,"parameterNumberName":"U-component_of_WINDS"},"data":[0.0,0.0,0.0,0.0,0.0,0.0,0.0,0.0,0.0,0.0,0.0,0.0,0.0,0.0,0.0,0.0,0.0,0.0,0.0,0.0,0.0,0.0,0.0,0.0,0.0,0.0,0.0,0.0,0.0,0.0,0.0,0.0,0.0,0.0,0.0,0.0,0.0,0.0,0.0,0.0,0.0,0.0,0.0,0.0,0.0,0.0,0.0,0.0,0.0,0.0,0.0,0.0,0.0,0.0,0.0,0.0,0.0,0.0,0.0,0.0,0.0,0.0,0.0,0.0,0.0,0.0,0.0,0.0,0.0,0.0,0.0,0.0,0.0,0.0,0.0,0.0,0.0,0.0,0.0,0.0,0.0,0.0,0.0,0.0,0.0,0.0,0.0,0.0,0.0,0.0,0.0,0.0,0.0,0.0,0.0,0.0,0.0,0.0,0.0,0.0,0.0,0.0,0.0,0.0,0.0,0.0,0.0,0.0,0.0,0.0,0.0,0.0,0.0,0.0,0.0,0.0,0.0,0.0,0.0,0.0,0.0,0.0,0.0,0.0,0.0,0.0,0.0,0.0,0.0,0.0,0.0,0.0,0.0,0.0,0.0,0.0,0.0,0.0,0.0,0.0,0.0,0.0,0.0,0.0,0.0,0.0,0.0,0.0,0.0,0.0,0.0,0.0,0.0,0.0,0.0,0.0,0.0,0.0,0.0,0.0,0.0,0.0,0.0,0.0,0.0,0.0,0.0,0.0,0.0,0.0,0.0,0.0,0.0,0.0,0.0,0.0,0.0,0.0,0.0,0.0,0.0,0.0,0.0,0.0,0.0,0.0,0.0,0.0,0.0,0.0,0.0,0.0,0.0,0.0,0.0,0.0,0.0,0.0,0.0,0.0,0.0,0.0,0.0,0.0,0.0,0.0,0.0,0.0,0.0,0.0,0.0,0.0,0.0,0.0,0.0,0.0,0.0,0.0,0.0,0.0,0.0,0.0,0.0,0.0,0.0,0.0,0.0,0.0,0.0,0.0,0.0,0.0,0.0,0.0,0.0,0.0,0.0,0.0,0.0,0.0,0.0,0.0,0.0,0.0,0.0,0.0,0.0,0.0,0.0,0.0,0.0,0.0,0.0,0.0,0.0,0.0,0.0,0.0,0.0,0.0,0.0,0.0,0.0,0.0,0.0,0.0,0.0,0.0,0.0,0.0,0.0,0.0,0.0,0.0,0.0,0.0,0.0,0.0,0.0,0.0,0.0,0.0,0.0,0.0,0.0,0.0,0.0,0.0,0.0,0.0,0.0,0.0,0.0,0.0,0.0,0.0,0.0,0.0,0.0,0.0,0.0,0.0,0.0,0.0,0.0,0.0,0.0,0.0,0.0,0.0,0.0,0.0,0.0,0.0,0.0,0.0,0.0,0.0,0.0,0.0,0.0,0.0,0.0,0.0,0.0,0.0,0.0,0.0,0.0,0.0,0.0,0.0,0.0,0.0,0.0,0.0,0.0,0.0,0.0,0.0,0.0,0.0,0.0,0.0,0.0,0.0,0.0,0.0,0.0,0.0,0.0,0.0,0.0,0.0,0.0,0.0,0.0,0.0,0.0,0.0,0.0,0.0,0.0,0.0,0.0,0.0,0.0,0.0,0.0,0.0,0.0,0.0,0.0,0.0,0.0,0.0,0.0,0.0,0.0,0.0,0.0,0.0,0.0,0.0,0.0,0.0,0.0,0.0,0.0,0.0,0.0,0.0,0.0,0.0,0.0,0.0,0.0,0.0,0.0,0.0,0.0,0.0,0.0,0.0,0.0,0.0,0.0,0.0,0.0,0.0,0.0,0.0,0.0,0.0,0.0,0.0,0.0,0.0,0.0,0.0,0.0,0.0,0.0,0.0,0.0,0.0,0.0,0.0,0.0,0.0,0.0,0.0,0.0,0.0,0.0,0.0,0.0,0.0,0.0,0.0,0.0,0.0,0.0,0.0,0.0,0.0,0.0,0.0,0.0,0.0,0.0,0.0,0.0,0.0,0.0,0.0,0.0,0.0,0.0,0.0,0.0,0.0,0.0,0.0,0.0,0.0,0.0,0.0,0.0,0.0,0.0,0.0,0.0,0.0,0.0,0.0,0.0,0.0,0.0,0.0,0.0,0.0,0.0,0.0,0.0,0.0,0.0,0.0,0.0,0.0,0.0,0.0,0.0,0.0,0.0,0.0,0.0,0.0,0.0,0.0,0.0,0.0,0.0,0.0,0.0,0.0,0.0,0.0,0.0,0.0,0.0,0.0,0.0,0.0,0.0,0.0,0.0,0.0,0.0,0.0,0.0,0.0,0.0,0.0,0.0,0.0,0.0,0.0,0.0,0.0,0.0,0.0,0.0,0.0,0.0,0.0,0.0,0.0,0.0,0.0,0.0,0.0,0.0,0.0,0.0,0.0,0.0,0.0,0.0,0.0,0.0,0.0,0.0,0.0,0.0,0.0,0.0,0.0,0.0,0.0,0.0,0.0,0.0,0.0,0.0,0.0,0.0,0.0,0.0,0.0,0.0,0.0,0.0,0.0,0.0,0.0,0.0,0.0,0.0,0.0,0.0,0.0,0.0,0.0,0.0,0.0,0.0,0.0,0.0,0.0,0.0,0.0,0.0,0.0,0.0,0.0,0.0,0.0,0.0,0.0,0.0,0.0,0.0,0.0,0.0,0.0,0.0,0.0,0.0,0.0,0.0,0.0,0.0,0.0,0.0,0.0,0.0,0.0,0.0,0.0,0.0,0.0,0.0,0.0,0.0,0.0,0.0,0.0,0.0,0.0,0.0,0.0,0.0,0.0,0.0,0.0,0.0,0.0,0.0,0.0,0.0,0.0,0.0,0.0,0.0,0.0,0.0,0.0,0.0,0.0,0.0,0.0,0.0,0.0,0.0,0.0,0.0,0.0,0.0,0.0,0.0,0.0,0.0,0.0,0.0,0.0,0.0,0.0,0.0,0.0,0.0,0.0,0.0,0.0,0.0,0.0,0.0,0.0,0.0,0.0,0.0,0.0,0.0,0.0,0.0,0.0,0.0,0.0,0.0,0.0,0.0,0.0,0.0,0.0,0.0,0.0,0.0,0.0,0.0,0.0,0.0,0.0,0.0,0.0,0.0,0.0,0.0,0.0,0.0,0.0,0.0,0.0,0.0,0.0,0.0,0.0,0.0,0.0,0.0,0.0,0.0,0.0,0.0,0.0,0.0,0.0,0.0,0.0,0.0,0.0,0.0,0.0,0.0,0.0,0.0,0.0,0.0,0.0,0.0,0.0,0.0,0.0,0.0,0.0,0.0,0.0,0.0,0.0,0.0,0.0,0.0,0.0,0.0,0.0,0.0,0.0,0.0,0.0,0.0,0.0,0.0,0.0,0.0,0.0,0.0,0.0,0.0,0.0,0.0,0.0,0.0,0.0,0.0,0.0,0.0,0.0,0.0,0.0,0.0,0.0,0.0,0.0,0.0,0.0,0.0,0.0,0.0,0.0,0.0,0.0,0.0,0.0,0.0,0.0,0.0,0.0,0.0,0.0,0.0,0.0,0.0,0.0,0.0,0.0,0.0,0.0,0.0,0.0,0.0,0.0,0.0,0.0,0.0,0.0,0.0,0.0,0.0,0.0,0.0,0.0,0.0,0.0,0.0,0.0,0.0,0.0,0.0,0.0,0.0,0.0,0.0,0.0,0.0,0.0,0.0,0.0,0.0,0.0,0.0,0.0,0.0,0.0,0.0,0.0,0.0,0.0,0.0,0.0,0.0,0.0,0.0,0.0,0.0,0.0,0.0,0.0,0.0,0.0,0.0,0.0,0.0,0.0,0.0,0.0,0.0,0.0,0.0,0.0,0.0,0.0,0.0,0.0,0.0,0.0,0.0,0.0,0.0,0.0,0.0,0.0,0.0,0.0,0.0,0.0,0.0,0.0,0.0,0.0,0.0,0.0,0.0,0.0,0.0,0.0,0.0,0.0,0.0,0.0,0.0,0.0,0.0,0.0,0.0,0.0,0.0,0.0,0.0,0.0,0.0,0.0,0.0,0.0,0.0,0.0,0.0,0.0,0.0,0.0,0.0,0.0,0.0,0.0,0.0,0.0,0.0,0.0,0.0,0.0,0.0,0.0,0.0,0.0,0.0,0.0,0.0,0.0,0.0,0.0,0.0,0.0,0.0,0.0,0.0,0.0,0.0,0.0,0.0,0.0,0.0,0.0,0.0,0.0,0.0,0.0,0.0,0.0,0.0,0.0,0.0,0.0,0.0,0.0,0.0,0.0,0.0,0.0,0.0,0.0,0.0,0.0,0.0,0.0,0.0,0.0,0.0,0.0,0.0,0.0,0.0,0.0,0.0,0.0,0.0,0.0,0.0,0.0,0.0,0.0,0.0,0.0,0.0,0.0,0.0,0.0,0.0,0.0,0.0,0.0,0.0,0.0,0.0,0.0,0.0,0.0,0.0,0.0,0.0,0.0,0.0,0.0,0.0,0.0,0.0,0.0,0.0,0.0,0.0,0.0,0.0,0.0,0.0,0.0,0.0,0.0,0.0,0.0,0.0,0.0,0.0,0.0,0.0,0.0,0.0,0.0,0.0,0.0,0.0,0.0,0.0,0.0,0.0,0.0,0.0,0.0,0.0,0.0,0.0,0.0,0.0,0.0,0.0,0.0,0.0,0.0,0.0,0.0,0.0,0.0,0.0,0.0,0.0,0.0,0.0,0.0,0.0,0.0,0.0,0.0,0.0,0.0,0.0,0.0,0.0,0.0,0.0,0.0,0.0,0.0,0.0,0.0,0.0,0.0,0.0,0.0,0.0,0.0,0.0,0.0,0.0,0.0,0.0,0.0,0.0,0.0,0.0,0.0,0.0,0.0,0.0,0.0,0.0,0.0,0.0,0.0,0.0,0.0,0.0,0.0,0.0,0.0,0.0,0.0,0.0,0.0,0.0,0.0,0.0,0.0,0.0,0.0,0.0,0.0,0.0,0.0,0.0,0.0,0.0,0.0,0.0,0.0,0.0,0.0,0.0,0.0,0.0,0.0,0.0,0.0,0.0,0.0,0.0,0.0,0.0,0.0,0.0,0.0,0.0,0.0,0.0,0.0,0.0,0.0,0.0,0.0,0.0,0.0,0.0,0.0,0.0,0.0,0.0,0.0,0.0,0.0,0.0,0.0,0.0,0.0,0.0,0.0,0.0,0.0,0.0,0.0,0.0,0.0,0.0,0.0,0.0,0.0,0.0,0.0,0.0,0.0,0.0,0.0,0.0,0.0,0.0,0.0,0.0,0.0,0.0,0.0,0.0,0.0,0.0,0.0,0.0,0.0,0.0,0.0,0.0,0.0,0.0,0.0,0.0,0.0,0.0,0.0,0.0,0.0,0.0,0.0,0.0,0.0,0.0,0.0,0.0,0.0,0.0,0.0,0.0,0.0,0.0,0.0,0.0,0.0,0.0,0.0,0.0,0.0,0.0,0.0,0.0,0.0,0.0,0.0,0.0,0.0,0.0,0.0,0.0,0.0,0.0,0.0,0.0,0.0,0.0,0.0,0.0,0.0,0.0,0.0,0.0,0.0,0.0,0.0,0.0,0.0,0.0,0.0,0.0,0.0,0.0,0.0,0.0,0.0,0.0,0.0,0.0,0.0,0.0,0.0,0.0,0.0,0.0,0.0,0.0,0.0,0.0,0.0,0.0,0.0,0.0,0.0,0.0,0.0,0.0,0.0,0.0,0.0,0.0,0.0,0.0,0.0,0.0,0.0,0.0,0.0,0.0,0.0,0.0,0.0,0.0,0.0,0.0,0.0,0.0,0.0,0.0,0.0,0.0,0.0,0.0,0.0,0.0,0.0,0.0,0.0,0.0,0.0,0.0,0.0,0.0,0.0,0.0,0.0,0.0,0.0,0.0,0.0,0.0,0.0,0.0,0.0,0.0,0.0,0.0,0.0,0.0,0.0,0.0,0.0,0.0,0.0,0.0,0.0,0.0,0.0,0.0,0.0,0.0,0.0,0.0,0.0,0.0,0.0,0.0,0.0,0.0,0.0,0.0,0.0,0.0,0.0,0.0,0.0,0.0,0.0,0.0,0.0,0.0,0.0,0.0,0.0,0.0,0.0,0.0,0.0,2.3678,2.263,0.0,0.0,0.0,0.0,0.0,0.0,0.0,0.0,0.0,0.0,0.0,0.0,0.0,0.0,0.0,0.0,0.0,0.0,0.0,0.0,0.0,0.0,0.0,0.0,0.0,0.0,0.0,0.0,0.0,0.0,0.0,0.0,0.0,0.0,0.0,0.0,0.0,2.7798,2.9117,3.0243,3.1153,3.2401,3.2324,3.1133,0.0,0.0,0.0,0.0,0.0,0.0,0.0,0.0,0.0,0.0,0.0,0.0,0.0,0.0,0.0,0.0,0.0,0.0,0.0,0.0,0.0,0.0,0.0,0.0,0.0,0.0,0.0,0.0,0.0,0.0,0.0,0.0,0.0,0.0,0.0,0.0,0.0,0.0,0.0,0.0,0.0,0.0,0.0,0.0,0.0,0.0,0.0,0.0,0.0,0.0,0.0,0.0,0.0,0.0,0.0,0.0,0.0,0.0,0.0,0.0,0.0,0.0,0.0,0.0,0.0,0.0,0.0,0.0,0.0,0.0,2.5678,2.4473,0.0,0.0,0.0,0.0,0.0,0.0,0.0,0.0,0.0,0.0,0.0,0.0,0.0,0.0,0.0,0.0,0.0,0.0,0.0,0.0,0.0,0.0,0.0,2.0504,2.0905,2.1872,2.1817,2.2164,0.0,0.0,0.0,0.0,0.0,0.0,0.0,2.7229,2.8502,2.9341,3.0898,3.2593,3.44,3.6135,3.5796,3.3713,3.351,0.0,0.0,0.0,0.0,0.0,0.0,0.0,0.0,0.0,0.0,0.0,0.0,0.0,0.0,0.0,0.0,0.0,0.0,0.0,0.0,0.0,0.0,0.0,0.0,0.0,0.0,0.0,0.0,0.0,0.0,0.0,0.0,0.0,0.0,0.0,0.0,0.0,0.0,0.0,0.0,0.0,0.0,0.0,0.0,0.0,0.0,0.0,0.0,0.0,0.0,0.0,0.0,0.0,0.0,0.0,0.0,0.0,0.0,0.0,0.0,0.0,0.0,0.0,3.4817,3.5152,3.4867,3.486,3.4192,3.282,2.8965,2.7769,2.8386,2.5979,0.0,0.0,0.0,0.0,0.0,0.0,0.0,0.0,0.0,0.0,0.0,0.0,0.0,0.0,0.0,0.0,0.0,0.0,0.0,0.0,0.0,2.1336,2.1995,2.3617,2.3081,2.3304,2.487,0.0,0.0,0.0,0.0,0.0,2.6497,2.8116,2.9378,3.0325,3.4349,3.7206,3.8978,4.0716,4.1341,4.0814,3.6321,3.5149,3.6341,0.0,0.0,0.0,0.0,0.0,0.0,0.0,0.0,0.0,0.0,0.0,0.0,0.0,0.0,0.0,0.0,0.0,0.0,0.0,0.0,0.0,0.0,0.0,0.0,0.0,0.0,0.0,0.0,0.0,0.0,0.0,0.0,0.0,0.0,0.0,0.0,0.0,0.0,0.0,0.0,0.0,2.4668,2.5486,0.0,0.0,0.0,0.0,0.0,0.0,0.0,0.0,0.0,0.0,0.0,0.0,0.0,3.2827,3.4443,3.7023,3.7974,3.7351,3.8931,3.892,3.7494,3.7494,3.7805,3.817,3.6104,0.0,3.1062,2.9274,0.0,0.0,0.0,0.0,0.0,0.0,0.0,0.0,0.0,0.0,0.0,0.0,0.0,0.0,0.0,0.0,0.0,0.0,0.0,0.0,0.0,2.3981,2.5667,2.6919,2.8907,2.9387,2.7721,2.8222,0.0,0.0,0.0,2.6352,2.6689,2.8876,3.1409,3.4272,3.9146,4.1944,4.2773,4.5019,4.6055,4.5937,4.3125,4.043,3.7871,3.623,0.0,0.0,0.0,0.0,0.0,0.0,0.0,0.0,0.0,0.0,0.0,0.0,0.0,0.0,0.0,0.0,0.0,0.0,0.0,0.0,0.0,0.0,0.0,0.0,0.0,0.0,0.0,0.0,0.0,0.0,0.0,0.0,0.0,0.0,0.0,0.0,0.0,0.0,0.0,2.6083,2.7005,2.6982,2.7651,2.7798,0.0,0.0,0.0,0.0,0.0,0.0,0.0,0.0,0.0,3.3067,3.4845,3.6136,3.6895,3.9436,4.0756,4.0872,4.2069,4.2253,4.1545,4.1539,4.1498,4.1402,4.0619,3.9192,3.7151,3.4064,3.2222,3.1193,0.0,0.0,0.0,0.0,2.7682,2.7759,0.0,0.0,0.0,0.0,0.0,0.0,0.0,0.0,0.0,0.0,0.0,0.0,2.4191,2.695,2.9448,3.1414,3.3949,3.4201,3.1227,3.1033,2.9674,2.666,2.671,2.7097,2.771,3.0994,3.4937,3.9492,4.3808,4.6289,4.7012,4.9199,5.0195,5.0176,4.9297,4.5937,4.0801,3.9258,3.6758,3.3809,0.0,0.0,0.0,0.0,0.0,0.0,0.0,0.0,0.0,0.0,0.0,0.0,0.0,0.0,0.0,0.0,0.0,0.0,0.0,0.0,0.0,0.0,0.0,0.0,0.0,0.0,0.0,0.0,0.0,0.0,0.0,0.0,0.0,0.0,0.0,0.0,0.0,2.7412,2.8653,2.794,2.9279,2.9756,0.0,0.0,0.0,0.0,0.0,0.0,3.372,3.4077,3.4999,3.6713,3.8407,3.9403,3.9615,4.1713,4.3096,4.3747,4.4335,4.4626,4.4626,4.4626,4.4301,4.3745,4.3745,4.3248,4.2136,3.8208,3.5521,3.3867,3.3789,3.2771,3.1425,3.2102,3.2207,3.2212,0.0,0.0,0.0,0.0,0.0,0.0,0.0,0.0,0.0,0.0,0.0,2.3364,2.8251,2.98,3.2432,3.7321,3.58,3.4823,3.5448,3.1034,2.8652,2.9277,2.7754,2.8026,3.0441,3.5509,4.0625,4.5742,4.7734,4.9941,5.2324,5.3281,5.373,5.3711,5.2832,5.0469,4.6933,4.3574,4.0644,3.8125,3.6484,0.0,0.0,0.0,0.0,0.0,0.0,0.0,0.0,0.0,0.0,0.0,0.0,0.0,0.0,0.0,0.0,0.0,0.0,0.0,0.0,0.0,0.0,0.0,0.0,0.0,0.0,0.0,0.0,0.0,0.0,0.0,0.0,0.0,0.0,0.0,0.0,0.0,0.0,2.6971,3.0541,0.0,0.0,0.0,0.0,3.2641,3.3423,3.4661,3.6415,3.7281,3.8497,4.0203,4.1952,4.322,4.3987,4.4944,4.543,4.5468,4.5509,4.5528,4.5528,4.5528,4.5509,4.547,4.547,4.4972,4.3917,4.0649,3.9257,3.8965,3.6523,3.6006,3.6414,3.4705,3.5048,3.6174,0.0,0.0,0.0,0.0,0.0,0.0,0.0,0.0,2.0408,2.0685,2.3578,2.6718,2.9622,3.5303,3.9843,4.2186,4.3223,4.2715,4.0215,3.6289,3.3691,3.2871,3.1211,3.2298,3.6532,4.0013,4.3808,4.7949,5.0781,5.293,5.4394,5.5273,5.5664,5.5664,5.5351,5.3906,5.1426,4.6855,4.2793,3.9238,3.6934,3.4922,0.0,0.0,0.0,0.0,0.0,0.0,0.0,0.0,0.0,0.0,0.0,0.0,0.0,0.0,0.0,0.0,0.0,0.0,0.0,0.0,0.0,0.0,0.0,0.0,0.0,0.0,0.0,0.0,0.0,0.0,0.0,0.0,0.0,0.0,0.0,0.0,0.0,3.2482,3.4938,0.0,3.44,3.453,3.5122,3.6103,3.6463,3.7877,4.066,4.1604,4.2838,4.4559,4.5712,4.6463,4.6752,4.6525,4.6698,4.72,4.6679,4.6448,4.6448,4.6966,4.6621,4.5624,4.618,4.595,4.5066,4.4047,4.2674,4.1113,4.0176,3.9669,3.9429,3.918,3.948,3.9992,0.0,0.0,0.0,0.0,0.0,0.0,0.0,0.0,2.0608,2.1479,2.528,2.9216,3.2659,3.9292,4.4318,4.6306,4.7422,4.6426,4.2656,3.8652,3.5644,3.3926,3.3906,3.6191,4.1074,4.3945,4.7109,5.0625,5.3183,5.4883,5.5742,5.6328,5.6601,5.6601,5.6914,5.623,5.4648,5.123,4.6797,4.1855,3.9531,3.791,3.6484,0.0,0.0,0.0,0.0,0.0,0.0,0.0,0.0,0.0,0.0,0.0,0.0,0.0,0.0,0.0,0.0,0.0,0.0,0.0,0.0,0.0,0.0,0.0,0.0,0.0,0.0,0.0,0.0,0.0,0.0,0.0,0.0,0.0,0.0,0.0,3.4691,3.6164,3.8319,3.9214,3.8038,3.7881,3.8531,4.0149,4.0492,4.1874,4.4707,4.5351,4.6163,4.7336,4.7893,4.8182,4.8221,4.7663,4.7662,4.8218,4.7373,4.7104,4.737,4.76,4.7237,4.6453,4.6775,4.6583,4.6065,4.595,4.4937,4.3457,4.3392,4.3022,4.2539,4.2616,4.2821,4.3121,0.0,0.0,0.0,0.0,0.0,0.0,0.0,2.0312,2.1201,2.3771,2.6409,3.0664,3.7496,4.1512,4.5407,4.9665,4.7754,4.5215,4.2695,3.7617,3.4004,3.2461,3.5703,3.9531,4.3808,4.7266,5.0683,5.4082,5.4941,5.582,5.668,5.668,5.668,5.6719,5.7558,5.7461,5.668,5.664,5.2773,4.6504,4.459,4.2812,4.1035,0.0,0.0,0.0,0.0,0.0,0.0,0.0,0.0,0.0,0.0,0.0,0.0,0.0,0.0,0.0,0.0,0.0,0.0,0.0,0.0,0.0,0.0,0.0,0.0,0.0,0.0,0.0,0.0,0.0,0.0,0.0,0.0,0.0,3.1973,3.5869,3.8268,3.7521,4.045,4.1836,4.0078,4.145,4.3102,4.4658,4.5475,4.6596,4.8272,4.8349,4.8354,4.8375,4.8375,4.8433,4.8568,4.8414,4.8431,4.8559,4.7645,4.7587,4.833,4.7428,4.7413,4.8068,4.7335,4.7005,4.6947,4.6238,4.6016,4.6091,4.5945,4.5911,4.5776,4.4741,4.4876,4.547,0.0,0.0,0.0,0.0,0.0,0.0,2.0312,2.0312,2.1201,2.3771,2.8435,3.3467,3.8601,4.4481,4.8814,5.0703,4.8066,4.5996,4.5273,3.8613,3.5332,3.6777,4.0723,4.4629,4.832,5.0547,5.3047,5.5898,5.6758,5.7637,5.8496,5.8496,5.8496,5.8496,5.873,5.8711,5.8437,5.7812,5.6445,5.4238,4.873,4.5488,4.3613,0.0,0.0,0.0,0.0,0.0,0.0,0.0,0.0,0.0,0.0,0.0,0.0,0.0,0.0,0.0,0.0,0.0,0.0,0.0,0.0,0.0,0.0,0.0,0.0,0.0,0.0,0.0,0.0,0.0,0.0,0.0,0.0,3.5547,3.6621,3.8352,4.0352,4.26,4.4255,4.498,4.4394,4.5353,4.6138,4.6503,4.7294,4.8214,4.933,4.9392,4.9625,5.0183,5.0286,5.0306,5.024,4.9673,4.9722,5.0363,4.9373,4.9066,4.9413,4.9663,4.9298,4.8414,4.8817,4.8297,4.7139,4.7043,4.6648,4.6091,4.6074,4.6046,4.5988,4.5547,4.547,4.547,0.0,0.0,0.0,0.0,0.0,0.0,2.0312,2.0312,2.1479,2.4722,2.9657,3.4735,3.9557,4.4922,4.8437,4.9082,4.707,4.4844,4.2676,3.7969,3.6894,4.0586,4.418,4.7871,5.1719,5.3457,5.5449,5.7695,5.8203,5.8691,5.9199,5.9199,5.9199,5.9219,5.9551,5.9707,5.9687,5.9551,5.9277,5.8574,5.4219,5.1191,4.8906,4.5117,4.3906,4.3828,4.084,4.0273,4.0449,3.7207,0.0,0.0,0.0,0.0,0.0,0.0,0.0,0.0,0.0,0.0,0.0,0.0,0.0,0.0,0.0,0.0,0.0,0.0,0.0,0.0,0.0,0.0,0.0,0.0,3.6914,3.9473,4.1055,4.1719,4.3047,4.5762,4.6543,4.6953,4.7246,4.7734,4.816,4.8445,4.9192,4.9838,5.0354,5.0731,5.0973,5.1031,5.1093,5.1132,5.1109,5.0626,5.0672,5.1199,5.0235,4.9976,5.0394,5.0428,5.0126,4.959,4.9737,4.9262,4.835,4.8059,4.7457,4.6698,0.0,0.0,0.0,0.0,4.5719,4.5528,0.0,0.0,0.0,0.0,0.0,0.0,2.0312,2.0312,2.1814,2.6041,3.0202,3.4759,4.0034,4.361,4.5762,4.6113,4.5176,4.2598,3.7891,3.7226,3.9199,4.4062,4.6973,5.0332,5.4355,5.6055,5.7695,5.9336,5.9433,5.9531,5.9629,5.9726,5.9785,5.9805,6.0527,6.084,6.0879,6.1562,6.1465,6.0742,5.9746,5.7773,5.5019,5.1113,4.998,5.0039,4.6641,4.4512,4.2969,4.0879,0.0,0.0,0.0,0.0,0.0,0.0,0.0,0.0,0.0,0.0,0.0,0.0,0.0,0.0,0.0,0.0,0.0,0.0,0.0,0.0,0.0,0.0,0.0,0.0,3.9902,4.2402,4.5078,4.5351,4.5879,4.7422,4.7695,4.8047,4.8828,4.8984,4.9375,5.0137,5.0937,5.1367,5.1367,0.0,0.0,0.0,0.0,5.1567,5.167,5.1579,5.1536,5.1543,5.0781,5.0706,5.1192,5.045,5.0488,5.1094,5.0312,5.0,4.9961,4.9199,4.8437,4.7637,4.6543,4.6113,4.609,4.5874,4.5738,4.5605,0.0,0.0,0.0,0.0,0.0,0.0,2.0312,2.0312,2.1814,2.6041,2.9709,3.3695,3.8299,4.185,4.4258,4.5176,4.3223,4.1211,3.9512,4.1816,4.4648,4.7754,5.1699,5.4863,5.7109,5.8164,5.918,6.0176,6.0879,6.1582,6.2285,6.2988,6.3301,6.332,6.3476,6.3555,6.3515,6.2988,6.3066,6.3359,6.1074,5.8633,5.6172,5.4648,5.3281,5.1855,4.9121,4.8379,4.8008,4.3457,4.2012,4.1699,3.916,3.5805,0.0,0.0,0.0,0.0,0.0,0.0,0.0,0.0,0.0,0.0,0.0,0.0,0.0,0.0,0.0,0.0,0.0,0.0,0.0,4.082,4.2422,4.4375,4.7676,4.7539,4.7226,4.7558,4.8223,4.8711,4.8887,4.9531,5.0019,5.0195,5.1562,5.2402,5.2402,5.3242,5.3574,5.3301,5.3405,5.342,5.3333,5.342,5.3112,5.2441,5.2871,0.0,5.1379,5.1794,5.1758,5.1328,5.1152,5.0742,5.0156,4.998,4.9414,4.8496,4.6894,4.6191,4.609,4.5932,4.5834,4.5757,0.0,0.0,0.0,0.0,0.0,0.0,2.0312,2.0312,2.1517,2.4915,2.7967,3.1191,3.4697,3.7397,3.9004,3.918,3.8437,3.8867,4.1016,4.4375,4.8047,5.1933,5.498,5.7617,5.9746,6.0234,6.1074,6.2344,6.2793,6.3223,6.3652,6.4101,6.4297,6.4297,6.4297,6.4297,6.4277,6.3848,6.3906,6.4199,6.2871,6.1582,6.0215,5.8066,5.6445,5.5019,5.2871,5.1543,5.0273,4.6816,4.4766,4.3337,4.148,3.8535,3.5303,0.0,0.0,0.0,0.0,0.0,0.0,0.0,0.0,0.0,0.0,0.0,0.0,0.0,0.0,3.3848,0.0,0.0,4.0703,4.3281,4.5156,4.6914,4.8652,4.8906,4.8906,4.8906,4.9297,4.9707,5.0117,5.0547,5.0976,5.1426,5.2226,5.2891,5.332,5.3769,5.3965,5.3906,5.3965,5.3966,5.3906,5.3963,5.3789,5.3359,5.3711,5.3476,5.2715,5.3086,5.2812,5.207,5.2519,5.1973,5.0762,5.0371,4.9941,4.9414,4.8105,4.7246,4.6737,4.6684,4.6293,4.5796,0.0,0.0,0.0,0.0,0.0,0.0,0.0,2.0312,2.1143,2.3531,2.5967,2.8357,3.065,3.246,3.332,3.2949,3.4629,3.7754,4.2598,4.6465,5.082,5.584,5.7871,5.9844,6.1914,6.2129,6.289,6.4297,6.4648,6.4726,6.4551,6.5078,6.5209,6.5014,6.5189,6.5254,6.5234,6.5078,6.5019,6.5039,6.4687,6.4551,6.4219,6.1113,5.9297,5.8105,5.6035,5.3183,5.0234,4.9043,4.6211,4.3118,4.2826,4.0877,3.805,3.4749,3.2909,0.0,0.0,0.0,0.0,0.0,0.0,0.0,0.0,0.0,3.2578,3.4277,3.5449,3.6816,3.8945,4.1426,4.373,4.5469,4.7539,4.9004,4.9336,4.9863,5.0195,5.0195,5.0332,5.0683,5.1348,5.1543,5.1875,5.2402,5.293,5.3359,5.373,5.4238,5.4433,5.4258,5.4414,5.4512,5.4512,5.4512,5.4414,5.4258,5.4414,5.4336,5.4004,5.418,5.3789,5.2988,5.3691,5.3203,5.1836,5.1016,5.0683,5.0605,4.9726,4.8808,4.793,4.7715,4.6969,4.6076,0.0,0.0,0.0,0.0,0.0,0.0,0.0,0.0,2.0943,2.2705,2.4505,2.6055,2.7247,2.8865,3.0234,3.1094,3.6172,4.0859,4.4473,4.9375,5.4101,5.8574,6.1113,6.2558,6.2851,6.3613,6.4101,6.4297,6.5859,6.6211,6.5508,6.7832,6.8397,6.7523,6.8299,6.8657,6.8594,6.7832,6.7598,6.7637,6.6074,6.5449,6.5234,6.3301,6.1543,5.9707,5.6465,5.168,4.6953,4.7558,4.4863,4.1699,4.3901,4.2237,3.9104,3.7136,3.439,3.1598,2.9741,2.8747,2.8618,3.0215,3.0633,3.1816,0.0,0.0,3.6894,3.8633,4.0293,4.1562,4.1914,4.4101,4.6426,4.8183,4.8711,4.9414,5.0918,5.0586,5.0195,5.0195,5.082,5.1308,5.1387,5.2109,5.2266,5.1601,5.3691,5.4375,5.293,5.5058,5.5957,5.5176,5.5918,5.6308,5.6308,5.6308,5.5918,5.5156,5.5937,5.5508,5.4023,5.4805,5.4687,5.3867,5.3965,5.3887,5.3633,5.2773,5.2422,5.2324,5.1465,5.0605,4.9785,4.8887,4.7908,4.7025,0.0,0.0,0.0,0.0,0.0,0.0,0.0,0.0,0.0,2.1259,2.2408,2.3313,2.3786,2.5396,2.6836,2.7793,3.3848,3.9297,4.3223,5.0215,5.6133,6.0469,6.2656,6.4238,6.5254,6.5625,6.6308,6.7324,6.8027,6.8183,6.789,6.8864,6.9091,6.8663,6.8921,6.9011,6.9006,6.8757,6.8418,6.7969,6.7363,6.6504,6.5351,6.3105,6.0234,5.7109,5.4668,5.0234,0.0,4.5371,4.3125,4.0703,4.2754,4.1026,3.7897,3.6088,3.3926,3.2051,3.1758,3.1399,3.1668,0.0,3.4847,3.5868,3.8549,3.9204,3.9752,4.15,4.2876,4.3926,4.4453,4.5918,4.7461,0.0,4.9336,4.9902,5.0605,5.041,4.9824,4.8808,4.9433,5.0137,5.0644,5.1445,5.2207,5.2851,5.3926,5.4668,5.4941,5.5527,5.5918,5.6055,5.6406,5.6601,5.6601,5.6601,5.6426,5.6055,5.6426,5.6211,5.5527,5.5898,5.5859,5.543,5.3906,5.3828,5.4648,5.3262,5.2695,5.2656,5.2305,5.1641,5.0781,4.9902,4.8945,4.8061,0.0,0.0,0.0,0.0,0.0,0.0,0.0,0.0,0.0,0.0,2.0847,2.1258,2.1338,2.2769,2.4062,2.4922,3.0664,3.6465,4.1738,4.9043,5.5527,6.0781,6.289,6.4765,6.6504,6.7012,6.7988,6.9492,6.9668,6.9668,6.9472,6.9769,6.9756,6.9459,6.9517,6.9517,6.954,6.9675,6.9167,6.8242,6.8164,6.6816,6.457,6.1738,5.7695,5.334,5.1836,4.7676,4.2812,4.2422,4.043,3.8437,4.0332,3.9082,3.668,3.5312,3.3633,3.2363,3.3125,3.332,0.0,3.6829,3.8291,3.9319,4.0429,4.1249,4.2253,4.3784,4.4635,4.5316,4.6034,4.6953,4.7891,4.8769,4.9629,5.0195,5.0195,5.0195,4.9551,4.7812,4.8164,4.8789,4.9414,5.0644,5.2012,5.3535,5.4082,5.4902,5.6172,5.5879,5.6055,5.6933,5.6738,5.6719,5.6953,5.6719,5.6601,5.6601,5.6601,5.6601,5.6601,5.6601,5.6601,5.6484,5.4609,5.4492,5.5547,5.4043,5.3281,5.3027,5.2793,5.2168,5.1328,5.0742,4.9902,4.904,0.0,0.0,0.0,0.0,0.0,0.0,0.0,0.0,0.0,0.0,0.0,0.0,0.0,2.1367,2.2324,2.3203,2.7266,3.3047,4.0723,4.5371,5.1269,5.8945,6.1699,6.3867,6.5605,6.7305,6.8594,6.9492,7.0273,7.0234,6.9433,7.0931,7.1091,7.0198,7.0841,7.1129,7.111,7.1145,7.0374,6.9082,6.8242,6.5976,6.2715,5.9316,5.4297,4.8984,4.8086,4.3359,3.7656,3.8476,3.6465,3.4043,3.6641,3.6797,3.6035,3.5976,3.418,3.2383,3.3184,0.0,3.4195,3.7536,3.9653,4.1295,4.2746,4.3763,4.4664,4.5624,4.5851,4.5957,4.6239,4.7012,4.7891,4.8769,4.9629,5.0195,5.0195,5.0195,4.9551,4.7812,4.7617,4.7656,0.0,4.9941,5.1777,5.2676,5.4316,5.5273,5.5332,5.6113,5.6953,5.7832,5.7031,5.7012,5.7851,5.7012,5.6601,5.6601,5.6601,5.6601,5.6601,5.6601,5.6601,5.6601,5.6523,5.6504,5.6484,5.5586,5.4726,5.3887,5.3027,5.2168,5.1406,5.1367,5.0762,4.9961,0.0,0.0,0.0,0.0,0.0,0.0,0.0,0.0,0.0,0.0,0.0,0.0,0.0,0.0,0.0,0.0,2.7129,3.168,3.6562,4.3613,4.9785,5.4668,5.9531,6.2676,6.3848,6.6152,6.7754,6.8633,6.9433,6.9639,6.9276,6.9666,6.9902,6.9994,7.0129,7.0206,7.0206,7.0283,6.9181,6.7224,6.5917,6.3066,5.9238,5.5762,5.0332,4.4336,0.0,3.9023,3.5527,3.5254,3.3633,3.1992,3.3457,3.2519,3.0996,3.1582,3.1973,3.2754,3.5293,0.0,3.9236,4.1954,4.3889,4.522,4.5624,4.5911,4.5853,4.5024,4.3594,4.2368,4.1873,4.2168,4.3144,4.5137,4.7148,4.8672,4.9258,4.9844,4.9121,4.6211,4.6894,0.0,0.0,0.0,0.0,5.2558,5.3789,5.4941,5.6094,5.6992,5.7324,5.7051,5.7305,5.7598,5.789,5.7617,5.7461,5.7461,5.6875,5.6894,5.7441,5.6855,5.6601,5.6562,5.5996,5.6074,5.6523,5.5664,5.5137,5.4824,5.4531,5.3887,5.3066,5.248,5.2051,5.1699,0.0,0.0,0.0,0.0,0.0,0.0,0.0,0.0,0.0,0.0,0.0,0.0,0.0,0.0,0.0,0.0,0.0,2.8691,3.3066,3.8848,4.418,4.8828,5.332,5.6426,5.793,5.9902,6.164,6.3125,6.4526,6.5486,6.6001,6.669,6.7406,6.8097,6.7936,6.8052,6.8302,6.7814,6.6262,6.3873,6.1386,5.7908,5.3808,5.0039,4.5058,0.0,3.7559,3.5078,3.2793,3.2226,3.1113,3.0117,3.0996,3.0547,2.9805,3.0351,3.1973,3.4375,3.8105,4.0586,4.2733,4.5447,4.6676,4.7162,4.7006,4.6448,4.5329,4.3011,4.1364,3.9813,3.8065,3.8164,3.9531,4.2715,4.4648,4.6582,4.9023,4.957,4.9023,4.709,4.7851,4.8301,0.0,0.0,0.0,5.2539,5.3808,5.5098,5.6523,5.7129,5.7324,5.707,5.7617,5.8047,5.8359,5.8359,5.8203,5.789,5.7656,5.7656,5.7871,5.7324,5.7051,5.7012,5.6133,5.6074,5.6562,5.5996,5.5586,5.5293,5.5293,5.4765,5.3887,5.3027,5.2695,5.2558,0.0,0.0,0.0,0.0,0.0,0.0,0.0,0.0,0.0,0.0,0.0,0.0,0.0,0.0,0.0,0.0,0.0,0.0,3.0137,3.1523,3.5059,4.1582,4.3808,4.6035,4.8516,4.955,5.1249,5.3671,5.6063,5.8023,5.9644,6.1819,6.3299,6.4104,6.3921,6.4282,6.4955,6.3412,6.1416,5.8898,5.4871,5.0839,4.6816,4.2656,3.8906,3.5644,3.3945,3.1738,2.9609,2.9648,2.914,0.0,2.9451,3.0916,3.2343,3.2539,3.4394,3.7305,4.1465,4.332,4.4817,4.7823,4.7942,4.726,4.6971,4.5451,4.3211,3.9978,3.9143,3.8022,0.0,0.0,3.7246,4.1465,4.2402,4.4375,4.9473,4.9551,4.9375,0.0,0.0,0.0,0.0,0.0,0.0,5.2656,0.0,5.5586,5.6543,5.668,5.707,5.7812,5.793,5.8359,5.9199,5.9199,5.8808,5.8047,5.8789,5.875,5.8027,5.7949,5.789,5.7851,5.6973,5.6601,5.6601,5.6601,5.6113,5.5371,5.5371,5.4863,5.4023,5.3144,5.2793,5.2656,0.0,0.0,0.0,0.0,0.0,0.0,0.0,0.0,0.0,0.0,0.0,0.0,0.0,0.0,0.0,0.0,0.0,0.0,2.5019,2.8965,3.2305,3.4707,4.0117,4.3379,4.4043,4.676,4.8505,4.9156,5.0335,5.1088,5.1408,5.2006,5.2665,5.3358,5.3299,5.3395,5.3587,5.321,5.2049,5.0245,4.7976,4.5368,4.2578,4.0176,3.7109,3.3926,3.2871,3.125,2.9707,0.0,0.0,0.0,0.0,3.2532,3.4358,3.7007,3.9629,4.2207,4.4648,4.7324,4.9436,4.9456,4.9309,4.8736,4.7237,4.4128,4.0948,3.8866,3.498,3.1721,0.0,0.0,0.0,3.8105,4.2363,0.0,4.9746,5.1074,0.0,5.1133,0.0,5.1816,5.1152,5.2266,0.0,0.0,5.3476,5.4316,5.6484,5.7832,5.8047,5.6973,5.8183,5.8984,5.9199,5.9199,5.9394,5.9746,5.8711,5.8769,5.9726,5.8476,5.789,5.7851,5.6973,5.6601,5.6601,5.6601,5.6465,5.6269,5.6269,5.6133,5.582,5.4961,5.4238,5.3633,0.0,0.0,0.0,0.0,0.0,0.0,0.0,0.0,0.0,0.0,0.0,0.0,0.0,0.0,0.0,0.0,0.0,0.0,0.0,2.5703,2.8066,2.9297,3.3398,3.582,3.6191,3.8463,3.9835,4.0208,4.2033,4.3102,4.3432,4.4832,4.5926,4.6685,4.705,4.7434,4.7778,4.7138,4.5934,0.0,0.0,3.9457,3.7051,3.5312,3.3203,3.1094,3.0644,3.0605,0.0,0.0,0.0,3.3384,3.4461,3.5993,3.8071,4.1574,0.0,4.5898,4.8437,5.0473,5.1629,5.0622,4.976,4.8351,4.5351,4.1999,3.8369,3.4434,3.1074,0.0,2.7415,2.9697,0.0,0.0,0.0,0.0,5.0098,5.1543,5.2363,0.0,5.3535,0.0,5.3164,5.4004,5.4726,0.0,5.4687,5.5058,5.6523,5.789,5.8008,5.664,5.8281,5.9199,5.9199,5.9922,6.0156,5.9863,5.9668,5.9863,6.0371,5.9433,5.9004,5.8945,5.8105,5.7734,5.7715,5.7324,5.7168,5.7129,5.6758,5.6601,5.6484,5.5625,5.498,5.4512,0.0,0.0,0.0,0.0,0.0,0.0,0.0,0.0,0.0,0.0,0.0,0.0,0.0,0.0,0.0,0.0,0.0,0.0,0.0,0.0,2.3711,2.5293,2.6309,2.7246,2.8105,2.8965,2.978,3.0535,3.3314,3.5067,3.585,3.8656,4.0399,4.1198,4.189,4.2729,4.3508,4.2182,4.0813,3.9294,3.6345,3.3828,3.168,0.0,2.8965,2.8281,2.8164,0.0,0.0,0.0,3.3945,3.5958,3.8341,4.0434,4.2662,4.5986,4.7582,4.8938,5.2031,5.2865,5.2548,5.1389,4.9606,4.6968,4.2489,3.9202,3.5343,2.9051,0.0,2.6694,2.4757,2.715,3.1113,3.6289,0.0,4.3555,5.0293,5.1426,5.25,5.5,5.539,5.5469,5.5469,5.5586,5.5957,5.6719,5.6777,5.6719,5.6601,5.7539,5.7734,5.6973,5.8301,5.8965,5.8867,6.0527,6.0644,5.9219,6.0781,6.1191,6.0566,6.0449,6.039,6.0351,5.9551,5.9199,5.914,5.8379,5.8008,5.7812,5.707,5.6699,5.6504,5.5742,5.5469,5.5351,0.0,0.0,0.0,0.0,0.0,0.0,0.0,0.0,0.0,0.0,0.0,0.0,0.0,0.0,0.0,0.0,0.0,0.0,0.0,0.0,0.0,2.3516,2.5078,2.6328,2.7207,2.8027,2.8481,2.8598,2.9089,2.9378,2.9492,3.0037,3.041,3.0571,3.0694,3.1244,3.2069,3.1913,3.2083,3.2372,3.1184,3.0449,2.9941,2.8906,0.0,0.0,0.0,0.0,0.0,0.0,3.7272,4.0217,4.21,4.4331,4.6784,4.9602,5.1064,5.2033,5.3405,5.4207,5.409,5.1678,4.9194,4.5967,4.0889,3.5671,0.0,0.0,2.4855,2.3274,2.4228,2.6659,3.0215,3.5391,0.0,0.0,0.0,0.0,5.3183,0.0,0.0,0.0,0.0,0.0,0.0,0.0,5.7676,5.7363,5.664,5.8105,5.8906,5.875,5.834,5.7773,5.7051,5.8769,5.9492,5.9219,6.0176,6.0918,6.1445,6.0723,6.039,6.0351,5.9551,5.9199,5.9199,5.9043,5.8555,5.7871,5.7734,5.7226,5.6582,5.6426,5.6367,5.6348,0.0,0.0,0.0,0.0,0.0,0.0,0.0,0.0,0.0,0.0,2.6699,2.5273,0.0,0.0,0.0,0.0,0.0,0.0,0.0,0.0,0.0,0.0,2.4102,2.5215,2.5644,2.6914,2.7341,2.6854,0.0,2.718,2.6697,2.7141,2.7353,2.7391,2.7849,2.8283,2.8695,2.8798,2.9047,2.9371,2.9054,2.8652,2.8203,0.0,0.0,0.0,0.0,0.0,0.0,0.0,3.5174,3.9244,4.4072,4.6443,4.7966,5.0587,5.223,5.3514,5.4879,5.5371,5.4876,5.2281,4.9278,4.518,3.8234,0.0,0.0,0.0,2.2948,2.2402,2.4082,2.6543,0.0,0.0,0.0,0.0,0.0,0.0,0.0,0.0,0.0,0.0,0.0,0.0,5.7715,5.7265,5.8066,5.8398,5.7988,5.832,5.8515,5.8515,5.8555,5.7949,5.6601,5.9199,6.0058,5.9219,6.0488,6.1308,6.1699,6.1269,6.1074,6.1055,6.0664,6.0508,6.0469,6.0019,5.9336,5.8574,5.8574,5.8047,5.7324,5.7793,5.7949,5.7949,0.0,0.0,0.0,0.0,0.0,0.0,0.0,2.5742,2.7109,3.0273,3.0801,2.9863,2.7109,2.375,0.0,0.0,0.0,0.0,0.0,0.0,0.0,0.0,0.0,0.0,0.0,0.0,0.0,2.5391,2.6223,0.0,0.0,0.0,0.0,0.0,2.7325,2.772,2.7923,2.7978,2.8099,0.0,0.0,2.75,0.0,0.0,0.0,0.0,0.0,0.0,0.0,0.0,3.166,3.6048,4.2604,4.5636,4.7226,4.9609,5.186,5.3976,5.5887,5.631,5.5549,5.2781,4.9336,4.4412,3.5883,3.193,0.0,0.0,2.153,2.2129,2.3809,2.5801,2.8457,0.0,3.418,0.0,0.0,0.0,0.0,0.0,0.0,0.0,0.0,0.0,0.0,5.7207,5.8594,5.9375,5.9219,5.8203,5.7793,5.8164,5.8476,5.8164,5.7168,5.9824,6.0586,5.9473,6.0976,6.1699,6.1699,6.1699,6.1699,6.1699,6.1699,6.1699,6.164,6.0957,6.0195,5.9453,5.9453,5.8926,5.8262,5.8945,5.9316,5.9433,0.0,0.0,0.0,0.0,0.0,0.0,0.0,2.5859,2.8652,3.3594,3.2285,3.0781,3.0469,2.7324,0.0,0.0,0.0,0.0,0.0,0.0,0.0,0.0,0.0,0.0,0.0,0.0,0.0,2.4434,2.5291,0.0,0.0,0.0,0.0,0.0,0.0,2.6229,2.7017,2.7036,0.0,0.0,0.0,0.0,0.0,0.0,0.0,0.0,0.0,0.0,0.0,0.0,0.0,3.1894,3.4916,3.9646,4.4414,4.623,0.0,0.0,5.5731,5.6806,5.6431,5.2974,4.8874,4.3511,3.5028,0.0,0.0,2.1663,2.0678,2.123,2.291,2.3477,2.5312,3.0312,3.1934,3.4941,0.0,0.0,0.0,0.0,0.0,0.0,0.0,0.0,5.9043,5.8965,5.9785,5.9961,5.9238,5.7617,5.7441,5.9023,5.7617,5.7519,5.8945,5.9277,5.9726,6.0293,6.125,6.1699,6.1699,6.1699,6.1699,6.1699,6.1699,6.1699,6.1699,6.1601,6.1074,6.0293,6.0293,5.9785,5.9082,5.918,5.9668,6.0195,0.0,0.0,0.0,0.0,0.0,0.0,0.0,2.6113,2.8262,3.3965,3.3828,3.2793,3.1797,2.9512,2.6035,0.0,0.0,0.0,0.0,0.0,0.0,0.0,0.0,0.0,0.0,0.0,0.0,2.4355,2.4707,0.0,0.0,0.0,0.0,0.0,0.0,2.503,2.5297,2.4822,0.0,0.0,0.0,0.0,0.0,0.0,0.0,0.0,0.0,0.0,0.0,0.0,0.0,0.0,2.7441,3.1191,0.0,0.0,4.6211,5.0164,5.3126,5.5557,5.6428,5.2856,4.8355,4.2742,3.4817,0.0,2.5998,2.1432,2.0558,2.1113,2.2793,2.3144,2.4368,2.7921,2.8823,3.1269,3.7598,0.0,0.0,0.0,0.0,0.0,0.0,0.0,5.8378,5.8965,5.8457,5.8387,5.8991,5.7977,5.7695,5.8398,5.8242,5.8496,5.9199,6.0195,6.0605,6.041,6.1289,6.1699,6.1699,6.1699,6.1699,6.1699,6.1699,6.1699,6.1699,6.1699,6.1191,6.0449,6.0976,6.0664,5.998,6.0508,6.0918,6.1133,0.0,0.0,0.0,0.0,0.0,0.0,2.5176,2.6191,2.8262,3.3301,3.3965,3.3516,3.2324,2.9726,2.6348,2.209,0.0,0.0,0.0,0.0,0.0,0.0,0.0,0.0,0.0,0.0,0.0,2.4394,2.4922,2.5488,0.0,0.0,0.0,0.0,0.0,0.0,0.0,0.0,0.0,0.0,0.0,0.0,0.0,0.0,0.0,0.0,0.0,0.0,0.0,0.0,0.0,0.0,0.0,0.0,0.0,0.0,4.2031,4.6638,4.9958,5.3088,5.4693,5.1638,4.6858,4.1104,0.0,2.9255,2.5015,2.1287,2.0572,2.1035,2.248,2.2988,2.3827,2.5801,2.6598,2.8889,3.4355,3.7299,0.0,0.0,0.0,0.0,0.0,5.6433,5.7759,5.8414,5.7441,5.7299,5.8394,5.8017,5.7986,5.8492,5.8904,5.9355,5.9883,6.082,6.1133,6.0781,6.1406,6.1699,6.1699,6.1699,6.1699,6.1699,6.1699,6.1699,6.1699,6.1699,6.1348,6.0859,6.1465,6.1328,6.0859,6.1465,6.1699,6.1699,0.0,0.0,0.0,0.0,0.0,0.0,0.0,2.6055,2.9219,3.1875,3.2226,3.2226,3.2207,2.7559,2.4434,2.4375,0.0,0.0,0.0,0.0,0.0,0.0,0.0,0.0,0.0,0.0,2.3594,2.4394,2.6133,2.6973,2.6973,2.6094,2.5234,0.0,0.0,0.0,0.0,0.0,0.0,0.0,0.0,0.0,2.1816,0.0,0.0,0.0,0.0,0.0,0.0,0.0,0.0,0.0,0.0,2.248,2.4375,0.0,3.7129,4.3183,4.6543,4.9312,5.0826,4.899,4.4013,3.8233,0.0,2.8017,2.3621,2.1115,2.0605,2.0879,2.1758,2.2559,2.3378,2.4184,2.5784,2.8407,3.2712,0.0,0.0,0.0,0.0,0.0,5.1329,5.5241,5.762,5.7426,5.7389,5.7398,5.7422,5.741,5.8201,5.9923,5.9289,5.9726,6.1465,6.0762,6.084,6.1699,6.1699,6.1699,6.1699,6.1699,6.1699,6.1699,6.1699,6.1699,6.1699,6.1699,6.1699,6.1699,6.1699,6.1699,6.1699,6.1699,6.1699,6.1699,0.0,0.0,0.0,0.0,0.0,0.0,0.0,2.1816,2.3496,2.7266,2.7246,2.7559,2.9336,2.6465,2.4394,2.4394,0.0,0.0,0.0,0.0,0.0,0.0,0.0,0.0,0.0,0.0,2.3848,2.5293,2.7031,2.8184,2.873,2.7285,2.6113,2.5195,2.3203,0.0,0.0,0.0,0.0,0.0,0.0,2.1016,2.0977,0.0,0.0,0.0,0.0,0.0,0.0,0.0,0.0,0.0,0.0,0.0,0.0,2.5254,3.0469,3.6016,3.873,4.1378,4.2755,4.0295,3.6939,3.3226,2.9332,2.5838,2.2881,2.0982,2.0605,2.0879,2.1738,2.2109,2.3103,2.5651,2.7575,2.9805,0.0,0.0,0.0,0.0,0.0,0.0,0.0,0.0,5.6501,5.6578,5.6596,5.6771,5.7255,5.7249,5.8115,5.9939,5.9777,6.019,6.135,6.1219,6.1289,6.1562,6.166,6.1699,6.1699,6.1699,6.1699,6.1699,6.1699,6.1699,6.1699,6.1699,6.1699,6.1699,6.1699,6.1699,6.1699,6.1699,6.1699,6.1699,0.0,0.0,0.0,0.0,0.0,0.0,0.0,1.9785,2.123,2.3926,2.4082,2.4922,2.7539,2.4902,2.3359,2.4316,0.0,0.0,0.0,0.0,0.0,0.0,0.0,0.0,0.0,2.1934,2.3965,2.668,2.8105,2.9551,3.0996,2.9277,2.748,2.5605,2.3379,0.0,0.0,0.0,0.0,0.0,2.0605,2.0605,2.0605,0.0,0.0,0.0,0.0,0.0,0.0,0.0,0.0,0.0,0.0,0.0,0.0,0.0,2.5332,2.9062,0.0,3.5137,3.6462,3.4734,3.2143,0.0,2.6939,2.4158,2.1803,2.0815,2.0605,2.0762,2.1309,2.1666,2.2653,2.5074,2.6916,2.9129,0.0,0.0,0.0,0.0,0.0,0.0,0.0,5.5299,5.5915,5.6013,5.6013,5.6472,5.7569,5.73,5.7953,5.9738,5.9873,6.0185,6.0735,6.1184,6.1445,6.1504,6.1582,6.164,6.1699,6.1699,6.1699,6.1699,6.1699,6.1699,0.0,6.1699,6.1699,6.1699,6.1699,6.1699,6.1699,6.1699,6.1699,6.1699,0.0,0.0,0.0,0.0,0.0,0.0,0.0,0.0,0.0,0.0,2.2461,2.3906,2.6289,2.2988,2.1543,0.0,0.0,0.0,0.0,0.0,0.0,0.0,0.0,0.0,0.0,2.1562,2.4082,2.8203,2.9316,3.1113,3.3457,3.1894,2.9277,2.5801,2.4121,0.0,0.0,0.0,0.0,0.0,2.0605,2.0605,0.0,0.0,0.0,0.0,0.0,0.0,0.0,0.0,0.0,0.0,0.0,0.0,0.0,0.0,0.0,0.0,0.0,3.0195,3.1445,0.0,0.0,2.6328,2.5527,2.2871,0.0,2.0605,2.0605,2.0664,2.084,2.137,2.2211,2.3443,2.4962,2.7412,0.0,0.0,0.0,0.0,0.0,0.0,5.1951,5.4357,5.5838,5.5722,5.5761,5.6472,5.803,5.7415,5.7684,5.9184,5.9469,5.9661,5.9777,6.0781,6.1352,6.1498,6.1503,6.1562,6.1699,6.1699,6.1699,6.1699,6.1699,6.1699,6.1699,6.1699,6.1699,6.1699,6.1699,6.1699,6.1699,6.1699,6.1699,6.1699,0.0,0.0,0.0,0.0,0.0,0.0,0.0,0.0,0.0,0.0,0.0,2.1309,2.1953,2.1133,0.0,0.0,0.0,0.0,0.0,0.0,0.0,0.0,0.0,0.0,0.0,2.2715,2.4961,2.7305,3.0801,3.3144,3.4394,3.3984,3.1621,2.7617,2.5879,2.3437,0.0,0.0,0.0,0.0,2.0605,2.0605,0.0,0.0,0.0,0.0,2.0605,2.0605,0.0,0.0,0.0,0.0,0.0,0.0,0.0,0.0,2.0918,2.1172,2.2383,0.0,2.416,2.3496,2.2715,2.2051,0.0,2.1172,2.0605,0.0,0.0,2.1191,2.3144,2.2571,2.338,2.8263,2.9807,3.1432,0.0,0.0,0.0,0.0,0.0,5.4295,5.3161,5.4682,5.578,5.5838,5.6376,5.6569,5.6319,5.6742,5.6857,5.6588,5.728,5.828,5.9569,6.0569,6.1169,6.1365,6.1445,6.1562,6.1699,6.1699,6.1699,6.1699,6.1699,6.1699,6.1699,6.1699,6.1699,6.1699,6.1699,6.1699,6.1699,6.1699,6.1699,6.1699,0.0,0.0,0.0,0.0,0.0,0.0,0.0,0.0,0.0,0.0,0.0,0.0,0.0,0.0,0.0,0.0,0.0,0.0,0.0,0.0,0.0,0.0,0.0,0.0,2.0605,2.2344,2.4883,2.8184,3.0918,3.3711,3.6465,3.5664,3.3223,2.9336,2.5605,2.2715,0.0,0.0,0.0,2.0605,2.0605,0.0,0.0,0.0,0.0,0.0,2.0605,2.0605,0.0,2.2031,2.1894,2.1348,0.0,0.0,0.0,0.0,2.0605,2.0605,2.0605,2.1797,2.293,2.2461,2.2344,2.2344,2.2344,0.0,0.0,0.0,0.0,0.0,2.2923,2.2763,2.3818,2.8317,3.0626,0.0,0.0,0.0,0.0,0.0,5.326,5.4607,0.0,5.5201,5.5722,5.5799,5.6165,5.6357,5.6299,5.6357,5.6357,5.6299,5.6742,5.7434,5.8338,5.9765,6.0512,6.0704,6.1255,6.1576,6.1699,6.1699,6.1699,6.1699,6.1699,6.1699,6.1699,6.1699,6.1699,6.1699,6.1699,6.1699,6.1699,6.1699,6.1699,6.1699,0.0,0.0,0.0,0.0,0.0,0.0,0.0,0.0,0.0,0.0,0.0,0.0,0.0,0.0,0.0,0.0,0.0,0.0,0.0,0.0,0.0,0.0,0.0,2.0781,2.1172,2.1777,2.4492,2.9394,3.0801,3.3711,3.7988,3.7168,3.4609,3.0449,2.4668,2.1523,0.0,0.0,0.0,2.0605,2.0605,0.0,0.0,0.0,0.0,0.0,0.0,0.0,0.0,2.2246,2.2266,2.1836,2.2578,0.0,0.0,0.0,0.0,0.0,2.0918,2.2949,2.4843,2.4173,2.4209,2.4348,2.4238,0.0,0.0,0.0,0.0,0.0,0.0,0.0,0.0,0.0,0.0,0.0,0.0,0.0,0.0,0.0,5.301,0.0,5.5222,5.5549,5.5703,5.5703,5.5818,5.6145,5.6761,5.6222,5.6165,5.678,5.6819,5.6819,5.6819,5.8668,5.9685,5.9835,6.0704,6.1244,6.1504,6.1504,6.1562,6.1699,6.1699,6.1699,6.1699,6.1699,6.1699,6.1699,6.1699,6.1699,6.1699,6.1699,6.1699,6.1699,0.0,0.0,0.0,0.0,0.0,0.0,0.0,0.0,0.0,0.0,0.0,0.0,0.0,0.0,0.0,0.0,0.0,0.0,0.0,0.0,0.0,0.0,2.0605,2.1602,2.3769,2.3281,2.4805,2.8496,3.2266,3.4512,3.5371,3.8809,3.6601,2.9609,2.498,2.2051,2.0605,0.0,0.0,2.0605,2.0605,0.0,0.0,0.0,0.0,0.0,0.0,0.0,0.0,2.0898,2.0898,2.082,2.0957,0.0,0.0,0.0,0.0,0.0,2.2324,2.5156,2.6829,2.3127,2.3268,2.4135,2.345,0.0,0.0,0.0,0.0,0.0,0.0,0.0,0.0,0.0,0.0,0.0,0.0,0.0,0.0,5.1933,0.0,5.5665,5.378,5.4876,5.5703,5.5703,5.6376,5.653,5.5934,5.6472,5.6511,5.5915,5.6011,5.6069,5.6069,5.7819,5.8816,5.9081,5.9235,5.9754,6.0605,6.0605,6.0996,6.1699,6.1699,6.1699,6.1699,6.1699,6.1699,6.1699,6.1699,6.1699,6.1699,6.1699,6.1699,6.1699,0.0,0.0,0.0,0.0,0.0,0.0,0.0,0.0,0.0,0.0,0.0,0.0,0.0,0.0,0.0,0.0,0.0,0.0,0.0,0.0,0.0,2.1914,2.1992,2.2754,2.4355,2.543,2.7637,3.1055,3.3965,3.6138,3.7488,3.6708,3.3398,2.7969,2.4141,2.1758,2.0605,2.0605,2.0605,2.0605,0.0,0.0,0.0,0.0,0.0,0.0,0.0,0.0,0.0,0.0,2.1309,2.1309,2.1309,0.0,0.0,0.0,0.0,0.0,2.1543,2.3926,2.5828,2.4254,2.5817,2.7537,2.6651,0.0,0.0,0.0,0.0,0.0,0.0,0.0,0.0,0.0,0.0,0.0,0.0,5.1106,5.2049,0.0,0.0,5.4838,5.4587,5.5241,5.5703,5.5703,5.6069,5.6107,5.5722,5.6069,5.6107,5.5703,5.5761,5.5885,5.6071,5.685,5.7601,5.8264,5.8814,5.9306,5.9746,5.9746,5.9961,6.0351,6.0351,6.0605,6.0996,6.0996,6.1289,6.1699,6.1699,6.1699,6.1699,6.1699,6.1699,6.1699,0.0,0.0,0.0,0.0,0.0,0.0,0.0,0.0,0.0,0.0,0.0,0.0,0.0,0.0,0.0,0.0,0.0,0.0,0.0,0.0,2.1172,2.2461,2.3144,2.4336,2.6191,2.7793,3.0371,3.4004,3.5742,3.7628,3.946,3.4514,3.0302,2.6758,2.3594,2.1582,2.0605,2.0605,2.0605,2.0605,0.0,0.0,0.0,0.0,0.0,0.0,0.0,0.0,0.0,0.0,0.0,0.0,0.0,0.0,0.0,2.0801,2.0605,2.0684,2.1094,2.2905,2.4872,2.5704,0.0,3.014,3.0207,0.0,0.0,0.0,0.0,0.0,0.0,0.0,0.0,0.0,0.0,4.8894,5.126,5.1914,5.2568,5.3664,5.3972,5.4434,5.5318,5.5588,5.553,5.5145,5.5472,5.5607,5.5434,5.5588,5.5703,5.5703,5.5722,5.5885,5.6201,5.6236,5.6654,5.745,5.8212,5.8691,5.8906,5.8906,5.9004,5.9199,5.9199,5.9551,6.0117,6.0117,6.0625,6.1406,6.1406,6.1523,6.1699,6.1699,6.1699,6.1699,0.0,0.0,0.0,0.0,0.0,0.0,0.0,0.0,0.0,0.0,0.0,0.0,0.0,0.0,0.0,0.0,0.0,0.0,0.0,0.0,2.0644,2.0762,2.3047,2.6602,3.1523,3.0234,3.1582,3.5801,3.7559,3.8471,3.8508,3.421,3.0295,2.6797,2.418,2.2109,2.0605,2.0605,2.0605,2.0605,2.0605,0.0,0.0,0.0,0.0,0.0,0.0,0.0,0.0,0.0,0.0,0.0,0.0,0.0,2.0684,2.0625,2.0605,2.0957,2.2578,2.4228,2.5712,2.6581,2.7602,0.0,3.2299,0.0,0.0,0.0,0.0,0.0,0.0,0.0,0.0,0.0,0.0,5.2183,5.3972,0.0,5.628,5.5588,5.6222,5.6145,5.4722,5.5261,5.5049,5.351,5.4818,5.5376,5.4626,5.528,5.5703,5.5703,5.5818,5.5974,5.621,5.6315,5.6476,5.6675,5.6757,5.7207,5.7988,5.7988,5.8437,5.9199,5.9199,5.9238,5.9297,5.9297,5.9765,6.0488,6.0488,6.0996,6.1699,6.1699,6.1699,6.1699,0.0,0.0,0.0,0.0,0.0,0.0,0.0,0.0,0.0,0.0,0.0,0.0,0.0,0.0,0.0,0.0,0.0,0.0,0.0,0.0,2.1074,2.2109,2.3594,2.6094,2.9707,3.1738,3.4629,3.8437,3.8507,3.7946,3.672,3.1939,2.8384,2.5905,2.2885,2.1484,2.1367,2.082,2.0918,2.1367,2.082,2.0605,0.0,0.0,0.0,0.0,0.0,0.0,0.0,0.0,2.0605,2.0605,2.0605,2.0605,2.0605,2.0605,2.0605,2.0742,2.1406,2.4375,2.7354,2.7679,0.0,0.0,0.0,0.0,0.0,0.0,0.0,0.0,0.0,0.0,0.0,0.0,5.0394,5.2683,5.4934,5.578,5.5876,5.5049,5.5241,5.4972,5.3818,5.3972,5.3876,5.326,5.3799,5.401,5.3703,5.4491,5.4703,5.4164,5.4722,5.5145,5.5395,5.5433,5.584,5.6601,5.6601,5.6777,5.709,5.709,5.7265,5.7578,5.7578,5.789,5.8398,5.8398,5.9199,6.0449,6.0996,6.1406,6.1699,6.1699,6.1699,6.1699,0.0,0.0,0.0,0.0,0.0,0.0,0.0,0.0,0.0,0.0,0.0,0.0,0.0,0.0,0.0,0.0,0.0,0.0,0.0,2.0449,2.1113,2.2266,2.3398,2.5078,2.7422,3.1691,3.5334,3.8229,3.7844,3.658,3.4455,3.0471,2.7788,2.6196,2.315,2.2285,2.3008,2.1602,2.1348,2.1816,2.0957,2.0605,0.0,0.0,0.0,0.0,0.0,0.0,0.0,0.0,2.0605,2.0605,2.0605,2.0605,2.0605,2.0605,2.077,2.0921,2.0662,2.3942,2.7479,0.0,0.0,0.0,0.0,0.0,0.0,0.0,0.0,0.0,0.0,0.0,0.0,0.0,5.0856,5.3029,5.503,5.5318,5.5011,5.4184,5.4087,5.376,5.2876,5.3049,5.2991,5.2452,5.2895,5.3087,5.2799,5.3626,5.3818,5.3222,5.3818,5.426,5.4489,5.4791,5.5385,5.6191,5.6465,5.6601,5.6601,5.6601,5.6601,5.6601,5.6601,5.6933,5.748,5.748,5.8496,6.0137,6.1269,6.1699,6.1699,6.1699,6.1699,6.1699,0.0,0.0,0.0,0.0,0.0,0.0,0.0,0.0,0.0,0.0,0.0,0.0,0.0,0.0,0.0,0.0,0.0,0.0,1.9375,2.0117,2.0605,2.0605,2.2207,2.3887,2.5605,2.99,3.2947,3.4595,3.5374,3.4408,3.1742,3.0198,2.8975,2.7962,2.5514,2.4883,2.5508,2.2969,2.1894,2.1816,2.0957,2.0605,2.0605,0.0,0.0,0.0,0.0,0.0,0.0,0.0,2.0605,2.0605,2.0605,2.0605,2.0625,2.0605,2.1182,2.1658,2.0841,2.3038,2.5779,0.0,0.0,0.0,0.0,0.0,0.0,0.0,0.0,0.0,0.0,0.0,0.0,4.7836,5.0971,5.3491,5.4357,5.4491,5.4164,5.3299,5.3203,5.2856,5.1972,5.2683,5.2491,5.0818,5.2241,5.2799,5.1933,5.2722,5.3183,5.3183,5.3297,5.3453,5.3587,5.4587,5.5142,5.5293,5.6172,5.6582,5.6601,5.6601,5.6601,5.6601,5.6601,5.6601,5.6601,5.6601,5.7637,5.9375,6.1035,6.1699,6.1699,6.1699,6.1699,6.1699,0.0,0.0,0.0,0.0,0.0,0.0,0.0,0.0,0.0,0.0,0.0,0.0,0.0,0.0,0.0,0.0,0.0,0.0,2.0195,2.0469,2.0605,2.0605,2.166,2.2207,2.2109,2.5088,2.9252,3.4604,3.3615,3.2067,3.0007,2.8362,2.7132,2.6234,2.5593,2.4785,2.3789,2.2461,2.1894,2.1816,2.0957,2.0605,2.0605,0.0,0.0,0.0,0.0,0.0,0.0,0.0,0.0,0.0,2.0605,2.1445,2.2187,2.0957,2.2042,2.3435,2.2523,2.5649,0.0,0.0,0.0,0.0,0.0,0.0,0.0,0.0,0.0,0.0,0.0,0.0,0.0,4.8836,5.0375,5.1933,5.3376,5.3587,5.326,5.2395,5.2299,5.1972,5.1144,5.1279,5.1241,5.0741,5.1164,5.1318,5.1068,5.1837,5.2068,5.1587,5.2164,5.2607,5.282,5.3128,5.3637,5.4394,5.5273,5.6015,5.6601,5.6601,5.6601,5.6601,5.6601,5.6601,5.664,5.7265,5.8183,5.9316,6.0371,6.1152,6.1699,6.1699,6.1699,6.1699,0.0,0.0,0.0,0.0,0.0,0.0,0.0,0.0,0.0,0.0,1.9615,0.0,0.0,0.0,0.0,0.0,0.0,0.0,0.0,0.0,2.0605,2.0605,2.1094,2.1602,2.2109,2.3906,2.6729,3.0546,3.0148,2.9206,2.7798,2.817,2.8078,2.7632,2.8086,2.7305,2.5566,2.3691,2.2695,2.2305,2.1465,2.1113,2.1113,0.0,0.0,0.0,0.0,0.0,0.0,0.0,0.0,0.0,2.0605,2.1328,2.1953,2.0918,2.2168,2.3836,2.3629,0.0,0.0,0.0,0.0,0.0,0.0,0.0,0.0,0.0,0.0,0.0,4.7221,4.7644,0.0,4.9721,5.0625,5.1529,5.2549,5.2683,5.2375,5.1529,5.1414,5.1221,5.0741,5.0375,5.0183,5.0183,4.9856,4.9683,4.974,5.0221,5.0298,4.9952,5.0798,5.1337,5.1511,5.223,5.2887,5.3496,5.4375,5.5058,5.5586,5.6289,5.6601,5.6601,5.6601,5.6601,5.668,5.7539,5.8203,5.8808,5.9941,6.0723,6.123,6.1562,6.1699,6.1699,0.0,0.0,0.0,0.0,0.0,0.0,0.0,0.0,0.0,0.0,2.0369,2.0427,0.0,0.0,0.0,0.0,0.0,0.0,0.0,0.0,2.0605,2.0605,2.0684,2.1797,2.4121,2.4941,2.4961,2.418,2.5784,2.614,2.5351,2.8835,3.0458,3.0492,3.1513,3.0918,2.8904,2.5586,2.3672,2.2793,2.207,2.1777,2.1777,2.1777,0.0,0.0,0.0,0.0,0.0,0.0,0.0,0.0,2.0605,2.0703,2.0801,2.0644,2.1836,2.3449,2.4481,0.0,0.0,0.0,0.0,0.0,0.0,0.0,0.0,0.0,0.0,4.8529,4.9163,4.8759,4.8836,5.0337,5.1202,5.1683,5.1683,5.1606,5.1279,5.0548,5.0452,5.0452,5.0452,4.974,4.9279,4.9279,4.8548,4.8163,4.8279,4.8298,4.8375,4.851,4.9394,4.9875,4.9889,5.1531,5.2383,5.248,5.3359,5.3808,5.3945,5.5683,5.6523,5.6601,5.6601,5.6601,5.666,5.7441,5.7832,5.8047,5.957,6.0273,6.0508,6.1289,6.1621,6.1699,0.0,0.0,0.0,0.0,0.0,0.0,0.0,0.0,0.0,0.0,0.0,0.0,0.0,0.0,0.0,0.0,0.0,0.0,0.0,0.0,2.0605,2.0605,2.1269,2.1875,2.2422,2.2617,2.2637,2.2441,2.4092,2.4446,2.3606,2.7098,2.8385,2.7808,2.9442,2.8437,2.5382,2.3306,2.1894,2.1055,2.0937,2.0879,2.0879,2.0879,2.0762,0.0,0.0,0.0,0.0,0.0,0.0,0.0,2.0605,2.1543,2.2363,2.0996,2.2266,2.4609,2.6784,2.902,0.0,0.0,0.0,0.0,0.0,0.0,0.0,0.0,0.0,4.9779,4.8606,4.9336,5.0029,4.9721,4.9817,4.9933,4.9933,4.9356,4.8856,4.8682,4.8663,4.8663,4.8663,4.849,4.8375,4.8375,4.8221,4.8163,4.8279,4.8298,4.8414,4.8644,4.8856,4.9021,4.9142,4.9527,5.0058,5.0742,5.1562,5.2324,5.3047,5.4785,5.5957,5.6601,5.6601,5.6601,5.6601,5.6797,5.7285,5.7949,5.8301,5.9238,6.043,6.0605,6.1113,6.1699,0.0,0.0,0.0,0.0,0.0,0.0,0.0,0.0,0.0,0.0,0.0,0.0,0.0,0.0,0.0,0.0,0.0,0.0,0.0,0.0,0.0,2.0605,2.1426,2.1699,2.1289,2.1699,2.1699,2.1289,2.2148,2.2749,0.0,2.616,2.7531,2.7535,2.8899,2.7807,2.4813,2.3173,2.1947,2.1133,2.1191,2.1211,2.1211,2.1211,2.0957,2.0605,2.0564,0.0,0.0,0.0,0.0,0.0,0.0,0.0,2.1777,2.0879,2.2129,2.4375,0.0,0.0,0.0,0.0,0.0,0.0,0.0,0.0,0.0,0.0,4.8625,4.9183,4.8279,4.8836,4.9317,4.8856,4.8779,4.8779,4.8779,4.8394,4.8105,4.8105,4.8105,4.8105,4.8105,4.7759,4.7528,4.7528,4.7201,4.7028,4.7144,4.7201,4.7349,4.7543,4.7962,4.8217,4.8281,4.8691,4.9121,4.957,5.0,5.0859,5.2148,5.3887,5.5156,5.5976,5.5976,5.6211,5.6601,5.6601,5.6875,5.7324,5.7734,5.8691,5.9863,6.0254,6.0957,6.1699,0.0,0.0,0.0,0.0,0.0,0.0,0.0,0.0,0.0,0.0,0.0,0.0,0.0,0.0,0.0,0.0,0.0,0.0,0.0,0.0,0.0,2.0605,2.1426,2.1562,2.084,2.1519,2.1539,2.082,2.0664,0.0,0.0,0.0,0.0,2.7682,2.8403,2.7357,2.4944,2.332,2.2221,2.1561,2.1621,2.168,2.168,2.168,2.1229,2.0586,2.0521,2.0536,2.0579,2.0527,0.0,0.0,0.0,0.0,2.0605,2.0605,2.1621,2.334,0.0,0.0,0.0,0.0,0.0,0.0,0.0,0.0,0.0,4.8123,4.8105,4.8086,4.7932,4.8009,4.8048,4.7932,4.7894,4.7894,4.7894,4.7759,4.7663,4.7663,4.7663,4.7663,4.7663,4.7067,4.6701,4.6721,4.6124,4.5834,4.593,4.6046,4.615,4.6308,4.6992,4.7383,4.7383,4.8086,4.8535,4.8672,4.8828,4.9629,5.1016,5.2617,5.3984,5.5078,5.5234,5.5625,5.6172,5.6484,5.6504,5.6465,5.7344,5.8203,5.9062,5.9726,6.0605,6.1484,0.0,0.0,0.0,0.0,0.0,0.0,0.0,0.0,0.0,0.0,0.0,0.0,0.0,0.0,0.0,0.0,0.0,0.0,2.0371,0.0,0.0,2.0605,2.1426,2.1855,2.1738,2.1779,2.1774,2.1738,0.0,0.0,0.0,0.0,0.0,2.5843,0.0,2.5,2.3137,2.1467,2.0688,2.0591,2.066,2.0723,2.0762,2.0762,2.0662,2.052,2.0508,2.0504,2.0514,2.0495,2.0547,0.0,0.0,0.0,2.0605,2.0605,2.0762,2.168,0.0,0.0,0.0,0.0,0.0,0.0,0.0,0.0,0.0,0.0,4.7413,4.8028,4.7278,4.7682,4.7875,4.7182,4.7067,4.7067,4.7067,4.6413,4.5932,4.5932,4.5932,4.5932,4.5932,4.5836,4.5817,4.595,4.5873,4.5873,4.6065,4.6084,4.615,4.6308,4.6406,4.6465,4.6465,4.6582,4.7031,4.7773,4.8535,4.9023,4.9277,5.0254,5.1973,5.4219,5.4961,5.4941,5.4453,5.5976,5.6152,5.5566,5.6426,5.7305,5.8086,5.8183,5.9238,6.0566,0.0,0.0,0.0,0.0,0.0,0.0,0.0,0.0,0.0,0.0,0.0,0.0,0.0,0.0,0.0,2.0566,2.0254,2.0195,2.0566,2.0605,2.0605,2.0605,2.0977,2.1172,2.1172,2.1119,2.1107,2.1172,0.0,0.0,0.0,2.463,2.554,0.0,0.0,0.0,0.0,2.1262,2.0337,2.0357,2.0455,2.0527,2.0547,2.0586,2.0575,2.055,2.0469,2.0465,2.0492,2.0464,2.048,2.0547,2.0586,0.0,0.0,0.0,2.0957,0.0,0.0,0.0,0.0,0.0,0.0,0.0,0.0,0.0,4.5483,4.5475,4.6327,4.6931,4.6465,4.6644,4.674,4.6394,4.6336,4.6336,4.6336,4.6026,4.5757,4.5719,4.5719,4.568,4.5605,4.568,4.5738,4.5796,4.5911,4.6007,4.6103,4.6177,4.6245,4.6308,4.6308,4.6308,4.6308,4.6308,4.6484,4.6875,4.7754,4.8164,4.8223,4.957,5.1055,5.2598,5.3457,5.3906,5.4101,5.5351,5.5644,5.539,5.6269,5.7129,5.789,5.789,5.8965,6.039,0.0,0.0,0.0,0.0,0.0,0.0,0.0,0.0,0.0,0.0,0.0,0.0,0.0,0.0,0.0,0.0,2.0605,2.0605,2.0605,2.0605,2.0605,2.0605,2.0605,2.0605,2.0605,2.0521,2.0518,0.0,0.0,0.0,2.4306,2.4237,2.5638,0.0,2.5543,0.0,0.0,0.0,0.0,2.0612,2.0499,2.0456,2.0483,2.0522,2.0537,2.0514,2.0412,2.0408,2.0431,2.0408,2.0431,2.0508,2.0586,2.0605,0.0,0.0,0.0,0.0,0.0,0.0,0.0,0.0,0.0,0.0,0.0,0.0,4.4336,0.0,4.4953,4.5465,4.5362,4.565,4.5901,4.5901,4.5901,4.5901,4.5901,4.5727,4.5576,4.5519,4.5327,4.5163,4.5049,4.5336,4.5528,4.5528,4.5892,4.6031,4.5835,4.5924,4.5879,4.5644,4.5859,4.5976,4.5976,4.6191,4.6308,4.6308,4.6953,4.7266,4.7324,4.8848,4.998,5.084,5.2148,5.2949,5.3418,5.4512,5.4961,5.5058,5.5937,5.6788,5.7514,5.7555,5.8476,5.9726,0.0,0.0,0.0,0.0,0.0,0.0,0.0,0.0,0.0,0.0,0.0,0.0,0.0,2.0605,2.0605,2.0605,2.0605,2.0605,2.0605,2.0605,2.0605,2.0605,2.0605,0.0,2.0605,2.047,0.0,0.0,0.0,0.0,2.4296,2.4238,2.5967,2.9017,2.6388,2.3908,2.1639,0.0,0.0,0.0,0.0,2.0346,2.0418,2.0418,2.0366,2.0315,0.0,0.0,0.0,0.0,0.0,0.0,0.0,2.0605,2.0605,0.0,0.0,0.0,0.0,0.0,0.0,0.0,0.0,0.0,0.0,0.0,0.0,4.2539,4.3222,4.3827,4.3826,4.4952,4.59,4.59,4.59,4.59,4.59,4.523,4.4763,4.4763,4.4018,4.3534,4.3534,4.4263,4.478,4.4857,4.5624,4.5783,4.5092,4.5058,4.4687,4.3867,4.4648,4.5078,4.5078,4.5898,4.6308,4.6308,4.6348,4.6367,4.6406,4.7324,4.8203,4.918,5.1621,5.2266,5.168,5.3379,5.4062,5.4141,5.5039,5.5829,5.6483,5.6611,5.7168,5.7851,0.0,0.0,0.0,0.0,0.0,0.0,0.0,0.0,0.0,0.0,0.0,0.0,0.0,2.0605,2.0605,2.0605,2.0605,2.0605,2.0605,2.0605,2.0605,2.0605,2.0605,2.0605,2.0605,2.0504,0.0,0.0,0.0,2.1513,2.3538,2.3465,2.4038,2.5129,2.4726,2.4312,2.3803,2.1639,0.0,0.0,0.0,0.0,0.0,0.0,0.0,0.0,0.0,0.0,0.0,0.0,0.0,0.0,0.0,0.0,0.0,0.0,0.0,0.0,0.0,0.0,0.0,0.0,0.0,0.0,0.0,3.6035,3.8398,3.9004,4.1113,4.3047,4.3594,4.4583,4.5132,4.4585,4.4956,4.5132,4.4566,4.4234,4.4039,4.4,4.3729,4.3491,4.3416,4.3755,4.4013,4.4032,4.4364,4.4445,4.4179,4.418,4.4023,4.3711,4.4004,4.4433,4.498,4.5312,4.5742,4.6308,4.6308,4.6308,4.6328,4.7207,4.7773,4.8144,4.9629,5.0683,5.1484,5.2676,5.3164,5.3301,5.4746,5.5403,5.563,5.6246,5.6995,5.7715,0.0,0.0,0.0,0.0,0.0,0.0,0.0,0.0,0.0,0.0,0.0,0.0,0.0,0.0,2.0605,2.0605,2.0605,2.0605,2.0605,2.0605,2.0605,2.0605,2.0605,2.0605,2.0605,2.0527,0.0,0.0,0.0,0.0,0.0,2.2604,2.2843,2.3325,2.3253,2.3524,0.0,0.0,0.0,2.0696,0.0,0.0,2.1177,0.0,0.0,0.0,0.0,0.0,0.0,0.0,0.0,0.0,0.0,0.0,0.0,0.0,0.0,0.0,0.0,0.0,0.0,0.0,0.0,2.7396,2.9146,0.0,3.4843,3.5742,3.8454,4.0918,4.1758,4.291,4.3711,4.3691,4.4199,4.4355,4.3789,4.3457,4.3242,4.3203,4.2695,4.2318,4.2231,4.2578,4.2792,4.2792,4.3353,4.3574,4.3281,4.3262,4.3262,4.3262,4.3262,4.3672,4.4551,4.4844,4.5293,4.5879,4.6152,4.6308,4.6328,4.6894,4.7324,4.7637,4.8203,4.9433,5.1035,5.1621,5.2187,5.2832,5.4297,5.4936,5.5149,5.6114,5.6765,5.7207,0.0,0.0,0.0,0.0,0.0,0.0,0.0,0.0,0.0,0.0,0.0,0.0,0.0,0.0,0.0,2.0605,2.0605,2.0605,2.0605,2.0605,2.0605,2.0605,2.0605,2.0605,2.0605,2.0547,2.0527,2.0605,2.0531,0.0,0.0,0.0,2.253,2.4014,2.2254,2.1466,2.1523,0.0,2.2274,2.1543,0.0,2.2043,2.2928,0.0,0.0,0.0,2.5591,2.5322,0.0,2.3629,0.0,0.0,0.0,0.0,0.0,0.0,0.0,0.0,0.0,0.0,0.0,0.0,0.0,0.0,2.6366,0.0,3.2025,3.2866,3.5162,3.7265,3.8125,3.9785,4.1562,4.3242,4.3594,4.3633,4.3555,4.2832,4.2324,4.2285,4.0859,3.9863,3.9863,4.0625,4.1133,4.1152,4.2676,4.3223,4.2363,4.2324,4.2344,4.2363,4.2363,4.2773,4.3652,4.4531,4.4961,4.5019,4.5879,4.6308,4.6308,4.6308,4.6758,4.7558,4.7558,4.8535,5.0137,5.0176,5.1152,5.2715,5.3613,5.4322,5.4991,5.6154,5.6398,5.6233,0.0,0.0,0.0,0.0,0.0,0.0,0.0,0.0,0.0,0.0,0.0,0.0,0.0,0.0,2.0467,2.0527,2.0527,2.0547,2.0605,2.0605,2.0605,2.0605,2.0605,2.0605,2.0605,2.0586,2.0586,2.0605,2.0575,2.0644,2.0789,2.0771,2.0974,0.0,2.0869,2.0639,2.0658,2.0889,0.0,0.0,2.1754,2.2389,0.0,0.0,0.0,0.0,0.0,2.5717,2.6197,0.0,2.509,2.4091,0.0,0.0,0.0,0.0,0.0,0.0,2.1543,0.0,0.0,0.0,0.0,0.0,2.2964,2.4888,2.7025,2.9091,3.1139,3.3197,3.5217,3.6083,3.7051,3.873,4.1113,4.2129,4.0273,4.0351,4.0351,3.9726,3.9238,3.8965,3.8965,3.918,3.957,4.0215,4.0684,4.0859,4.0605,4.0586,4.0879,4.1504,4.1523,4.1933,4.2754,4.3613,4.4375,4.5019,4.5879,4.6308,4.6308,4.6308,4.6426,4.666,4.666,4.7285,4.8418,4.9687,5.0469,5.1035,5.248,5.3493,5.422,5.5161,5.5857,5.6363,0.0,0.0,0.0,0.0,0.0,0.0,0.0,0.0,0.0,0.0,0.0,0.0,0.0,0.0,0.0,2.0487,2.05,2.0527,2.0605,2.0605,2.0605,2.0605,2.0605,2.0605,2.0605,2.0605,2.0605,2.0605,2.0605,2.0544,2.0441,2.0417,2.0369,2.0312,0.0,0.0,0.0,0.0,0.0,0.0,2.1696,0.0,0.0,2.4447,2.5351,0.0,0.0,0.0,2.9115,2.7787,2.6756,0.0,0.0,0.0,0.0,0.0,0.0,0.0,0.0,0.0,0.0,0.0,0.0,0.0,2.1668,2.2809,2.4366,2.6496,2.8088,2.9751,3.1921,3.2416,3.2923,3.4276,3.6833,3.8633,3.8594,3.9043,3.918,3.8652,3.8281,3.8066,3.8066,3.8066,3.8262,3.8789,3.9141,3.9355,3.9355,3.9355,3.9766,4.0625,4.0664,4.1055,4.1894,4.3105,4.3945,4.4473,4.5703,4.6308,4.6308,4.6308,4.6308,4.6308,4.6308,4.6582,4.7168,4.8555,4.9531,5.0371,5.2051,5.293,5.3416,5.4713,5.5481,5.5921,0.0,0.0,0.0,0.0,0.0,0.0,0.0,0.0,0.0,0.0,0.0,0.0,0.0,0.0,0.0,0.0,2.049,2.0527,2.0605,2.0605,2.0605,2.0605,2.0605,2.0605,2.0605,2.0605,2.0605,2.0605,2.0605,2.0566,2.0508,2.0434,2.0354,2.0312,0.0,0.0,0.0,0.0,0.0,2.1504,2.162,2.3235,0.0,0.0,2.8121,3.0256,3.0256,3.1357,3.2316,2.9162,2.7603,0.0,0.0,0.0,0.0,0.0,2.332,0.0,0.0,0.0,0.0,0.0,2.2672,0.0,2.1878,2.2365,2.3274,2.4736,2.564,2.666,2.8392,2.8778,2.9156,3.0102,3.1679,3.402,3.7519,3.8105,3.8125,3.8027,3.7344,3.6875,3.6875,3.6953,3.7051,3.7148,3.7969,3.8496,3.8594,3.8516,3.8867,3.9726,3.9844,4.0273,4.1055,4.2715,4.3594,4.3711,4.5371,4.6211,4.6308,4.6308,4.6308,4.6308,4.6308,4.6308,4.6367,4.7246,4.8574,5.0215,5.1797,5.2461,5.2734,5.4492,5.5147,5.526,0.0,0.0,0.0,0.0,0.0,0.0,0.0,0.0,0.0,0.0,0.0,0.0,0.0,0.0,0.0,0.0,2.042,2.0462,2.0586,2.0605,2.0605,2.0605,2.0605,2.0605,2.0605,2.0605,2.0605,2.0605,2.0605,2.0566,2.0508,2.0435,2.0352,2.0312,2.0312,0.0,0.0,0.0,0.0,2.1562,2.2254,0.0,2.7411,2.6813,2.7755,2.9352,2.9352,3.0025,3.0633,2.8687,2.7535,2.6824,0.0,0.0,0.0,0.0,0.0,0.0,0.0,0.0,0.0,0.0,0.0,0.0,2.2755,2.2342,2.2218,2.3167,2.2992,2.3182,2.4819,2.5211,2.5777,2.7243,2.8401,3.0361,3.3846,3.498,3.5195,3.4492,3.4258,3.416,3.416,3.4805,3.5508,3.6191,3.7051,3.7851,3.8555,3.793,3.7949,3.8828,3.9531,3.998,4.0156,4.1816,4.3008,4.3711,4.4766,4.5625,4.6308,4.6308,4.6308,4.6308,4.6308,4.6308,4.6367,4.7246,4.8203,4.9258,5.0293,5.1504,5.2793,5.3867,5.4681,5.5384,0.0,0.0,0.0,0.0,0.0,0.0,0.0,0.0,0.0,0.0,0.0,0.0,0.0,0.0,0.0,0.0,0.0,0.0,0.0,0.0,2.1191,2.1191,2.0801,2.0605,2.0605,2.0605,2.0605,2.0605,2.0605,2.0586,2.0547,2.045,2.038,2.035,2.0312,0.0,0.0,0.0,2.2043,2.284,2.2812,0.0,2.6747,2.7112,2.8044,2.9209,2.9602,3.0044,3.039,3.0059,2.9171,0.0,0.0,2.7001,2.6348,0.0,2.5723,2.5059,0.0,0.0,0.0,2.4312,0.0,0.0,0.0,2.1998,2.1536,2.3244,2.2241,2.1559,2.3244,2.2866,2.2852,2.4519,2.5195,2.6412,2.9002,3.1313,3.2617,3.2207,3.2121,3.2283,3.2754,3.3164,3.3769,3.4648,3.5117,3.5547,3.5976,3.5996,3.6406,3.7285,3.8144,3.9023,3.9883,4.1152,4.2226,4.3066,4.3945,4.4805,4.5644,4.5644,4.5898,4.6308,4.6308,4.6308,4.6328,4.6777,4.7461,4.8379,4.9687,5.0957,5.2168,5.3027,5.3906,5.4785,0.0,0.0,0.0,0.0,0.0,0.0,0.0,0.0,0.0,0.0,0.0,0.0,0.0,0.0,0.0,0.0,0.0,0.0,0.0,0.0,0.0,2.1797,2.1172,2.0762,2.0605,2.0605,2.0605,2.0605,2.0605,2.0605,2.0605,2.0484,2.0405,2.0408,2.0331,0.0,0.0,0.0,0.0,2.4379,0.0,2.4735,2.6285,2.7612,2.8659,2.9525,3.0179,3.0417,3.0614,3.1383,3.0912,2.981,2.8987,2.8154,0.0,0.0,0.0,0.0,0.0,0.0,0.0,0.0,0.0,2.361,0.0,0.0,0.0,2.3397,2.1995,2.0856,0.0,0.0,2.0788,2.2177,2.2543,2.3133,2.4495,2.7362,2.9502,3.0055,2.993,3.0224,3.1328,3.1541,3.2051,3.3086,3.3164,3.3242,3.3398,3.4238,3.5019,3.5723,3.6758,3.7988,3.9394,4.043,4.1367,4.2187,4.3047,4.3906,4.4766,4.4922,4.5371,4.6055,4.623,4.6308,4.6308,4.6308,4.6816,4.7754,4.9336,5.0449,5.1289,5.2324,5.3242,5.4121,2.0504,2.0558,0.0,0.0,0.0,0.0,0.0,0.0,0.0,0.0,0.0,0.0,0.0,0.0,0.0,0.0,0.0,0.0,2.3909,0.0,0.0,0.0,2.1719,2.1328,2.0625,2.0605,2.0605,2.0605,2.0605,2.0605,2.0605,2.0527,2.0458,2.0408,2.0331,0.0,0.0,0.0,2.3716,0.0,2.6736,2.7898,0.0,2.8909,2.9506,3.0294,3.0359,3.0398,3.0448,0.0,3.1146,3.1505,0.0,2.9999,2.9297,2.9297,0.0,0.0,0.0,0.0,0.0,0.0,2.641,0.0,0.0,0.0,2.2563,2.21,0.0,2.0533,0.0,0.0,0.0,2.0573,2.1297,2.191,2.2095,2.3193,2.4795,2.7006,2.6621,2.6848,2.8487,2.9393,3.0566,3.2207,3.2344,3.2656,3.3359,3.4238,3.4746,3.4844,3.6445,3.7402,3.7598,3.9238,4.0488,4.1348,4.2168,4.3008,4.3867,4.4648,4.5058,4.5195,4.5957,4.6308,4.6308,4.6308,4.6816,4.7695,4.8672,4.957,5.0527,5.2129,5.3242,5.4121,0.0,2.0542,0.0,0.0,0.0,0.0,0.0,0.0,0.0,0.0,0.0,0.0,0.0,0.0,0.0,0.0,0.0,2.4685,0.0,0.0,0.0,0.0,2.3554,2.2383,2.1992,2.1562,2.1113,2.0605,2.0605,2.0859,2.1348,2.0762,2.0991,2.1913,2.1871,0.0,2.2928,0.0,2.563,0.0,0.0,0.0,0.0,2.9698,3.0083,3.0398,3.0398,3.0737,3.1179,0.0,3.1593,0.0,0.0,0.0,0.0,0.0,0.0,0.0,0.0,0.0,0.0,0.0,0.0,0.0,2.5168,0.0,2.3125,0.0,0.0,0.0,0.0,0.0,0.0,0.0,2.0666,2.0904,2.0944,2.1287,2.2307,2.4406,2.4322,2.4768,2.6475,2.7022,2.7786,2.9035,2.9582,3.0034,3.0351,3.2617,3.3906,3.3945,3.5644,3.6797,3.7305,3.8535,3.957,4.0469,4.1308,4.2148,4.2988,4.3848,4.4512,4.5058,4.5918,4.6308,4.6308,4.6308,4.6523,4.6973,4.8359,4.9433,5.0332,5.1504,5.25,5.3379,0.0,0.0,0.0,0.0,0.0,0.0,0.0,0.0,0.0,0.0,0.0,0.0,2.8044,2.7717,0.0,0.0,2.7922,2.7399,0.0,0.0,2.5408,2.6794,2.5082,0.0,0.0,2.2715,2.2148,2.1309,2.1309,2.1636,2.2213,2.1528,2.1843,2.2978,0.0,2.3174,2.3678,0.0,2.7131,2.6524,2.864,2.9522,2.9661,3.0213,3.0417,3.0417,3.0679,3.116,3.1795,3.2408,3.2609,3.2747,3.351,3.2324,3.0762,0.0,0.0,0.0,3.041,0.0,0.0,0.0,0.0,0.0,0.0,0.0,0.0,0.0,0.0,0.0,0.0,0.0,2.0679,2.0431,0.0,2.0369,2.0415,2.0448,2.1026,2.2533,2.2879,2.3369,2.4366,2.4744,2.538,2.6485,2.7141,2.7806,2.8528,3.1362,3.3086,3.3359,3.5078,3.6426,3.7285,3.8164,3.9043,3.9902,4.0781,4.1504,4.2109,4.3203,4.4043,4.4707,4.582,4.6308,4.6308,4.6308,4.6308,4.6445,4.7969,4.9082,4.9961,5.1016,5.1953,5.2793,2.0605,2.0554,0.0,0.0,0.0,0.0,0.0,0.0,0.0,0.0,0.0,0.0,0.0,0.0,0.0,0.0,0.0,2.8198,2.9006,0.0,2.5841,2.4293,2.5734,2.5495,0.0,0.0,2.3867,2.3125,2.3125,2.3095,2.3065,2.3026,2.2987,2.291,2.2966,2.3841,2.5293,2.6314,2.7603,2.9063,3.0063,3.0492,3.0562,0.0,3.0467,3.0513,3.1371,3.1679,3.1968,3.3795,3.4429,3.4447,3.4604,3.4023,3.3281,0.0,0.0,0.0,0.0,3.1992,3.0652,3.0608,2.864,0.0,0.0,0.0,2.5109,0.0,0.0,0.0,0.0,0.0,2.1382,2.055,2.0441,0.0,0.0,2.0549,2.0877,2.166,2.2501,2.2695,2.1899,2.2653,2.3887,2.5605,2.5699,2.6794,2.9333,3.1153,3.25,3.3281,3.5059,3.6426,3.7285,3.8164,3.9043,3.9902,4.0781,4.1211,4.1289,4.2949,4.3711,4.3848,4.5566,4.6308,4.6308,4.6308,4.6308,4.6387,4.7285,4.8164,4.9141,5.0781,5.1953,5.2695,0.0,0.0,0.0,0.0,0.0,0.0,0.0,2.4178,0.0,0.0,0.0,0.0,0.0,3.3333,3.368,0.0,0.0,3.1314,3.1602,3.0044,0.0,0.0,0.0,2.8299,0.0,0.0,0.0,0.0,2.3332,2.3333,2.3818,2.3291,2.3583,2.4553,2.462,2.5216,0.0,0.0,0.0,0.0,0.0,3.0055,3.0665,0.0,3.0879,3.1379,3.1667,3.2449,3.3481,3.4238,3.4846,3.5332,3.5502,3.457,3.3516,3.4082,3.3281,3.25,3.3887,3.3809,3.3202,3.2583,3.0894,2.9113,2.7913,2.6949,0.0,0.0,0.0,0.0,0.0,0.0,2.1479,2.0608,2.0495,2.0517,0.0,2.0588,2.0675,2.089,2.1127,0.0,2.1737,2.1527,2.1837,2.2974,2.4049,2.5287,2.6717,2.9571,3.1835,3.3242,3.4492,3.584,3.7285,3.8164,3.9043,3.9902,4.0781,4.1484,4.2031,4.3183,4.4004,4.4629,4.5781,4.6308,4.6308,4.6308,4.6308,4.6445,4.7891,4.8633,4.9043,5.0176,5.1133,5.1992,2.1266,0.0,0.0,0.0,0.0,0.0,0.0,0.0,0.0,0.0,3.1333,0.0,3.6122,0.0,3.6642,0.0,3.5718,3.4468,3.3853,3.2526,0.0,3.1256,3.1049,0.0,0.0,0.0,0.0,0.0,0.0,2.4594,2.5078,2.4233,2.4389,2.537,2.5428,2.5717,2.6255,0.0,2.8448,0.0,0.0,2.9612,0.0,3.0488,3.127,3.2254,3.2211,3.3064,3.427,3.4764,3.5271,3.5735,3.5932,3.5019,3.4023,3.4902,3.418,3.3398,3.4785,3.4492,3.373,3.3398,3.1574,2.9629,2.8756,2.8128,2.7481,2.6608,0.0,0.0,0.0,2.2782,2.1854,2.0693,2.0504,2.052,0.0,2.0605,2.0586,2.0547,2.048,0.0,0.0,2.0828,2.0823,2.1636,2.2993,2.4377,2.5793,2.8651,3.1164,3.3207,3.4198,3.5684,3.7734,3.832,3.9199,4.0371,4.0937,4.1621,4.2422,4.3301,4.418,4.5058,4.5918,4.6308,4.6308,4.6308,4.6308,4.6445,4.7871,4.8633,4.9043,5.0195,5.0957,5.1641,0.0,0.0,0.0,0.0,2.3101,0.0,0.0,0.0,2.9563,0.0,3.2872,3.5449,3.7911,3.8238,3.8873,4.0431,3.9027,3.7373,3.5738,3.4814,0.0,0.0,3.1371,3.0655,2.8176,0.0,0.0,0.0,0.0,2.6795,2.6687,2.5841,2.5409,2.5303,2.537,0.0,2.5476,2.7196,2.7937,2.8025,2.8832,2.9379,2.9744,3.0337,3.1668,3.3199,3.3041,3.3526,3.441,3.5372,3.5706,3.5735,3.5932,3.5371,3.4824,3.5723,3.5312,3.4785,3.5684,3.4141,3.2422,3.3125,3.0801,2.8532,2.9294,2.944,2.9162,2.8281,2.8145,2.739,0.0,2.3698,2.2571,2.086,2.0535,2.0538,2.0583,2.0605,2.0625,2.0664,2.0566,0.0,0.0,2.0481,2.083,2.1586,2.2443,2.4005,0.0,2.8335,3.051,3.307,3.4146,3.5957,3.8574,3.8594,3.9473,4.1191,4.123,4.168,4.248,4.3379,4.4238,4.5117,4.5937,4.6308,4.6308,4.6308,4.6308,4.6387,4.7305,4.8223,4.9219,5.0801,5.1406,5.1641,2.2821,2.3174,2.3658,0.0,2.4707,2.5274,0.0,0.0,0.0,0.0,3.6526,3.9373,4.0681,4.1393,4.17,4.1489,3.9931,0.0,0.0,0.0,0.0,3.2372,3.3083,3.2372,2.9848,2.9982,0.0,2.8844,0.0,2.7285,2.661,2.6409,2.5947,2.5303,2.5322,2.5678,2.6294,2.6764,2.7695,2.8933,2.9802,3.0991,3.2189,3.1722,3.2956,3.486,3.4199,3.4474,3.5218,3.5526,3.5667,3.5735,3.5873,3.4922,3.4023,3.5547,3.4492,3.3164,3.4629,3.4082,3.3144,3.332,3.1777,3.0254,3.0463,3.0012,2.9291,2.8432,2.8763,2.8429,2.5814,2.517,2.4249,0.0,0.0,0.0,0.0,0.0,0.0,2.1484,2.0977,2.0565,2.0549,2.0568,2.0642,2.0791,2.1579,2.2838,2.4659,2.705,2.9545,3.2149,3.3795,3.5918,3.8574,3.8594,3.9473,4.1211,4.1816,4.2539,4.3398,4.4277,4.5137,4.5976,4.6191,4.6308,4.6308,4.6308,4.6308,4.6445,4.7969,4.9453,5.0801,5.123,5.1406,5.1641,2.3832,0.0,0.0,2.5793,0.0,0.0,2.8698,3.0756,0.0,3.5545,3.8565,0.0,4.2239,4.247,4.2624,4.2874,4.1008,0.0,3.9681,0.0,0.0,3.4661,3.4334,3.3179,3.1025,3.059,0.0,2.9679,0.0,2.7986,2.7159,2.6774,2.614,2.5303,2.5303,2.5793,2.6659,2.7371,2.8503,2.9805,3.0283,3.1314,0.0,3.2396,3.3442,3.4988,3.4897,3.5166,3.5565,3.5622,3.5712,3.5812,3.5906,3.4766,3.3672,3.5039,3.3906,3.248,3.3789,3.3516,3.2871,3.2871,3.1875,3.0898,3.0898,3.0527,3.0039,2.9531,2.9512,2.9023,2.7187,2.6211,2.498,0.0,0.0,0.0,0.0,0.0,0.0,0.0,2.0898,2.0605,2.0605,2.0609,2.0558,2.0451,2.1571,2.2963,2.4571,2.6783,2.9195,3.1833,3.4033,3.5918,3.7441,3.8984,4.0234,4.1211,4.2012,4.3066,4.4277,4.4785,4.5488,4.6308,4.6308,4.6308,4.6308,4.6308,4.6523,4.7031,4.8789,5.0488,5.1973,5.1973,5.1973,5.2168,2.5486,0.0,0.0,0.0,0.0,0.0,0.0,3.3122,0.0,3.7911,0.0,4.1566,4.3085,4.2585,4.272,4.4162,0.0,4.1104,4.1758,4.0219,3.8527,3.6776,3.5084,3.341,3.1737,3.0968,3.0513,0.0,0.0,2.8852,2.8044,2.7178,2.6313,2.5457,0.0,0.0,0.0,2.8506,2.9744,3.0496,3.0674,3.1289,3.2186,3.2859,3.3622,3.4468,3.5315,3.5622,3.5603,3.5676,3.5797,3.59,3.5962,3.486,3.3711,3.4473,3.3516,3.2344,3.3047,3.2734,3.2168,3.2051,3.1543,3.1035,3.0937,3.0898,3.0898,3.0898,3.0293,2.9492,2.8633,2.6953,2.5215,0.0,0.0,0.0,0.0,0.0,0.0,0.0,0.0,0.0,2.1094,2.0801,2.0601,2.0591,2.1998,2.3551,2.5167,2.6901,2.8978,3.1482,3.4262,3.5917,3.6348,3.9453,4.1191,4.1543,4.2246,4.3418,4.5,4.5117,4.5586,4.6308,4.6308,4.6308,4.6308,4.6308,4.6875,4.793,4.9551,5.1211,5.2695,5.2695,5.2832,5.3144,0.0,0.0,0.0,0.0,0.0,3.2699,3.6334,3.7026,3.7815,3.9796,4.2143,4.3739,4.4066,4.3951,4.397,4.4278,4.3297,0.0,0.0,0.0,0.0,3.6776,3.5084,3.341,3.1737,3.1545,3.1121,0.0,0.0,2.9737,2.8871,2.8044,2.7217,2.6351,0.0,0.0,2.6755,2.9159,3.0263,3.0552,3.1962,3.3051,3.3801,3.4115,3.4666,3.5315,3.5584,3.5661,3.5605,3.5688,3.5783,3.59,3.5898,3.5262,3.4492,3.4668,3.3516,3.2226,3.2363,3.2305,3.2031,3.1309,3.1543,3.1777,3.1055,3.0898,3.0898,3.0898,3.0781,3.041,2.9531,2.7363,2.5605,2.5312,2.3926,0.0,0.0,0.0,0.0,0.0,0.0,2.373,2.373,2.1836,2.0898,2.158,2.1872,2.2718,2.4332,2.6015,2.7825,2.977,3.3029,3.5838,3.8125,3.9453,4.1172,4.3262,4.3398,4.4004,4.5019,4.5742,4.6152,4.6308,4.6308,4.6308,4.6308,4.6308,4.7246,4.8769,4.9805,5.1211,5.2695,5.2695,5.3613,5.4863,0.0,0.0,0.0,0.0,0.0,0.0,0.0,4.0065,4.0931,4.1739,4.2912,4.3835,4.4239,4.4297,4.447,4.4932,4.3412,4.245,4.247,4.0873,3.9161,3.745,3.618,3.4718,3.3026,3.2141,3.1487,3.1083,3.0609,2.9948,2.9083,2.8698,2.8082,2.7274,0.0,2.7505,0.0,3.0179,3.1333,3.1814,3.309,3.4128,3.4891,3.4974,3.5224,3.5526,3.5661,3.5681,3.5679,3.5766,3.587,3.5944,3.5944,3.5373,3.4707,3.4707,3.3809,3.2812,3.2812,3.2519,3.2109,3.168,3.1543,3.1426,3.0996,3.0898,3.0898,3.0898,3.0898,3.0625,2.9766,2.8574,2.7578,2.7129,2.5586,2.4453,0.0,0.0,0.0,0.0,0.0,0.0,0.0,2.2109,2.1152,2.2461,2.2519,2.3183,2.4793,2.6033,2.7689,2.9894,3.3782,3.6079,3.6523,4.0078,4.2051,4.2422,4.373,4.4824,4.5683,4.6113,4.6308,4.6308,4.6308,4.6308,4.6367,4.7285,4.8418,4.9668,5.0508,5.1875,5.3379,5.3379,5.4473,5.5918,0.0,3.0583,0.0,0.0,3.4853,3.7315,4.0315,4.217,4.3342,4.3605,4.3624,4.3874,4.4509,4.4586,4.4855,4.5528,4.3778,4.2758,4.3085,4.1643,4.0027,3.8354,3.7257,3.6007,3.4507,3.3006,3.2064,0.0,0.0,3.0237,2.9371,2.9179,2.8659,2.7928,2.8929,2.9371,2.9506,3.141,3.2602,3.3256,3.4122,3.4891,3.5493,3.5526,3.5526,3.5545,3.5699,3.5739,3.5763,3.5882,3.5969,3.5996,3.5996,3.5527,3.4941,3.4746,3.4219,3.3633,3.3457,3.2949,3.2402,3.2246,3.168,3.1133,3.0937,3.0898,3.0957,3.1133,3.1172,3.0918,3.0039,2.9726,2.9316,2.8437,2.6992,2.5918,2.5723,0.0,0.0,0.0,0.0,0.0,2.4375,2.2734,2.2187,2.3379,2.3223,2.3877,2.5683,2.6202,2.761,3.019,3.401,3.5831,3.5449,4.0586,4.2871,4.2305,4.4121,4.5469,4.6308,4.6308,4.6308,4.6308,4.6308,4.6406,4.6699,4.8262,4.9414,5.0293,5.1289,5.2637,5.4023,5.4219,5.5254,5.6504,0.0,0.0,0.0,0.0,0.0,3.9565,4.1412,4.2852,4.4133,4.5222,4.5355,4.5374,4.547,4.547,4.5509,4.5586,4.5374,4.4624,4.3181,4.222,4.0931,3.9238,3.7584,3.6295,3.5411,3.4449,3.3218,0.0,0.0,3.1141,3.0275,2.9467,2.8659,2.7967,2.9563,3.0294,3.0448,3.291,3.4007,3.4141,3.5026,3.543,3.5526,3.5584,3.5603,3.5622,3.5815,3.588,3.5898,3.597,3.5995,3.5996,3.5996,3.5937,3.5723,3.4922,3.4648,3.4414,3.3613,3.3359,3.3105,3.2383,3.2148,3.1875,3.1074,3.0898,3.1113,3.1914,3.207,3.1816,3.0937,3.0137,2.9316,2.8437,2.75,2.6602,2.5801,0.0,2.7325,2.568,0.0,0.0,2.4531,2.4863,2.4961,2.4336,2.3555,2.4147,2.6557,2.6009,2.6804,2.9415,3.1452,3.4338,3.8184,4.0351,4.291,4.582,4.5254,4.5469,4.6308,4.6308,4.6308,4.6308,4.6308,4.6758,4.7558,4.8516,4.9414,5.0351,5.1953,5.3164,5.4101,5.4883,5.5781,5.6582,0.0,0.0,3.7526,3.92,4.0049,4.1073,4.2738,4.3901,4.4758,4.5225,4.5302,4.5381,4.5586,4.5586,4.5586,4.5586,4.5124,4.4528,4.3855,4.2547,4.1277,4.0065,3.8392,3.7084,3.6238,3.4891,3.3622,0.0,0.0,3.1525,3.1179,3.0814,3.0756,3.0929,3.1602,3.191,3.2006,3.3545,3.4199,3.4276,3.5161,3.5493,3.5526,3.5584,3.5603,3.5641,3.5834,3.5892,3.59,3.5988,3.5996,3.5996,3.5996,3.5996,3.5937,3.5586,3.5488,3.5391,3.5059,3.4199,3.3457,3.3652,3.2559,3.1465,3.1641,3.168,3.1777,3.2129,3.2556,3.2749,3.2399,3.1633,3.0762,2.9883,2.9082,2.8066,2.668,2.7988,0.0,2.6592,0.0,2.7292,0.0,2.5117,2.4648,2.5879,2.4668,2.4502,2.5931,2.6641,2.7942,2.9993,3.2812,3.5624,3.8447,4.0762,4.2871,4.4746,4.5449,4.5957,4.6308,4.6308,4.6308,4.6308,4.6308,4.709,4.8418,4.8769,4.9707,5.0996,5.166,5.2773,5.4043,5.4394,5.539,5.6601,4.0279,3.9844,3.9639,4.1054,4.1644,4.2297,4.3475,4.4279,4.483,4.4943,4.4853,4.4988,4.5531,4.5586,4.5586,4.5586,4.5028,4.4566,4.4316,4.297,4.1797,4.0912,3.9277,3.7969,3.7103,3.5661,3.4391,3.3276,3.2718,3.2295,3.2045,3.2045,3.2352,3.291,3.316,3.3276,3.3333,3.4199,3.4584,3.4641,3.5257,3.5493,3.5526,3.5603,3.5631,3.5647,3.5836,3.5911,3.5919,3.5968,3.5976,3.5996,3.5996,3.5996,3.5996,3.5996,3.5996,3.5996,3.5996,3.4902,3.3926,3.4551,3.3164,3.1797,3.2402,3.2559,3.2557,3.2541,3.3131,3.3594,3.3311,3.276,3.1998,3.0878,3.0488,2.9531,2.7305,2.8711,0.0,2.6793,2.7254,2.7691,2.7456,2.5737,2.5176,2.6523,2.5957,2.5641,2.5896,2.7024,2.8564,3.054,3.3505,3.6281,3.8831,4.1202,4.3086,4.4473,4.5703,4.6308,4.6308,4.6308,4.6308,4.6308,4.6562,4.7539,4.8926,4.918,5.0273,5.1816,5.2051,5.3066,5.4414,5.4668,5.5547,5.6601,4.3416,4.2773,4.2228,4.3102,4.3253,4.3271,4.329,4.3709,4.4146,4.4553,4.4261,4.4436,4.5475,4.5586,4.5586,4.5586,4.5586,4.522,4.4355,4.3547,4.2701,4.1816,4.0181,3.8873,3.8007,3.7123,3.5853,3.418,3.416,3.3718,3.2891,3.2891,3.2891,3.2949,3.3795,3.418,3.4237,3.5122,3.5474,3.5488,3.5507,3.5493,3.5526,3.5661,3.5704,3.5714,3.5847,3.593,3.599,3.5929,3.5957,3.5996,3.5996,3.5996,3.5996,3.5996,3.5996,3.5996,3.5996,3.5351,3.4687,3.4707,3.4023,3.3379,3.3379,3.3398,3.3378,3.3304,3.3972,3.4312,3.3369,3.319,3.2645,3.0969,3.1406,3.0801,2.7461,2.9238,2.957,2.6035,2.7957,2.8541,2.589,2.7211,2.7539,2.584,2.7285,2.7851,2.6934,2.6896,2.8114,3.071,3.2443,3.5438,3.9844,4.1562,4.3691,4.6269,4.6289,4.6308,4.6308,4.6308,4.6308,4.6348,4.7207,4.8086,4.8965,4.9824,5.1172,5.2773,5.3633,5.4512,5.539,5.625,5.6582,5.6601,4.4508,4.4379,4.4128,4.4197,4.3951,4.3783,4.3783,4.389,4.4046,4.4175,4.4318,4.4631,4.5201,4.5243,4.5342,4.5586,4.5586,4.547,4.5201,4.3874,4.2989,4.2701,4.0508,3.9161,3.8892,3.745,3.618,3.5084,3.4487,3.4064,3.3795,3.4391,3.468,3.468,3.4968,3.5084,3.5103,3.5391,3.5493,3.5493,3.5493,3.5493,3.5526,3.5603,3.5631,3.5646,3.5726,3.5839,3.5919,3.591,3.5937,3.5996,3.5996,3.5996,3.5996,3.5996,3.5996,3.5996,3.5996,3.5351,3.4844,3.5449,3.4473,3.3555,3.4141,3.4297,3.4432,3.4948,3.5224,3.5243,3.4903,3.4351,3.3577,3.2445,3.2571,3.1831,2.8965,2.9799,2.9858,2.7569,2.8627,2.9192,2.8348,2.9359,2.9609,2.8457,2.9414,2.9394,2.7871,2.9439,3.1309,3.3325,3.5589,3.8341,4.1562,4.2715,4.4297,4.6308,4.6308,4.6308,4.6308,4.6308,4.6621,4.7207,4.748,4.8437,4.9805,5.0098,5.1191,5.2734,5.3008,5.4004,5.5332,5.5605,5.6094,5.6601,4.4848,4.4707,4.4428,4.4223,4.3974,4.3804,4.3804,4.3804,4.3804,4.3804,4.4035,4.4308,4.4638,4.4688,4.4924,4.555,4.5495,4.5476,4.5586,4.4316,4.3547,4.3547,4.1412,4.0085,3.9758,3.8392,3.7103,3.5949,3.5103,3.468,3.4699,3.5257,3.5493,3.5493,3.5493,3.5493,3.5493,3.5493,3.5493,3.5493,3.5493,3.5493,3.5526,3.5584,3.5598,3.5618,3.566,3.572,3.583,3.5821,3.5893,3.5976,3.5996,3.5996,3.5996,3.5996,3.5996,3.5996,3.5996,3.5605,3.5312,3.5859,3.5176,3.4512,3.5059,3.5174,3.5275,3.5727,3.5733,3.5641,3.5584,3.5128,3.4466,3.3632,3.3561,3.2714,3.0159,3.0529,3.0466,2.8758,2.9674,3.044,3.0436,3.1289,3.1484,3.0644,3.1367,3.1348,3.0215,3.166,3.3172,3.46,3.7452,4.007,4.2383,4.3594,4.4902,4.6308,4.6308,4.6308,4.6308,4.6641,4.709,4.7637,4.8281,4.9199,5.0215,5.0527,5.1641,5.3183,5.3183,5.4258,5.5781,5.5781,5.6133,5.6601,4.4606,4.4035,4.3513,4.3479,4.3497,4.3497,4.3497,4.3497,4.3497,4.3497,4.3497,4.3612,4.3955,4.3986,4.4382,4.5438,4.5282,4.5222,4.5531,4.4778,4.4297,4.4297,4.2701,4.1412,4.0604,3.9738,3.8469,3.6796,3.5988,3.557,3.557,3.5545,3.5493,3.5493,3.5493,3.5493,3.5493,3.5493,3.5493,3.5493,3.5493,3.5493,3.5526,3.5584,3.5603,3.5603,3.5603,3.5641,3.5695,3.5696,3.5791,3.5918,3.5976,3.5996,3.5996,3.5996,3.5996,3.5996,3.5996,3.5996,3.5996,3.5996,3.5996,3.5996,3.5994,3.5947,3.5849,3.5721,3.5637,3.5584,3.5526,3.5493,3.5243,3.4408,3.4282,3.3455,3.1021,3.1359,3.1287,2.9663,3.1017,3.2089,3.209,3.2988,3.3242,3.2422,3.3184,3.3633,3.3574,3.3809,3.4297,3.5039,3.832,4.0879,4.2558,4.4258,4.5508,4.6308,4.6308,4.6308,4.6328,4.7207,4.7637,4.7773,4.9473,5.0234,5.0332,5.1094,5.2422,5.4004,5.4004,5.5078,5.6601,5.6601,5.6601,5.6601,4.4631,4.4223,4.3804,4.3548,4.3497,4.3497,4.3497,4.3497,4.3497,4.3497,4.3497,4.3612,4.3955,4.3772,4.3943,4.4757,4.5007,4.5118,4.5222,4.4632,4.4297,4.4297,4.2701,4.17,4.1508,4.0046,3.8757,3.77,3.6853,3.643,3.6411,3.5795,3.5493,3.5493,3.5493,3.5493,3.5493,3.5493,3.5493,3.5493,3.5493,3.5493,3.5493,3.5526,3.5526,3.5526,3.5526,3.5584,3.5617,3.5618,3.5749,3.5898,3.5918,3.5957,3.5996,3.5996,3.5996,3.5996,3.5996,3.5996,3.5996,3.5996,3.5996,3.5986,3.5939,3.5912,3.5842,3.5669,3.5599,3.5584,3.5526,3.5493,3.5205,3.4372,3.4218,3.3564,3.1705,3.1621,3.1602,3.1251,3.2171,3.2868,3.2987,3.4394,3.4961,3.418,3.5527,3.6094,3.543,3.791,3.9141,3.8672,4.0703,4.2637,4.4375,4.5449,4.6094,4.6308,4.6308,4.6308,4.6328,4.7207,4.7969,4.8652,4.9726,5.0547,5.1133,5.1328,5.2422,5.4004,5.4004,5.5078,5.6601,5.6601,5.6601,5.6601,4.4401,4.4035,4.3726,4.3548,4.3497,4.3497,4.3497,4.392,4.4048,4.3552,4.3809,4.3986,4.3795,4.3597,4.3646,4.4065,4.4401,4.4738,4.5074,4.4842,4.4728,4.4893,4.3643,4.2777,4.2412,4.1104,3.9835,3.8584,3.7719,3.7296,3.7276,3.6449,3.6065,3.6045,3.5661,3.5493,3.5493,3.5493,3.5493,3.5493,3.5493,3.5493,3.5493,3.5493,3.5493,3.5493,3.5493,3.5526,3.5565,3.5603,3.5697,3.583,3.5873,3.5957,3.5996,3.5996,3.5996,3.5996,3.5996,3.5996,3.6094,3.6484,3.6281,3.6044,3.6421,3.6117,3.5738,3.5622,3.5584,3.5545,3.5526,3.5493,3.5353,3.4872,3.4122,3.3295,3.2372,3.1929,3.1852,3.2244,3.3449,3.443,3.4892,3.6211,3.6855,3.6426,3.7324,3.7851,3.7793,3.9961,4.0801,3.9922,4.2305,4.4043,4.498,4.5859,4.6504,4.6894,4.6894,4.7109,4.7519,4.8398,4.9043,4.9531,5.0371,5.0996,5.1406,5.1406,5.2422,5.4004,5.4004,5.5078,5.6601,5.6601,5.6601,5.6601,4.4058,4.3818,4.3626,4.3516,4.3626,4.3736,4.3736,4.458,4.4856,4.3864,4.4488,4.4672,4.3773,4.3681,4.3681,4.3681,4.3814,4.4233,4.4966,4.5074,4.5243,4.5586,4.4759,4.397,4.3297,4.2316,4.1046,3.9469,3.8623,3.82,3.818,3.7296,3.6834,3.668,3.5988,3.5622,3.5493,3.5493,3.5493,3.5493,3.5493,3.5493,3.5493,3.5493,3.5493,3.5493,3.5493,3.5493,3.5526,3.5584,3.5641,3.5707,3.5838,3.5915,3.5994,3.6152,3.6191,3.6172,3.6191,3.6289,3.6562,3.7305,3.689,3.6469,3.7189,3.6656,3.5968,3.5968,3.5815,3.568,3.568,3.557,3.5411,3.5161,3.3872,3.2852,3.2737,3.2352,3.2372,3.3199,3.4872,3.6257,3.7012,3.7987,3.8645,3.8789,3.9023,3.9492,4.0234,4.123,4.1367,4.0508,4.3418,4.5058,4.5195,4.6055,4.6875,4.7598,4.7734,4.8183,4.8926,4.9805,5.0195,5.0234,5.1055,5.1406,5.1406,5.1543,5.2558,5.4004,5.4141,5.5176,5.6601,5.6601,5.6601,5.6601,4.4028,4.428,4.4305,4.3608,4.425,4.4837,4.4837,4.5369,4.5553,4.4929,4.5755,4.592,4.4654,4.4525,4.4525,4.4525,4.3934,4.3899,4.4631,4.4943,4.5243,4.5586,4.4759,4.4239,4.4124,4.2585,4.1316,4.0296,3.9488,3.9104,3.9084,3.82,3.7411,3.6699,3.6584,3.6142,3.5493,3.5493,3.5493,3.5493,3.5493,3.5493,3.5493,3.5493,3.5493,3.5493,3.5493,3.5493,3.5493,3.5526,3.5565,3.5631,3.5721,3.5741,3.5924,3.6833,3.7051,3.7031,3.707,3.7637,3.8223,3.8359,3.8198,3.8035,3.8104,3.7911,3.7704,3.7642,3.7026,3.6507,3.6507,3.5968,3.5026,3.3545,3.3083,3.266,3.1987,3.3006,3.4122,3.4988,3.6584,3.77,3.7896,3.8826,3.9732,4.0546,4.1348,4.1875,4.1992,4.3535,4.4004,4.3144,4.4336,4.5351,4.6094,4.6953,4.7461,4.7617,4.8359,4.8769,4.8926,4.9805,5.0195,5.0234,5.1055,5.1406,5.1465,5.2187,5.3086,5.4062,5.4805,5.5703,5.6601,5.6601,5.6601,5.6601,4.3818,4.3892,4.3938,4.3552,4.4617,4.581,4.6691,4.704,4.6893,4.6067,4.6526,4.6636,4.5865,4.5131,4.4709,4.4709,4.3956,4.3823,4.4553,4.4732,4.5074,4.5586,4.5201,4.4778,4.4316,4.3124,4.2066,4.12,4.0835,4.0412,3.9931,3.9084,3.8488,3.8084,3.7603,3.693,3.6161,3.6161,3.5911,3.5545,3.5968,3.6161,3.6199,3.668,3.6853,3.6853,3.6853,3.6853,3.6853,3.6853,3.6892,3.6953,3.6988,3.7045,3.7206,3.7685,3.7844,3.7855,3.7875,3.815,3.8545,3.9013,3.8685,3.8343,3.8792,3.845,3.8046,3.8007,3.768,3.7257,3.6796,3.6411,3.5738,3.4507,3.391,3.3622,3.3737,3.441,3.5391,3.6699,3.8334,3.9546,4.0031,4.0966,4.1719,4.2143,4.2722,4.3242,4.3672,4.4512,4.5039,4.5098,4.5488,4.5898,4.6308,4.7168,4.7832,4.8301,4.918,4.9824,5.0254,5.0664,5.0859,5.0879,5.123,5.1406,5.1465,5.2344,5.3203,5.4082,5.4961,5.582,5.6601,5.6601,5.6601,5.6601,4.3646,4.3497,4.3497,4.3497,4.5131,4.6746,4.7609,4.8067,4.8012,4.7186,4.726,4.7168,4.6581,4.5773,4.5112,4.4745,4.414,4.4027,4.4572,4.458,4.4896,4.5568,4.5586,4.5182,4.4316,4.3682,4.297,4.2104,4.1912,4.147,4.0777,3.995,3.9469,3.9258,3.8604,3.7815,3.7007,3.7007,3.6661,3.6142,3.6757,3.7007,3.7084,3.7757,3.8007,3.8007,3.8007,3.8007,3.8007,3.8007,3.8027,3.808,3.8099,3.8163,3.8277,3.8535,3.8896,3.9192,3.9,3.8923,3.9083,3.9956,3.9431,3.8988,4.0042,3.9546,3.895,3.9142,3.8854,3.8373,3.7719,3.7257,3.6738,3.5911,3.5218,3.5084,3.5968,3.6257,3.7007,3.8681,4.02,4.1373,4.2047,4.2948,4.3505,4.3499,4.3915,4.4452,4.5078,4.5234,4.5605,4.6289,4.6504,4.6601,4.6601,4.7676,4.8535,4.9219,5.0078,5.0801,5.1406,5.1406,5.1504,5.1699,5.1699,5.1816,5.207,5.2949,5.3691,5.4394,5.5254,5.6015,5.6601,5.6601,5.6601,5.6601,4.3513,4.3497,4.3497,4.3497,4.6067,4.7664,4.6287,4.7352,4.8269,4.8196,4.8214,4.7645,4.6122,4.6544,4.6342,4.4837,4.4654,4.4605,4.461,4.458,4.4896,4.5568,4.5586,4.5182,4.4316,4.4239,4.3816,4.3008,4.22,4.1777,4.17,4.0816,4.0008,3.9296,3.9219,3.8719,3.7892,3.7892,3.7873,3.7815,3.7873,3.7892,3.7911,3.7988,3.8007,3.8007,3.8007,3.8007,3.8007,3.8007,3.8007,3.8027,3.807,3.806,3.8209,3.9219,4.055,4.1566,4.0831,4.0616,4.0823,4.1697,4.1216,4.0931,4.2566,4.22,4.1758,4.2566,4.1431,4.0296,4.0219,3.895,3.7623,3.6757,3.6565,3.6815,3.77,3.8507,3.9642,4.1316,4.2335,4.2931,4.3008,4.3852,4.4408,4.4405,4.5343,4.5933,4.5995,4.6133,4.623,4.6308,4.707,4.75,4.75,4.918,5.0039,5.0117,5.0918,5.1348,5.1406,5.1406,5.1836,5.2598,5.2598,5.3066,5.3887,5.4746,5.5156,5.5293,5.6152,5.6543,5.6601,5.6601,5.6601,5.6601,4.38,4.5112,4.6489,4.6489,4.7498,4.8104,4.748,4.7921,4.8306,4.8306,4.8306,4.8067,4.7462,4.7223,4.6654,4.5553,4.5002,4.458,4.4231,4.4474,4.4896,4.5568,4.5586,4.5451,4.5105,4.5105,4.4682,4.3835,4.3508,4.3104,4.2585,4.172,4.1143,4.0835,4.0277,3.9585,3.8815,3.8815,3.8488,3.8046,3.8584,3.8815,3.8911,3.9969,4.0354,4.0431,4.0969,4.1162,4.1162,4.1162,4.1162,4.1162,4.12,4.1181,4.1239,4.1662,4.22,4.2624,4.2297,4.222,4.2316,4.2626,4.245,4.2354,4.2989,4.2854,4.2701,4.3028,4.2566,4.195,4.1412,4.0796,4.0065,3.92,3.9065,3.9354,4.0239,4.0642,4.147,4.3143,4.3643,4.4066,4.4605,4.4968,4.518,4.518,4.5642,4.6162,4.676,4.7491,4.791,4.791,4.8769,4.8691,4.7617,4.9336,5.0195,5.0215,5.1016,5.1406,5.1426,5.1953,5.2383,5.2734,5.3262,5.3691,5.4062,5.4941,5.5293,5.539,5.6269,5.6601,5.6601,5.6601,5.6601,5.6601,4.5236,4.6783,4.8306,4.8306,4.8306,4.8306,4.8306,4.8306,4.8306,4.8306,4.8306,4.8214,4.7957,4.7682,4.6966,4.5645,4.5259,4.4755,4.406,4.4482,4.5011,4.5568,4.5586,4.5586,4.5586,4.5586,4.5297,4.4701,4.4432,4.4028,4.3451,4.2604,4.222,4.2181,4.1585,4.0854,4.0085,4.0085,3.9738,3.9258,3.9835,4.0239,4.0623,4.1777,4.222,4.2297,4.2893,4.3104,4.3104,4.3104,4.3104,4.3104,4.3104,4.3104,4.3104,4.3104,4.3278,4.347,4.347,4.3682,4.3816,4.3547,4.3297,4.3239,4.3758,4.3662,4.3547,4.3835,4.3662,4.3297,4.2701,4.2374,4.2008,4.1412,4.1316,4.1604,4.247,4.2585,4.3104,4.4528,4.4701,4.4932,4.5528,4.5586,4.5586,4.5586,4.5951,4.6612,4.7626,4.8662,4.9141,4.8906,4.998,4.9883,4.8437,4.9844,5.0586,5.0586,5.1133,5.1406,5.1426,5.2305,5.2851,5.3164,5.4023,5.4551,5.4863,5.5469,5.5703,5.5762,5.6367,5.6601,5.6621,5.6914,5.7012,5.7051,4.7994,4.8306,4.8306,4.8306,4.8306,4.8306,4.8306,4.8306,4.8306,4.8306,4.8306,4.8012,4.7223,4.7829,4.7333,4.4947,4.5461,4.5344,4.4097,4.4707,4.5243,4.5586,4.5586,4.5586,4.5586,4.5586,4.5586,4.5586,4.472,4.4316,4.4297,4.3489,4.3104,4.3104,4.3104,4.2624,4.1816,4.1816,4.1816,4.1816,4.1816,4.2335,4.3104,4.3104,4.3104,4.3104,4.3124,4.3124,4.3124,4.3124,4.3124,4.3124,4.3124,4.3124,4.3124,4.3124,4.3682,4.4316,4.4316,4.4932,4.5393,4.4528,4.3701,4.3566,4.522,4.4932,4.4566,4.5413,4.4913,4.4316,4.4316,4.3662,4.3124,4.3124,4.3124,4.3393,4.4201,4.4316,4.4624,4.549,4.5586,4.5586,4.5605,4.5605,4.5605,4.5605,4.649,4.7501,4.8651,4.9531,4.9668,4.8945,5.0547,5.1035,5.0234,5.0996,5.1406,5.1406,5.1406,5.1406,5.1445,5.2324,5.3183,5.4062,5.4922,5.5801,5.6601,5.6601,5.6601,5.6601,5.6601,5.6601,5.6738,5.7598,5.791,5.8027,4.7994,4.8306,4.8306,4.8306,4.8306,4.8306,4.8306,4.8306,4.8306,4.8306,4.8306,4.8214,4.7976,4.8159,4.7792,4.6507,4.6617,4.6332,4.5341,4.5171,4.5243,4.5586,4.5586,4.5586,4.5586,4.5586,4.5586,4.5586,4.5336,4.5201,4.5182,4.4335,4.3932,4.3912,4.3355,4.297,4.272,4.272,4.272,4.272,4.272,4.2874,4.3162,4.372,4.3932,4.4028,4.4624,4.4855,4.4855,4.4855,4.4855,4.4855,4.4855,4.4855,4.4855,4.4855,4.5009,4.5201,4.5201,4.5393,4.5528,4.5278,4.5028,4.4989,4.549,4.5393,4.5278,4.5547,4.5393,4.5201,4.5201,4.5009,4.4855,4.4855,4.4855,4.4932,4.5182,4.5201,4.5297,4.5566,4.5586,4.5836,4.6451,4.6509,4.6759,4.7317,4.8278,4.9018,4.9453,5.0343,5.0781,5.0664,5.1738,5.2207,5.1953,5.1582,5.1719,5.2305,5.2305,5.2637,5.3242,5.4121,5.4668,5.4961,5.582,5.6367,5.6601,5.6601,5.6953,5.7519,5.7519,5.789,5.8457,5.8711,5.8808,5.8848,4.8031,4.8306,4.8306,4.8306,4.8306,4.8306,4.8306,4.8306,4.8306,4.8306,4.8306,4.8306,4.8306,4.8306,4.7994,4.7186,4.6966,4.6713,4.6298,4.5827,4.574,4.6105,4.5778,4.5586,4.5586,4.5586,4.5586,4.5586,4.5586,4.5586,4.5586,4.5047,4.4797,4.4778,4.4316,4.3893,4.3566,4.3566,4.3566,4.3566,4.3566,4.3778,4.4143,4.4624,4.4797,4.4874,4.5413,4.5586,4.5586,4.5586,4.5586,4.5586,4.5586,4.5586,4.5663,4.6009,4.6105,4.6105,4.6105,4.6105,4.6028,4.5682,4.5586,4.5586,4.5586,4.5586,4.5586,4.5586,4.5586,4.5586,4.5586,4.5586,4.5586,4.5586,4.5893,4.6105,4.6105,4.6394,4.6586,4.6586,4.6586,4.6797,4.7317,4.7375,4.7721,4.8548,4.9163,4.9721,5.0221,5.1074,5.1625,5.1742,5.2652,5.3144,5.3144,5.2676,5.2695,5.3203,5.3203,5.3496,5.4023,5.4902,5.5293,5.5351,5.6211,5.6601,5.6621,5.6973,5.7422,5.793,5.8281,5.873,5.9238,5.9551,5.9668,5.9726,4.8122,4.8306,4.8306,4.8306,4.8306,4.8306,4.8306,4.8306,4.8306,4.8306,4.8306,4.8306,4.8306,4.8306,4.8012,4.7297,4.6873,4.678,4.708,4.6711,4.6623,4.6991,4.624,4.5778,4.572,4.5624,4.5586,4.5586,4.5586,4.5586,4.5586,4.5586,4.5586,4.5586,4.5586,4.5163,4.4412,4.4412,4.4412,4.4412,4.4412,4.4893,4.5586,4.5586,4.5586,4.5586,4.5586,4.5586,4.5586,4.5586,4.5586,4.5586,4.5586,4.5643,4.5874,4.6682,4.6951,4.699,4.6932,4.6913,4.6701,4.5817,4.5586,4.5586,4.5586,4.5586,4.5586,4.5586,4.5586,4.5605,4.5701,4.572,4.574,4.5797,4.649,4.7009,4.7009,4.7644,4.8105,4.8105,4.8105,4.8125,4.8221,4.8298,4.8682,4.9567,4.9625,5.0048,5.1068,5.1818,5.2272,5.2399,5.3381,5.3922,5.3926,5.4121,5.4199,5.4121,5.4121,5.416,5.4258,5.5058,5.543,5.5469,5.6269,5.664,5.6777,5.7578,5.7988,5.8203,5.9004,5.9355,5.9512,6.0254,6.0527,6.0625,4.8251,4.8306,4.8306,4.8306,4.8306,4.8306,4.8306,4.8306,4.8306,4.8306,4.8306,4.8306,4.8306,4.8306,4.8233,4.8067,4.7905,4.7871,4.7928,4.7793,4.7742,4.7836,4.7663,4.7259,4.6624,4.5951,4.5586,4.5586,4.5586,4.5586,4.5586,4.5586,4.5586,4.5586,4.5586,4.549,4.5316,4.5316,4.5316,4.5316,4.5316,4.5432,4.5586,4.5586,4.5586,4.5586,4.5586,4.5586,4.5586,4.5586,4.5586,4.5586,4.5586,4.6067,4.6663,4.6836,4.7355,4.7702,4.7067,4.6913,4.6701,4.5817,4.5586,4.5586,4.5586,4.5586,4.5586,4.5586,4.5586,4.5797,4.649,4.6624,4.6817,4.7451,4.7721,4.7836,4.7836,4.799,4.8105,4.8105,4.8105,4.8375,4.9048,4.974,5.0471,5.1298,5.1375,5.1798,5.28,5.3032,5.3167,5.3321,5.4297,5.4816,5.4824,5.5625,5.5683,5.5019,5.5019,5.5371,5.6035,5.623,5.6328,5.6328,5.6523,5.6992,5.7637,5.7812,5.8672,5.9883,6.0078,6.0566,6.1172,6.1348,6.1426,6.1445,4.8306,4.8306,4.8306,4.8306,4.8306,4.8306,4.8306,4.8306,4.8508,4.904,4.8636,4.8471,4.8875,4.8545,4.8306,4.8306,4.8992,4.9258,4.8833,4.9159,4.9144,4.874,4.8317,4.7894,4.749,4.7028,4.6394,4.5586,4.5586,4.5586,4.5586,4.5586,4.5586,4.5586,4.5586,4.5586,4.5586,4.5586,4.5586,4.5586,4.5586,4.5586,4.5586,4.5586,4.5586,4.5586,4.5586,4.5874,4.6163,4.574,4.6124,4.6721,4.6336,4.6797,4.7548,4.7971,4.8394,4.8625,4.8221,4.7798,4.7355,4.6913,4.649,4.622,4.622,4.622,4.6336,4.6701,4.6797,4.6932,4.7394,4.7471,4.7605,4.8029,4.8452,4.8875,4.9279,4.9336,4.9471,4.9875,4.9567,4.9663,5.051,5.1375,5.2068,5.2491,5.2529,5.2741,5.3281,5.3704,5.3953,5.4047,5.497,5.552,5.5611,5.6206,5.6523,5.6543,5.6113,5.6152,5.6601,5.6601,5.6601,5.6621,5.7031,5.748,5.7969,5.8769,5.9609,6.0449,6.0859,6.1308,6.1699,6.1699,6.1699,6.1699,4.8306,4.8306,4.8306,4.8306,4.8306,4.8306,4.8306,4.8306,4.8636,4.9591,4.8893,4.8581,4.9297,4.8857,4.8581,4.8728,5.0108,5.0722,4.9975,5.0535,5.0567,4.9856,4.9009,4.8471,4.8336,4.8317,4.7567,4.6028,4.5893,4.5817,4.5817,4.5663,4.5586,4.5586,4.5586,4.5586,4.5586,4.5586,4.5586,4.5586,4.5586,4.5586,4.5605,4.5759,4.5817,4.5836,4.597,4.649,4.699,4.6259,4.6951,4.799,4.7317,4.7682,4.8471,4.9183,4.951,4.9586,4.9433,4.8875,4.8298,4.8144,4.7605,4.7144,4.7298,4.7221,4.7298,4.7971,4.8105,4.8144,4.8298,4.8432,4.8586,4.874,4.949,5.0298,5.1029,5.1125,5.1318,5.1856,5.1318,5.1221,5.2049,5.2779,5.326,5.3414,5.3414,5.3491,5.3626,5.4318,5.4703,5.4703,5.5472,5.6,5.6207,5.6469,5.7051,5.789,5.7324,5.7031,5.7031,5.7031,5.7031,5.707,5.7812,5.8203,5.8437,5.9824,6.0488,6.0683,6.1426,6.1699,6.1699,6.1699,6.1699,6.1699,4.8306,4.8306,4.8306,4.8306,4.8306,4.8306,4.8306,4.8306,4.8361,4.8508,4.8398,4.8343,4.8471,4.904,4.9682,5.0398,5.1323,5.1786,5.1654,5.172,5.1702,5.1568,5.0779,4.999,4.924,4.9221,4.874,4.7759,4.7067,4.6721,4.6721,4.5951,4.5586,4.5586,4.5586,4.5586,4.5586,4.5586,4.5586,4.5586,4.5586,4.5586,4.5682,4.6432,4.6721,4.6817,4.7509,4.7836,4.7932,4.7798,4.7913,4.8086,4.7971,4.8529,4.924,4.9375,4.9933,5.0356,4.9606,4.9317,4.9048,4.8298,4.8029,4.8144,4.8894,4.849,4.7971,4.8086,4.8105,4.8336,4.9086,4.9837,5.0587,5.1279,5.2125,5.2741,5.2856,5.2856,5.2626,5.1991,5.1798,5.2087,5.2953,5.3126,5.351,5.426,5.4318,5.4626,5.5318,5.5472,5.553,5.553,5.5761,5.5996,5.6193,5.7083,5.7656,5.791,5.8535,5.8848,5.8848,5.8848,5.8848,5.8848,5.8965,5.9414,6.0078,6.0312,6.084,6.1543,6.164,6.1699,6.1699,6.1699,6.1699,6.1699,4.8306,4.8306,4.8306,4.8306,4.8306,4.8306,4.8306,4.8306,4.8471,4.8948,4.86,4.8489,4.8967,4.9352,5.0022,5.1046,5.2076,5.2465,5.2013,5.2389,5.2414,5.1933,5.1125,5.051,5.0125,5.0125,4.9933,4.9548,4.8221,4.7567,4.7548,4.6721,4.6567,4.6971,4.6528,4.6586,4.699,4.699,4.674,4.6336,4.6336,4.6028,4.5701,4.6567,4.6913,4.7009,4.7817,4.8413,4.8759,4.8259,4.8759,4.9471,4.8971,4.974,5.0798,5.0798,5.0909,5.1111,5.1431,5.0698,4.998,5.0759,5.0587,5.0452,5.1318,5.1221,5.0818,5.0317,5.0606,5.1068,5.1452,5.1837,5.2202,5.2568,5.2953,5.3376,5.3857,5.351,5.3068,5.2683,5.3068,5.351,5.3895,5.4337,5.4761,5.5145,5.5164,5.5318,5.5684,5.5703,5.5703,5.5703,5.5761,5.6148,5.6862,5.7309,5.8137,5.9297,5.9687,5.9629,5.9199,5.9199,5.9199,5.9238,5.9687,6.0078,6.0449,6.0937,6.1348,6.1699,6.1699,6.1699,6.1699,6.1699,6.1699,6.1699]},{"header":{"parameterUnit":"m.s-1","parameterCategory":1,"la1":30.6,"la2":28.766,"lo1":-90.7593,"lo2":-88.6598,"dy":0.0162,"dx":0.0183,"nx":116,"ny":114,"refTime":"2023-11-18T06:00:00:Z","depth":0,"parameterNumber":3,"parameterNumberName":"V-component_of_WINDS"},"data":[0.0,0.0,0.0,0.0,0.0,0.0,0.0,0.0,0.0,0.0,0.0,0.0,0.0,0.0,0.0,0.0,0.0,0.0,0.0,0.0,0.0,0.0,0.0,0.0,0.0,0.0,0.0,0.0,0.0,0.0,0.0,0.0,0.0,0.0,0.0,0.0,0.0,0.0,0.0,0.0,0.0,0.0,0.0,0.0,0.0,0.0,0.0,0.0,0.0,0.0,0.0,0.0,0.0,0.0,0.0,0.0,0.0,0.0,0.0,0.0,0.0,0.0,0.0,0.0,0.0,0.0,0.0,0.0,0.0,0.0,0.0,0.0,0.0,0.0,0.0,0.0,0.0,0.0,0.0,0.0,0.0,0.0,0.0,0.0,0.0,0.0,0.0,0.0,0.0,0.0,0.0,0.0,0.0,0.0,0.0,0.0,0.0,0.0,0.0,0.0,0.0,0.0,0.0,0.0,0.0,0.0,0.0,0.0,0.0,0.0,0.0,0.0,0.0,0.0,0.0,0.0,0.0,0.0,0.0,0.0,0.0,0.0,0.0,0.0,0.0,0.0,0.0,0.0,0.0,0.0,0.0,0.0,0.0,0.0,0.0,0.0,0.0,0.0,0.0,0.0,0.0,0.0,0.0,0.0,0.0,0.0,0.0,0.0,0.0,0.0,0.0,0.0,0.0,0.0,0.0,0.0,0.0,0.0,0.0,0.0,0.0,0.0,0.0,0.0,0.0,0.0,0.0,0.0,0.0,0.0,0.0,0.0,0.0,0.0,0.0,0.0,0.0,0.0,0.0,0.0,0.0,0.0,0.0,0.0,0.0,0.0,0.0,0.0,0.0,0.0,0.0,0.0,0.0,0.0,0.0,0.0,0.0,0.0,0.0,0.0,0.0,0.0,0.0,0.0,0.0,0.0,0.0,0.0,0.0,0.0,0.0,0.0,0.0,0.0,0.0,0.0,0.0,0.0,0.0,0.0,0.0,0.0,0.0,0.0,0.0,0.0,0.0,0.0,0.0,0.0,0.0,0.0,0.0,0.0,0.0,0.0,0.0,0.0,0.0,0.0,0.0,0.0,0.0,0.0,0.0,0.0,0.0,0.0,0.0,0.0,0.0,0.0,0.0,0.0,0.0,0.0,0.0,0.0,0.0,0.0,0.0,0.0,0.0,0.0,0.0,0.0,0.0,0.0,0.0,0.0,0.0,0.0,0.0,0.0,0.0,0.0,0.0,0.0,0.0,0.0,0.0,0.0,0.0,0.0,0.0,0.0,0.0,0.0,0.0,0.0,0.0,0.0,0.0,0.0,0.0,0.0,0.0,0.0,0.0,0.0,0.0,0.0,0.0,0.0,0.0,0.0,0.0,0.0,0.0,0.0,0.0,0.0,0.0,0.0,0.0,0.0,0.0,0.0,0.0,0.0,0.0,0.0,0.0,0.0,0.0,0.0,0.0,0.0,0.0,0.0,0.0,0.0,0.0,0.0,0.0,0.0,0.0,0.0,0.0,0.0,0.0,0.0,0.0,0.0,0.0,0.0,0.0,0.0,0.0,0.0,0.0,0.0,0.0,0.0,0.0,0.0,0.0,0.0,0.0,0.0,0.0,0.0,0.0,0.0,0.0,0.0,0.0,0.0,0.0,0.0,0.0,0.0,0.0,0.0,0.0,0.0,0.0,0.0,0.0,0.0,0.0,0.0,0.0,0.0,0.0,0.0,0.0,0.0,0.0,0.0,0.0,0.0,0.0,0.0,0.0,0.0,0.0,0.0,0.0,0.0,0.0,0.0,0.0,0.0,0.0,0.0,0.0,0.0,0.0,0.0,0.0,0.0,0.0,0.0,0.0,0.0,0.0,0.0,0.0,0.0,0.0,0.0,0.0,0.0,0.0,0.0,0.0,0.0,0.0,0.0,0.0,0.0,0.0,0.0,0.0,0.0,0.0,0.0,0.0,0.0,0.0,0.0,0.0,0.0,0.0,0.0,0.0,0.0,0.0,0.0,0.0,0.0,0.0,0.0,0.0,0.0,0.0,0.0,0.0,0.0,0.0,0.0,0.0,0.0,0.0,0.0,0.0,0.0,0.0,0.0,0.0,0.0,0.0,0.0,0.0,0.0,0.0,0.0,0.0,0.0,0.0,0.0,0.0,0.0,0.0,0.0,0.0,0.0,0.0,0.0,0.0,0.0,0.0,0.0,0.0,0.0,0.0,0.0,0.0,0.0,0.0,0.0,0.0,0.0,0.0,0.0,0.0,0.0,0.0,0.0,0.0,0.0,0.0,0.0,0.0,0.0,0.0,0.0,0.0,0.0,0.0,0.0,0.0,0.0,0.0,0.0,0.0,0.0,0.0,0.0,0.0,0.0,0.0,0.0,0.0,0.0,0.0,0.0,0.0,0.0,0.0,0.0,0.0,0.0,0.0,0.0,0.0,0.0,0.0,0.0,0.0,0.0,0.0,0.0,0.0,0.0,0.0,0.0,0.0,0.0,0.0,0.0,0.0,0.0,0.0,0.0,0.0,0.0,0.0,0.0,0.0,0.0,0.0,0.0,0.0,0.0,0.0,0.0,0.0,0.0,0.0,0.0,0.0,0.0,0.0,0.0,0.0,0.0,0.0,0.0,0.0,0.0,0.0,0.0,0.0,0.0,0.0,0.0,0.0,0.0,0.0,0.0,0.0,0.0,0.0,0.0,0.0,0.0,0.0,0.0,0.0,0.0,0.0,0.0,0.0,0.0,0.0,0.0,0.0,0.0,0.0,0.0,0.0,0.0,0.0,0.0,0.0,0.0,0.0,0.0,0.0,0.0,0.0,0.0,0.0,0.0,0.0,0.0,0.0,0.0,0.0,0.0,0.0,0.0,0.0,0.0,0.0,0.0,0.0,0.0,0.0,0.0,0.0,0.0,0.0,0.0,0.0,0.0,0.0,0.0,0.0,0.0,0.0,0.0,0.0,0.0,0.0,0.0,0.0,0.0,0.0,0.0,0.0,0.0,0.0,0.0,0.0,0.0,0.0,0.0,0.0,0.0,0.0,0.0,0.0,0.0,0.0,0.0,0.0,0.0,0.0,0.0,0.0,0.0,0.0,0.0,0.0,0.0,0.0,0.0,0.0,0.0,0.0,0.0,0.0,0.0,0.0,0.0,0.0,0.0,0.0,0.0,0.0,0.0,0.0,0.0,0.0,0.0,0.0,0.0,0.0,0.0,0.0,0.0,0.0,0.0,0.0,0.0,0.0,0.0,0.0,0.0,0.0,0.0,0.0,0.0,0.0,0.0,0.0,0.0,0.0,0.0,0.0,0.0,0.0,0.0,0.0,0.0,0.0,0.0,0.0,0.0,0.0,0.0,0.0,0.0,0.0,0.0,0.0,0.0,0.0,0.0,0.0,0.0,0.0,0.0,0.0,0.0,0.0,0.0,0.0,0.0,0.0,0.0,0.0,0.0,0.0,0.0,0.0,0.0,0.0,0.0,0.0,0.0,0.0,0.0,0.0,0.0,0.0,0.0,0.0,0.0,0.0,0.0,0.0,0.0,0.0,0.0,0.0,0.0,0.0,0.0,0.0,0.0,0.0,0.0,0.0,0.0,0.0,0.0,0.0,0.0,0.0,0.0,0.0,0.0,0.0,0.0,0.0,0.0,0.0,0.0,0.0,0.0,0.0,0.0,0.0,0.0,0.0,0.0,0.0,0.0,0.0,0.0,0.0,0.0,0.0,0.0,0.0,0.0,0.0,0.0,0.0,0.0,0.0,0.0,0.0,0.0,0.0,0.0,0.0,0.0,0.0,0.0,0.0,0.0,0.0,0.0,0.0,0.0,0.0,0.0,0.0,0.0,0.0,0.0,0.0,0.0,0.0,0.0,0.0,0.0,0.0,0.0,0.0,0.0,0.0,0.0,0.0,0.0,0.0,0.0,0.0,0.0,0.0,0.0,0.0,0.0,0.0,0.0,0.0,0.0,0.0,0.0,0.0,0.0,0.0,0.0,0.0,0.0,0.0,0.0,0.0,0.0,0.0,0.0,0.0,0.0,0.0,0.0,0.0,0.0,0.0,0.0,0.0,0.0,0.0,0.0,0.0,0.0,0.0,0.0,0.0,0.0,0.0,0.0,0.0,0.0,0.0,0.0,0.0,0.0,0.0,0.0,0.0,0.0,0.0,0.0,0.0,0.0,0.0,0.0,0.0,0.0,0.0,0.0,0.0,0.0,0.0,0.0,0.0,0.0,0.0,0.0,0.0,0.0,0.0,0.0,0.0,0.0,0.0,0.0,0.0,0.0,0.0,0.0,0.0,0.0,0.0,0.0,0.0,0.0,0.0,0.0,0.0,0.0,0.0,0.0,0.0,0.0,0.0,0.0,0.0,0.0,0.0,0.0,0.0,0.0,0.0,0.0,0.0,0.0,0.0,0.0,0.0,0.0,0.0,0.0,0.0,0.0,0.0,0.0,0.0,0.0,0.0,0.0,0.0,0.0,0.0,0.0,0.0,0.0,0.0,0.0,0.0,0.0,0.0,0.0,0.0,0.0,0.0,0.0,0.0,0.0,0.0,0.0,0.0,0.0,0.0,0.0,0.0,0.0,0.0,0.0,0.0,0.0,0.0,0.0,0.0,0.0,0.0,0.0,0.0,0.0,0.0,0.0,0.0,0.0,0.0,0.0,0.0,0.0,0.0,0.0,0.0,0.0,0.0,0.0,0.0,0.0,0.0,0.0,0.0,0.0,0.0,0.0,0.0,0.0,0.0,0.0,0.0,0.0,0.0,0.0,0.0,0.0,0.0,0.0,0.0,0.0,0.0,0.0,0.0,0.0,0.0,0.0,0.0,0.0,0.0,0.0,0.0,0.0,0.0,0.0,0.0,0.0,0.0,0.0,0.0,0.0,0.0,0.0,0.0,0.0,0.0,0.0,0.0,0.0,0.0,0.0,0.0,0.0,0.0,0.0,0.0,0.0,0.0,0.0,0.0,0.0,0.0,0.0,0.0,0.0,0.0,0.0,0.0,0.0,0.0,0.0,0.0,0.0,0.0,0.0,0.0,0.0,0.0,0.0,0.0,0.0,0.0,0.0,0.0,0.0,0.0,0.0,0.0,0.0,0.0,0.0,0.0,0.0,0.0,0.0,0.0,0.0,0.0,0.0,0.0,0.0,0.0,0.0,0.0,0.0,0.0,0.0,0.0,0.0,0.0,0.0,0.0,0.0,0.0,0.0,0.0,0.0,0.0,0.0,0.0,0.0,0.0,0.0,0.0,0.0,0.0,0.0,0.0,0.0,0.0,0.0,0.0,0.0,0.0,0.0,0.0,0.0,0.0,0.0,0.0,0.0,0.0,0.0,0.0,0.0,0.0,0.0,0.0,0.0,0.0,0.0,0.0,0.0,0.0,0.0,0.0,0.0,0.0,0.0,0.0,0.0,0.0,0.0,0.0,0.0,0.0,0.0,0.0,0.0,0.0,0.0,0.0,0.0,0.0,0.0,0.0,0.0,0.0,0.0,0.0,0.0,0.0,0.0,0.0,0.0,0.0,0.0,0.0,0.0,0.0,0.0,0.0,0.0,0.0,0.0,0.0,0.0,0.0,0.0,0.0,0.0,0.0,0.0,0.0,0.0,0.0,0.0,0.0,0.0,0.0,0.0,0.0,0.0,0.0,0.0,0.0,0.0,0.0,0.0,0.0,0.0,0.0,0.0,0.0,0.0,0.0,0.0,0.0,0.0,0.0,0.0,0.0,0.0,0.0,0.0,0.0,0.0,0.0,0.0,0.0,0.0,0.0,0.0,0.0,0.0,0.0,0.0,0.0,0.0,0.0,0.0,0.0,0.0,0.0,0.0,0.0,0.0,0.0,0.0,0.0,0.0,0.0,0.0,0.0,0.0,0.0,0.0,0.0,0.0,0.0,0.0,0.0,0.0,0.0,0.0,0.0,0.0,0.0,0.0,0.0,0.0,0.0,0.0,0.0,0.0,0.0,0.0,0.0,0.0,0.0,0.0,0.0,0.0,0.0,0.0,0.0,0.0,0.0,0.0,0.0,0.0,0.0,0.0,0.0,0.0,0.0,0.0,0.0,0.0,0.0,0.0,0.0,0.0,0.0,0.0,0.0,0.0,0.0,0.0,0.0,0.0,-0.4282,-0.4041,0.0,0.0,0.0,0.0,0.0,0.0,0.0,0.0,0.0,0.0,0.0,0.0,0.0,0.0,0.0,0.0,0.0,0.0,0.0,0.0,0.0,0.0,0.0,0.0,0.0,0.0,0.0,0.0,0.0,0.0,0.0,0.0,0.0,0.0,0.0,0.0,0.0,-0.4527,-0.4807,-0.5061,-0.5423,-0.5422,-0.5409,-0.542,0.0,0.0,0.0,0.0,0.0,0.0,0.0,0.0,0.0,0.0,0.0,0.0,0.0,0.0,0.0,0.0,0.0,0.0,0.0,0.0,0.0,0.0,0.0,0.0,0.0,0.0,0.0,0.0,0.0,0.0,0.0,0.0,0.0,0.0,0.0,0.0,0.0,0.0,0.0,0.0,0.0,0.0,0.0,0.0,0.0,0.0,0.0,0.0,0.0,0.0,0.0,0.0,0.0,0.0,0.0,0.0,0.0,0.0,0.0,0.0,0.0,0.0,0.0,0.0,0.0,0.0,0.0,0.0,0.0,0.0,-0.4297,-0.4041,0.0,0.0,0.0,0.0,0.0,0.0,0.0,0.0,0.0,0.0,0.0,0.0,0.0,0.0,0.0,0.0,0.0,0.0,0.0,0.0,0.0,0.0,0.0,-0.3615,-0.3592,-0.3611,-0.37,-0.3759,0.0,0.0,0.0,0.0,0.0,0.0,0.0,-0.4496,-0.4578,-0.4647,-0.5171,-0.5089,-0.4453,-0.4437,-0.4474,-0.4438,-0.4486,0.0,0.0,0.0,0.0,0.0,0.0,0.0,0.0,0.0,0.0,0.0,0.0,0.0,0.0,0.0,0.0,0.0,0.0,0.0,0.0,0.0,0.0,0.0,0.0,0.0,0.0,0.0,0.0,0.0,0.0,0.0,0.0,0.0,0.0,0.0,0.0,0.0,0.0,0.0,0.0,0.0,0.0,0.0,0.0,0.0,0.0,0.0,0.0,0.0,0.0,0.0,0.0,0.0,0.0,0.0,0.0,0.0,0.0,0.0,0.0,0.0,0.0,0.0,-0.5281,-0.541,-0.5835,-0.5755,-0.5722,-0.5639,-0.4652,-0.4336,-0.4559,-0.505,0.0,0.0,0.0,0.0,0.0,0.0,0.0,0.0,0.0,0.0,0.0,0.0,0.0,0.0,0.0,0.0,0.0,0.0,0.0,0.0,0.0,-0.3618,-0.3582,-0.3582,-0.407,-0.4372,-0.4385,0.0,0.0,0.0,0.0,0.0,-0.4493,-0.4516,-0.4785,-0.5279,-0.5364,-0.3828,-0.068,-0.0711,-0.0722,-0.0712,-0.0713,-0.069,-0.0714,0.0,0.0,0.0,0.0,0.0,0.0,0.0,0.0,0.0,0.0,0.0,0.0,0.0,0.0,0.0,0.0,0.0,0.0,0.0,0.0,0.0,0.0,0.0,0.0,0.0,0.0,0.0,0.0,0.0,0.0,0.0,0.0,0.0,0.0,0.0,0.0,0.0,0.0,0.0,0.0,0.0,-0.4294,-0.4494,0.0,0.0,0.0,0.0,0.0,0.0,0.0,0.0,0.0,0.0,0.0,0.0,0.0,-0.5714,-0.5764,-0.5451,-0.5421,-0.5499,-0.6865,-0.7565,-0.7628,-0.7118,-0.6836,-0.6902,-0.6691,0.0,-0.4504,-0.4571,0.0,0.0,0.0,0.0,0.0,0.0,0.0,0.0,0.0,0.0,0.0,0.0,0.0,0.0,0.0,0.0,0.0,0.0,0.0,0.0,0.0,-0.3906,-0.4123,-0.4083,-0.4643,-0.4852,-0.4515,-0.447,0.0,0.0,0.0,-0.4528,-0.4526,-0.4832,-0.4135,-0.2397,-0.2394,-0.1556,0.0,0.0,0.0,0.0,0.0,0.0,0.0,0.0,0.0,0.0,0.0,0.0,0.0,0.0,0.0,0.0,0.0,0.0,0.0,0.0,0.0,0.0,0.0,0.0,0.0,0.0,0.0,0.0,0.0,0.0,0.0,0.0,0.0,0.0,0.0,0.0,0.0,0.0,0.0,0.0,0.0,0.0,0.0,0.0,0.0,0.0,0.0,-0.4482,-0.4036,-0.2183,-0.3334,-0.4403,0.0,0.0,0.0,0.0,0.0,0.0,0.0,0.0,0.0,-0.6353,-0.6301,-0.6291,-0.6257,-0.6334,-0.6364,-0.6382,-0.7513,-0.8022,-0.7981,-0.7699,-0.7598,-0.758,-0.762,-0.7175,-0.6384,-0.5777,-0.4242,-0.2181,0.0,0.0,0.0,0.0,-0.4261,-0.4521,0.0,0.0,0.0,0.0,0.0,0.0,0.0,0.0,0.0,0.0,0.0,0.0,-0.3831,-0.4389,-0.4335,-0.344,-0.3793,-0.3821,-0.3351,-0.333,-0.2335,-0.0116,-0.2161,-0.3808,-0.4699,-0.4287,-0.2673,0.0,0.0,0.0,0.0,0.0,0.0,0.0,0.0,0.0,0.0,0.0,0.0,0.0,0.0,0.0,0.0,0.0,0.0,0.0,0.0,0.0,0.0,0.0,0.0,0.0,0.0,0.0,0.0,0.0,0.0,0.0,0.0,0.0,0.0,0.0,0.0,0.0,0.0,0.0,0.0,0.0,0.0,0.0,0.0,0.0,0.0,0.0,0.0,0.0,0.0,-0.4587,-0.3963,-0.1648,-0.2819,-0.4116,0.0,0.0,0.0,0.0,0.0,0.0,-0.5341,-0.5932,-0.6329,-0.6391,-0.6686,-0.6771,-0.6807,-0.7168,-0.7308,-0.7321,-0.7818,-0.7969,-0.7969,-0.7969,-0.8011,-0.8009,-0.8009,-0.8015,-0.7905,-0.6909,-0.3969,0.0,0.0,-0.2004,-0.4977,-0.4941,-0.5029,-0.5246,0.0,0.0,0.0,0.0,0.0,0.0,0.0,0.0,0.0,0.0,0.0,-0.3805,-0.4411,-0.4987,-0.3982,-0.0489,-0.0234,-0.0228,-0.0232,-0.0203,-0.0188,-0.0,-0.0121,-0.1837,-0.5299,-0.2016,-0.0177,0.0,0.0,0.0,0.0,0.0,0.0,0.0,0.0,0.0,0.0,0.0,0.0,0.0,0.0,0.0,0.0,0.0,0.0,0.0,0.0,0.0,0.0,0.0,0.0,0.0,0.0,0.0,0.0,0.0,0.0,0.0,0.0,0.0,0.0,0.0,0.0,0.0,0.0,0.0,0.0,0.0,0.0,0.0,0.0,0.0,0.0,0.0,0.0,0.0,0.0,0.0,0.0,-0.506,-0.227,0.0,0.0,0.0,0.0,-0.5755,-0.6044,-0.6112,-0.5931,-0.6658,-0.6961,-0.6728,-0.6926,-0.7039,-0.7065,-0.7622,-0.7908,-0.7915,-0.8024,-0.8028,-0.8028,-0.8028,-0.8024,-0.8018,-0.8018,-0.8031,-0.7941,-0.7351,-0.4299,0.0,0.0,-0.2518,-0.6175,-0.6197,-0.6496,-0.695,0.0,0.0,0.0,0.0,0.0,0.0,0.0,0.0,-0.3598,-0.3601,-0.3946,-0.4232,-0.4493,-0.6066,-0.5157,-0.0368,0.0,0.0,0.0,0.0,0.0,0.0,0.0,-0.0634,-0.1915,-0.0698,0.0,0.0,0.0,0.0,0.0,0.0,0.0,0.0,0.0,0.0,0.0,0.0,0.0,0.0,0.0,0.0,0.0,0.0,0.0,0.0,0.0,0.0,0.0,0.0,0.0,0.0,0.0,0.0,0.0,0.0,0.0,0.0,0.0,0.0,0.0,0.0,0.0,0.0,0.0,0.0,0.0,0.0,0.0,0.0,0.0,0.0,0.0,0.0,0.0,0.0,0.0,0.0,0.0,-0.4782,-0.3133,0.0,-0.43,-0.5469,-0.6193,-0.6366,-0.6347,-0.6423,-0.6713,-0.7336,-0.765,-0.7557,-0.765,-0.7775,-0.7824,-0.7994,-0.8024,-0.8217,-0.8021,-0.7981,-0.7981,-0.7965,-0.8011,-0.8045,-0.8039,-0.7999,-0.7946,-0.7767,-0.4674,0.0,0.0,-0.3035,-0.7397,-0.735,-0.7228,-0.7142,0.0,0.0,0.0,0.0,0.0,0.0,0.0,0.0,-0.3587,-0.3594,-0.3947,-0.4562,-0.5538,-0.7282,-0.6031,-0.0505,0.0,0.0,0.0,0.0,0.0,0.0,0.0,0.0,0.0,0.0,0.0,0.0,0.0,0.0,0.0,0.0,0.0,0.0,0.0,0.0,0.0,0.0,0.0,0.0,0.0,0.0,0.0,0.0,0.0,0.0,0.0,0.0,0.0,0.0,0.0,0.0,0.0,0.0,0.0,0.0,0.0,0.0,0.0,0.0,0.0,0.0,0.0,0.0,0.0,0.0,0.0,0.0,0.0,0.0,0.0,0.0,0.0,0.0,0.0,0.0,0.0,0.0,-0.449,-0.452,-0.3016,-0.2227,-0.2576,-0.524,-0.6881,-0.6809,-0.6776,-0.6913,-0.7381,-0.7793,-0.814,-0.8347,-0.8337,-0.8387,-0.8503,-0.8404,-0.8297,-0.8177,-0.8247,-0.82,-0.8033,-0.7965,-0.8117,-0.8295,-0.8037,-0.8004,-0.8019,-0.7999,-0.4822,-0.019,-0.1989,-0.4902,-0.798,-0.7995,-0.7743,-0.7506,0.0,0.0,0.0,0.0,0.0,0.0,0.0,-0.3581,-0.3595,-0.3606,-0.3653,-0.4788,-0.7714,-0.8351,-0.6281,-0.0542,0.0,0.0,0.0,0.0,0.0,0.0,0.0,0.0,0.0,0.0,0.0,0.0,0.0,0.0,0.0,0.0,0.0,0.0,0.0,0.0,0.0,0.0,0.0,0.0,0.0,0.0,0.0,0.0,0.0,0.0,0.0,0.0,0.0,0.0,0.0,0.0,0.0,0.0,0.0,0.0,0.0,0.0,0.0,0.0,0.0,0.0,0.0,0.0,0.0,0.0,0.0,0.0,0.0,0.0,0.0,0.0,0.0,0.0,0.0,0.0,0.0,-0.2508,-0.436,-0.4358,-0.1766,0.0,0.0,-0.4723,-0.7503,-0.7073,-0.7406,-0.7693,-0.797,-0.7982,-0.8309,-0.8857,-0.8748,-0.8758,-0.8892,-0.8755,-0.8322,-0.7908,-0.8508,-0.8605,-0.7979,-0.8043,-0.836,-0.8909,-0.824,-0.7971,-0.7962,-0.8049,-0.4836,-0.0503,-0.5947,-0.7992,-0.7969,-0.799,-0.8014,-0.8018,0.0,0.0,0.0,0.0,0.0,0.0,-0.3581,-0.3581,-0.3595,-0.3606,-0.4377,-0.5676,-0.7766,-0.4675,-0.1811,-0.0111,0.0,0.0,0.0,0.0,0.0,0.0,0.0,0.0,0.0,0.0,0.0,0.0,0.0,0.0,0.0,0.0,0.0,0.0,0.0,0.0,0.0,0.0,0.0,0.0,0.0,0.0,0.0,0.0,0.0,0.0,0.0,0.0,0.0,0.0,0.0,0.0,0.0,0.0,0.0,0.0,0.0,0.0,0.0,0.0,0.0,0.0,0.0,0.0,0.0,0.0,0.0,0.0,0.0,0.0,0.0,0.0,0.0,0.0,0.0,0.0,0.0,-0.0753,-0.1233,-0.1209,-0.0483,0.0,0.0,-0.1287,-0.2923,-0.4683,-0.6752,-0.796,-0.8034,-0.8376,-0.875,-0.8849,-0.4731,-0.4512,-0.8859,-0.4564,-0.3477,-0.5516,-0.7379,-0.8431,-0.8602,-0.8645,-0.8693,-0.8864,-0.8718,-0.8407,-0.7994,-0.7978,-0.48,-0.0503,-0.5861,-0.8016,-0.8006,-0.8031,-0.8018,-0.8018,0.0,0.0,0.0,0.0,0.0,0.0,-0.3581,-0.3581,-0.3594,-0.3585,-0.4896,-0.6359,-0.7868,-0.324,0.0,0.0,0.0,0.0,0.0,0.0,0.0,0.0,0.0,0.0,0.0,0.0,0.0,0.0,0.0,0.0,0.0,0.0,0.0,0.0,0.0,0.0,0.0,0.0,0.0,0.0,0.0,0.0,0.0,0.0,0.0,0.0,0.0,0.0,0.0,0.0,0.0,0.0,0.0,0.0,0.0,0.0,0.0,0.0,0.0,0.0,0.0,0.0,0.0,0.0,0.0,0.0,0.0,0.0,0.0,0.0,0.0,0.0,0.0,0.0,0.0,0.0,0.0,0.0,0.0,0.0,0.0,0.0,0.0,0.0,-0.063,-0.2221,-0.3764,-0.4689,-0.4627,-0.4997,-0.5133,-0.5139,-0.4246,-0.4249,-0.5146,-0.4207,-0.3321,-0.2683,-0.3954,-0.6136,-0.8773,-0.6303,-0.5158,-0.5212,-0.5118,-0.496,-0.4656,-0.4628,-0.2799,-0.0306,0.0,0.0,0.0,0.0,-0.7959,-0.8028,0.0,0.0,0.0,0.0,0.0,0.0,-0.3581,-0.3581,-0.3602,-0.3602,-0.519,-0.6757,-0.7872,-0.3241,0.0,0.0,0.0,0.0,0.0,0.0,0.0,0.0,0.0,0.0,0.0,0.0,0.0,0.0,0.0,0.0,0.0,0.0,0.0,0.0,0.0,0.0,0.0,0.0,0.0,0.0,0.0,0.0,0.0,0.0,0.0,0.0,0.0,0.0,0.0,0.0,0.0,0.0,0.0,0.0,0.0,0.0,0.0,0.0,0.0,0.0,0.0,0.0,0.0,0.0,0.0,0.0,0.0,0.0,0.0,0.0,0.0,0.0,0.0,0.0,0.0,0.0,0.0,0.0,0.0,0.0,0.0,0.0,0.0,0.0,0.0,0.0,0.0,0.0,0.0,0.0,0.0,0.0,0.0,-0.5647,-0.1015,-0.5535,-0.5189,0.0,0.0,-0.2768,-0.7765,-0.2423,0.0,0.0,0.0,0.0,0.0,0.0,0.0,0.0,0.0,0.0,-0.0603,-0.6039,-0.7962,-0.8041,0.0,0.0,0.0,0.0,0.0,0.0,-0.3581,-0.3581,-0.3602,-0.3602,-0.5172,-0.6702,-0.7879,-0.3202,0.0,0.0,0.0,0.0,0.0,0.0,0.0,0.0,0.0,0.0,0.0,0.0,0.0,0.0,0.0,0.0,0.0,0.0,0.0,0.0,0.0,0.0,0.0,0.0,0.0,0.0,0.0,0.0,0.0,0.0,0.0,0.0,0.0,0.0,0.0,0.0,0.0,0.0,0.0,-0.2582,0.0,0.0,0.0,0.0,0.0,0.0,0.0,0.0,0.0,0.0,0.0,0.0,0.0,0.0,0.0,0.0,0.0,0.0,0.0,0.0,0.0,0.0,0.0,0.0,0.0,0.0,0.0,0.0,0.0,0.0,0.0,0.0,0.0,0.0,0.0,0.0,0.0,0.0,-0.1165,-0.3501,-0.714,-0.3501,-0.1159,0.0,0.0,0.0,-0.1682,-0.0565,0.0,0.0,0.0,0.0,0.0,0.0,0.0,0.0,0.0,0.0,-0.0603,-0.6047,-0.7979,-0.7965,0.0,0.0,0.0,0.0,0.0,0.0,-0.3581,-0.3581,-0.3601,-0.3613,-0.4931,-0.6275,-0.7454,-0.3025,0.0,0.0,0.0,0.0,0.0,0.0,0.0,0.0,0.0,0.0,0.0,0.0,0.0,0.0,0.0,0.0,0.0,0.0,0.0,0.0,0.0,0.0,0.0,0.0,0.0,0.0,0.0,0.0,0.0,0.0,0.0,0.0,0.0,0.0,0.0,0.0,0.0,-0.0473,-0.3174,-0.5073,-0.6066,0.0,0.0,0.0,0.0,0.0,0.0,0.0,0.0,0.0,0.0,0.0,0.0,0.0,0.0,0.0,0.0,0.0,0.0,0.0,0.0,0.0,0.0,0.0,0.0,0.0,0.0,0.0,0.0,0.0,0.0,0.0,0.0,0.0,0.0,0.0,0.0,0.0,0.0,-0.1413,-0.4361,-0.1531,0.0,0.0,0.0,0.0,0.0,0.0,0.0,0.0,0.0,0.0,0.0,0.0,0.0,0.0,0.0,0.0,-0.0306,-0.2958,-0.5684,-0.7972,0.0,0.0,0.0,0.0,0.0,0.0,0.0,-0.3581,-0.3586,-0.3622,-0.4462,-0.5192,-0.5681,-0.227,0.0,0.0,0.0,0.0,0.0,0.0,0.0,0.0,0.0,0.0,0.0,0.0,0.0,0.0,0.0,0.0,0.0,0.0,0.0854,0.2412,0.2419,0.1566,0.0,0.0,0.0,0.0,0.0,0.0,0.0,0.0,0.0,0.0,0.0,0.0,0.0,0.0,0.0,-0.0753,-0.5069,-0.684,-0.6795,-0.4344,-0.3604,0.0,0.0,0.0,0.0,0.0,0.0,0.0,0.0,0.0,0.0,0.0,0.0,0.0,0.0,0.0,0.0,0.0,0.0,0.0,0.0,0.0,0.0,0.0,0.0,0.0,0.0,0.0,0.0,0.0,0.0,0.0,0.0,0.0,0.0,0.0,0.0,0.0,0.0,0.0,0.0,0.0,0.0,0.0,0.0,0.0,0.0,0.0,0.0,0.0,0.0,0.0,0.0,0.0,0.0,0.0,0.0,0.0,-0.277,-0.6578,0.0,0.0,0.0,0.0,0.0,0.0,0.0,0.0,-0.3599,-0.3596,-0.3717,-0.3026,-0.1011,-0.0315,0.0,0.0,0.0,0.0,0.0,0.0,0.0,0.0,0.0,0.0,0.0,0.0,0.0,0.0,0.0,0.0,0.0,0.0,0.4034,1.1148,1.1123,0.6913,0.0,0.0,0.0,0.0,0.0,0.0,0.0,0.0,0.0,0.0,0.0,0.0,0.0,0.0,0.0,-0.0091,-0.067,-0.416,-0.6895,-0.1946,-0.0525,-0.0483,-0.0519,-0.3212,-0.6083,-0.6079,-0.3017,0.0,0.0,0.0,0.0,0.0,0.0,0.0,0.0,0.0,0.0,0.0,0.0,0.0,0.0,0.0,0.0,0.0,0.0,0.0,0.0,0.0,0.0,0.0,0.0,0.0,0.0,0.0,0.0,0.0,0.0,0.0,0.0,0.0,0.0,0.0,0.0,0.0,0.0,0.0,0.0,0.0,0.0,0.0,0.0,0.0,0.0,0.0,0.0,0.0,0.0,0.0,-0.0418,-0.1539,0.0,0.0,0.0,0.0,0.0,0.0,0.0,0.0,0.0,-0.3605,-0.3599,-0.3225,-0.2186,-0.0831,0.0,0.0,0.0,0.0,0.0,0.0,0.0,0.0,0.0,0.0,0.0,0.0,0.0,0.0,0.0,0.0,0.0148,0.4966,0.9096,1.2571,1.2463,1.0622,0.6949,0.2101,0.0,0.0,0.0,0.0,0.0,0.0,0.0,0.0,0.0,0.0,0.0,0.0,0.0,0.0,0.0,-0.1522,-0.2899,-0.063,0.0,0.0,0.0,-0.1302,-0.2631,0.0,0.1065,0.3849,0.0673,0.2398,0.4617,0.4637,0.2153,0.0,0.0,0.0,0.0,0.0,0.0,0.0,0.0,0.0,0.0,0.0,0.0,0.0,0.0,0.0,0.0,0.0,0.0,0.0,0.0,0.0,0.0,0.0,0.0,0.0,0.0,0.0,0.0,0.0,0.0,0.0,0.0,0.0,0.0,0.0,0.0,0.0,0.0,0.0,0.0,0.0,0.0,0.0,0.0,0.0,0.0,-0.0734,0.0,0.0,0.0,0.0,0.0,0.0,0.0,0.0,0.0,0.0,-0.3582,-0.3367,-0.2667,-0.1044,0.0,0.0,0.0,0.0,0.0,0.0,0.0,0.0,0.0,0.0,0.0,0.0,0.0,0.0,0.0,0.0,0.0152,0.8567,1.2457,1.256,1.2571,1.2571,1.2105,0.6096,0.2113,0.0,0.0,0.0,0.0,0.0,0.0,0.0,0.0,0.0,0.0,0.0,0.0,0.0,0.0,0.0,0.0,0.0,0.0,0.0,0.0,0.0,0.0,0.185,0.5126,0.7022,0.3093,0.5248,0.8022,0.8016,0.4888,0.178,0.0301,0.0,0.0,0.0,0.0,0.0,0.0,0.0,0.0,0.0,0.0,0.0,0.0,0.0,0.0,0.0,0.0,0.0,0.0,0.0,0.0,0.0,0.0,0.0,0.0,0.0,0.0,0.0,0.0,0.0,0.0,0.0,0.0,0.0,0.0,0.0,0.0,0.0,0.0,0.0,0.0,0.0,0.0,0.0,0.0,-0.0535,0.0,0.0,0.0,0.0,0.0,0.0,0.0,0.0,0.0,0.0,0.0,0.0,0.0,-0.0047,0.0,0.0,0.0,0.0,0.0,0.0,0.0,0.0,0.0,0.0,0.0,0.0,0.0,0.0,0.0,0.0,0.0151,0.8552,1.2535,1.2536,1.2491,1.2542,1.2539,1.2225,0.7397,0.0,0.0,0.0,0.0,0.0,0.0,0.0,0.0,0.0,0.0,0.0,0.0,0.0,0.0,0.0,0.0,0.0,0.0,0.0,0.0,0.0,0.1269,0.645,0.7887,0.7934,0.7826,0.7914,0.7976,0.8045,0.7879,0.6152,0.1009,0.0,0.0,0.0,0.0,0.0,0.0,0.0,0.0,0.0,0.0,0.0,0.0,0.0,0.0,0.0,0.0,0.0,0.0,0.0,0.0,0.0,0.0,0.0,0.0,0.0,0.0,0.0,0.0,0.0,0.0,0.0,0.0,0.0,0.0,0.0,0.0,0.0,0.0,0.0,0.0,0.0,0.0,0.0,0.0,-0.0,0.0,0.0,0.0,0.0,0.0,0.0,0.0,0.0,0.0,0.0,0.0,0.0,0.0,0.0,0.0,0.0,0.0,0.0,0.0,0.0,0.0,0.0,0.0,0.0,0.0,0.0,0.0,0.0,0.0,0.2584,0.774,0.7937,0.9513,1.2342,1.2366,1.2379,1.2379,1.2393,1.0803,0.7808,0.2302,0.0,0.0,0.0,0.0,0.0,0.0,0.0,0.0,0.0,0.0,0.0,0.0,0.0,0.0,0.0,0.0,0.0,0.0,0.0,0.0428,0.2199,0.5389,0.7974,0.8045,0.7992,0.7982,0.7736,0.5063,0.2128,0.0365,0.0,0.0,0.0,0.0,0.0,0.0,0.0,0.0,0.0,0.0,0.0,0.0,0.0,0.0,0.0,0.0,0.0,0.0,0.0,0.0,0.0,0.0,0.0,0.0,0.0,0.0,0.0,0.0,0.0,0.0,0.0,0.0,0.0,0.0,0.0,0.0,0.0,0.0,0.0,0.0,0.0,0.0,0.0,0.0,0.0,0.0,0.0,0.0,0.0,0.0,0.0,0.0,0.0,0.0,0.0,0.0,0.0,0.0,0.0,0.0,0.0,0.0,0.0,0.0,0.0,0.0,0.0,0.0,0.0,0.0,0.0,0.0,0.0,0.2394,0.6017,1.0897,0.8632,0.9024,1.1854,1.1979,1.1999,1.2043,1.211,1.2131,1.1838,0.6587,0.2655,0.0,0.0,0.0,0.0,0.0,0.0,0.0,0.0,0.0,0.0,0.0,0.0,0.0,0.0,0.0,0.0,0.0,0.0,0.028,0.1389,0.4906,0.821,0.8077,0.7981,0.7687,0.7101,0.4621,0.1999,0.0332,0.0,0.0,0.0,0.0,0.0,0.0,0.0,0.0,0.0,0.0,0.0,0.0,0.0,0.0,0.0,0.0,0.0,0.0,0.0,0.0,0.0,0.0,0.0,0.0,0.0,0.0,0.0,0.0,0.0,0.0,0.0,0.0,0.0,0.0,0.0,0.0,0.0,0.0,0.0,0.0,0.0,0.0,0.0,0.0,0.0,0.0,0.0,0.0,0.0,0.0,0.0,0.0,0.0,0.0,0.0,0.0,0.0,0.0,0.0,0.0,0.0,0.0,0.0,0.0,0.0,0.0,0.0,0.0,0.0,0.0,0.0216,0.0224,0.0234,0.6388,0.958,0.9714,1.0206,1.0593,1.0871,1.1127,1.1335,1.1453,1.1753,1.1799,1.1849,1.229,0.7485,0.0,0.0,0.0,0.0,0.0,0.0,0.0,0.0,0.0191,0.0,0.0386,0.0337,0.0212,0.0071,0.0,0.0,0.0,0.0,0.0782,0.3974,0.6631,0.844,0.8282,0.8014,0.7328,0.6153,0.655,0.5767,0.0,0.0,0.0,0.0,0.0,0.0,0.0,0.0,0.0,0.0,0.0,0.0,0.0,0.0,0.0,0.0,0.0,0.0,0.0,0.0,0.0,0.0,0.0,0.0,0.0,0.0,0.0,0.0,0.0,0.0,0.0,0.0,0.0,0.0,0.0,0.0,0.0,0.0,0.0,0.0,0.0,0.0,0.0,0.0,0.0,0.0,0.0,0.0,0.0,0.0,0.0,0.0,0.0,0.0,0.0,0.0,0.0,0.0,0.0,0.0,0.0,0.0,0.0,0.0,0.0,0.0,0.0,0.0,0.0,0.0,0.0,0.2655,0.403,0.3977,0.4404,0.5708,0.8027,0.8121,0.8577,0.9288,0.9398,0.9415,0.9449,1.0102,0.9178,0.7621,1.0636,0.7084,0.0,0.0,0.0,0.0,0.0,0.0,0.0,0.0,0.0,0.0,0.0,0.4572,0.2553,0.0565,0.0,0.0,0.0,0.0,0.1295,0.6511,0.792,0.8156,0.8117,0.798,0.7774,0.7116,0.7435,0.725,0.0,0.0,0.0,0.0,0.0,0.0,0.0,0.0,0.0,0.0,0.0,0.0,0.0,0.0,0.0,0.0,0.0,0.0,0.0,0.0,0.0,0.0,0.0,0.0,0.0,0.0,0.0,0.0,0.0,0.0,0.0,0.0,0.0,0.0,0.0,0.0,0.0,0.0,0.0,0.0,0.0,0.0,0.0,0.0,0.0,0.0,0.0,0.0,0.0,0.0,0.0,0.0,0.0,0.0,0.0,0.0,0.0,0.0,0.0,0.0,0.0,0.0,0.0,0.0,0.0,0.0,0.0,0.0,0.0,0.0,0.0,0.2016,0.3836,0.5383,0.4233,0.453,0.6297,0.7101,0.7788,0.8547,0.8614,0.8577,0.8425,0.9697,0.9345,0.0,0.0,0.3886,0.0,0.0,0.0,0.0,0.0,0.0,0.0,0.0,0.0,0.4395,0.6855,0.6752,0.5435,0.3912,0.0,0.0,0.0,0.1873,0.4403,0.6328,0.7437,0.8091,0.7793,0.7784,0.7632,0.6693,0.7103,0.0,0.5827,0.2533,0.0,0.0,0.0,0.0,0.0,0.0,0.0,0.0,0.0,0.0,0.0,0.0,0.0,0.0,0.0,0.0,0.0,0.0,0.0,0.0,0.0,0.0,0.0,0.0,0.0,0.0,0.0,0.0,0.0,0.0,0.0,0.0,0.0,0.0,0.0,0.0,0.0,0.0,0.0,0.0,0.0,0.0,0.0,0.0,0.0,0.0,0.0,0.0,0.0,0.0,0.0,0.0,0.0,0.0,0.0,0.0,0.0,0.0,0.0,0.0,0.0,0.0,0.0,0.0,0.0,0.0,0.0,0.0,0.0,0.0,0.1626,0.4973,0.4756,0.4772,0.4959,0.6382,0.7305,0.7822,0.8048,0.7919,0.7672,0.9062,0.9798,0.9434,0.2701,0.0,0.0,0.0,0.0,0.0,0.0,0.0,0.0,0.0,0.4318,0.1649,0.5048,0.6766,0.7522,0.7902,0.4686,0.0854,0.0227,0.4393,0.8323,0.5288,0.6421,0.8071,0.7492,0.7443,0.703,0.5516,0.0,0.5552,0.3479,0.1423,0.0,0.0,0.0,0.0,0.0,0.0,0.0,0.0,0.0,0.0,0.0,0.0,0.0,0.0,0.0,0.0,0.0,0.0,0.0,0.0,0.0,0.0,0.0,0.0,0.0,0.0,0.0,0.0,0.0,0.0,0.0,0.0,0.0,0.0,0.0,0.0,0.0,0.0,0.0,0.0,0.0,0.0,0.0,0.0,0.0,0.0,0.0,0.0,0.0,0.0,0.0,0.0,0.0,0.0,0.0,0.0,0.0,0.0,0.0,0.0,0.0,0.0,0.0,0.0,0.0,0.0,0.0,0.0,0.0,0.0,0.0932,0.2754,0.3314,0.3998,0.4935,0.5229,0.5362,0.5459,0.555,0.5579,0.551,0.4485,0.4938,0.5927,0.1703,0.0,0.0,0.0,0.0,0.0,0.0,0.0,0.0,0.0,0.3753,0.6011,0.2391,0.2711,0.4814,0.7302,0.729,0.5698,0.1165,0.4742,0.9294,0.807,0.7902,0.7899,0.7118,0.6772,0.0,0.0,0.2503,0.1118,0.0687,0.0291,0.0,0.0,0.0,0.0,0.0,0.0,0.0,0.0,0.0,0.0,0.0,0.0,0.0,0.0,0.0,0.0,0.0,0.0,0.0,0.0,0.0,0.0,0.0,0.0,0.0,0.0,0.0,0.0,0.0,0.0,0.0,0.0,0.0,0.0,0.0,0.0,0.0,0.0,0.0,0.0,0.0,0.0,0.0,0.0,0.0,0.0,0.0,0.0,0.0,0.0,0.0,0.0,0.0,0.0,0.0,0.0,0.0,0.0,0.0,0.0,0.0,0.0,0.0,0.0,0.0,0.0,0.0,0.0,0.0,0.0,0.0358,0.1055,0.0,0.4183,0.4707,0.4664,0.47,0.4707,0.5036,0.5051,0.4609,0.2266,0.1777,0.2441,0.0697,0.0,0.0,0.0,0.0,0.0,0.0,0.0,0.0,0.0,0.169,0.3865,0.405,0.3044,0.1989,0.3427,0.6529,0.8835,0.6253,0.7659,0.9676,0.8866,0.8467,0.7865,0.6656,0.0,0.0,0.0,0.1353,0.0,0.0,0.0,0.0,0.0,0.0,0.0,0.0,0.0,0.0,0.0,0.0,0.0,0.0,0.0,0.0,0.0,0.0,0.0,0.0,0.0,0.0,0.0,0.0,0.0,0.0,0.0,0.0,0.0,0.0,0.0,0.0,0.0,0.0,0.0,0.0,0.0,0.0,0.0,0.0,0.0,0.0,0.0,0.0,0.0,0.0,0.0,0.0,0.0,0.0,0.0,0.0,0.0,0.0,0.0,0.0,0.0,0.0,0.0,0.0,0.0,0.0,0.0,0.0,0.0,0.0,0.0,0.0,0.0,0.0,0.0,0.0,0.0,0.0,0.0,0.2352,0.0,0.0,0.0,0.0,0.0,0.4511,0.4639,0.436,0.1956,0.0613,0.0,0.0,0.0,0.0,0.0,0.0,0.0,0.0,0.0,0.0,0.0,0.0,0.0708,0.4948,0.3391,0.0,0.0,0.3968,0.8791,1.0232,1.0309,0.9795,0.9069,0.8588,0.7831,0.6489,0.5846,0.0,0.0,0.1175,0.0,0.0,0.0,0.0,0.0,0.0,0.0,0.0,0.0,0.0,0.0,0.0,0.0,0.0,0.0,0.0,0.0,0.0,0.0,0.0,0.0,0.0,0.0,0.0,0.0,0.0,0.0,0.0,0.0,0.0,0.0,0.0,0.0,0.0,0.0,0.0,0.0,0.0,0.0,0.0,0.0,0.0,0.0,0.0,0.0,0.0,0.0,0.0,0.0,0.0,0.0,0.0,0.0,0.0,0.0,0.0,0.0,0.0,0.0,0.0,0.0,0.0,0.0,0.0,0.0,0.0,0.0,0.0,0.0,0.0,0.0,0.0,0.0,0.0,0.0,0.0276,0.0,0.0,0.0,0.0,0.0,0.0,0.322,0.4461,0.4222,0.0,0.0,0.0,0.0,0.0,0.0,0.0,0.0,0.0,0.0,0.0,0.0,0.0,0.007,0.0609,0.0432,0.0,0.0,0.0,0.0,0.8952,1.0528,1.0077,0.9103,0.8508,0.777,0.6809,0.0,0.0,0.3674,0.1627,0.0,0.0,0.0,0.0,0.0,0.0,0.0,0.0,0.0,0.0,0.0,0.0,0.0,0.0,0.0,0.0,0.0,0.0,0.0,0.0,0.0,0.0,0.0,0.0,0.0,0.0,0.0,0.0,0.0,0.0,0.0,0.0,0.0,0.0,0.0,0.0,0.0,0.0,0.0,0.0,0.0,0.0,0.0,0.0,0.0,0.0,0.0,0.0,0.0,0.0,0.0,0.0,0.0,0.0,0.0,0.0,0.0,0.0,0.0,0.0,0.0,0.0,0.0,0.0,0.0,0.0,0.0,0.0,0.0,0.0,0.0,0.0,0.0,0.0,0.0,0.0,0.0,0.0,0.0,0.0,0.0,0.0,0.1202,0.1935,0.371,0.0,0.0,0.0,0.0,0.0,0.0,0.0,0.0,0.0,0.0,0.0,0.0,0.0,0.0,0.0,0.0,0.0,0.0,0.0,0.1095,0.5936,0.8799,1.0204,0.932,0.8526,0.7633,0.6768,0.0,0.3769,0.3635,0.1663,0.0,0.0,0.0,0.0585,0.2443,0.1195,0.0,0.0,0.0,0.0,0.0,0.0,0.0,0.0,0.0,0.2166,0.0129,0.0,0.1911,0.62,0.2405,0.0,0.0,0.0,0.0,0.0,0.0,0.0,0.0,0.0,0.0,0.0,0.0,0.0,0.0,0.0,0.0,0.0,0.0,0.0,0.0,0.0,0.0,0.0,0.0,0.0,0.0,0.0,0.0,0.0,0.0,0.0,0.0,0.0,0.0,0.0,0.0,0.0,0.0,0.0,0.0,0.0,0.0,0.0,0.0,0.0,0.0,0.0,0.0,0.0,0.0,0.0,0.0,0.0,0.0,0.0,0.0,0.0,0.0,0.0,0.0,0.0,0.0,0.0,0.0,0.0,0.0,0.0,0.0,0.0,0.0,0.0,0.0,0.0,0.0,0.0,0.0,0.0,0.0,0.0,0.0,0.0,0.0,0.0,0.0509,0.2837,0.6754,1.0137,0.9687,0.879,0.7897,0.0,0.5488,0.3739,0.2755,0.1168,0.0,0.0,0.0,0.0988,0.4029,0.2737,0.1009,0.015,0.0651,0.0,0.0,0.0,0.0,0.0,0.768,0.4926,0.1657,0.1504,0.3756,0.8857,0.5331,0.2658,0.1659,0.0514,0.0,0.0,0.0,0.0,0.0,0.0,0.0,0.0,0.0,0.0,0.0,0.0,0.0,0.0,0.0,0.0,0.0,0.0,0.0,0.0,0.0,0.0,0.0,0.0,0.0,0.0,0.0,0.0,0.0,0.0,0.0,0.0,0.0,0.0,0.0,0.0,0.0,0.0,0.0,0.0,0.0,0.0,0.0,0.0,0.0,0.0,0.0,0.0,0.0,0.0,0.0,0.0,0.0,0.0,0.0,0.0,0.0,0.0,0.0,0.0,0.0,0.0,0.0,0.0,0.0,0.0,0.0,0.0,0.0,0.0,0.0,0.0,0.0,0.0,0.0,0.0,0.0,0.0,0.0,0.0,0.0,0.0,0.4857,0.988,1.019,0.9556,0.8739,0.0,0.7115,0.5075,0.0876,0.0,0.0,0.0,0.0,0.097,0.3993,0.4488,0.3425,0.0428,0.0,0.0,0.0,0.0,0.0,0.9745,0.9741,0.8355,0.515,0.4895,0.5022,0.5403,0.8708,0.8958,0.5506,0.1811,0.0,0.0,0.0,0.0,0.0,0.0,0.0,0.0,0.0,0.0,0.0,0.0,0.0,0.0,0.0,0.0,0.0,0.0,0.0,0.0,0.0,0.0,0.0,0.0,0.0,0.0,0.0,0.0,0.0,0.0,0.0,0.0,0.0,0.0,0.0,0.0,0.0,0.0,0.0,0.0,0.0,0.0,0.0,0.0,0.0,0.0,0.0,0.0,0.0,0.0,0.0,0.0,0.0,0.0,0.0,0.0,0.0,0.0,0.0,0.0,0.0,0.0,0.0,0.0,0.0,0.0,0.0,0.0,0.0,0.0,0.0,0.0,0.0,0.0,0.0,0.0,0.0,0.0,0.0,0.0,0.0,0.0,0.1535,0.3647,0.6022,0.6347,0.6458,0.7723,0.6803,0.4603,0.0779,0.0,0.0,0.0,0.0,0.0302,0.1288,0.3142,0.4322,0.0,0.0,0.0,0.0,0.0,0.0,0.0,0.0,0.9328,0.8329,0.8206,0.8358,0.8557,0.9709,0.9856,0.9092,0.787,0.6193,0.3752,0.1202,0.0,0.0,0.0,0.0,0.0,0.0,0.0,0.0,0.0,0.0,0.0,0.0,0.0,0.0,0.0,0.0,0.0,0.0,0.0,0.0,0.0,0.0,0.0,0.0,0.0,0.0,0.0,0.0,0.0,0.0,0.0,0.0,0.0,0.0,0.0,0.0,0.0,0.0,0.0,0.0,0.0,0.0,0.0,0.0,0.0,0.0,0.0,0.0,0.0,0.0,0.0,0.0,0.0,0.0,0.0,0.0,0.0,0.0,0.0,0.0,0.0,0.0,0.0,0.0,0.0,0.0,0.0,0.0,0.0,0.0,0.0,0.0,0.0,0.0,0.0,0.0,0.0,0.0,0.0,0.0,0.0477,0.2505,0.3024,0.0,0.4689,0.4151,0.2725,0.0454,0.0,0.0,0.0,0.0757,0.1386,0.1479,0.3067,0.4614,0.0,0.0,0.0,0.0,0.0,0.0,0.0,0.9751,0.9859,0.9751,0.9751,0.9958,1.0151,1.0103,1.0219,1.0668,1.0692,0.9667,0.7457,0.5218,0.2683,0.0,0.0,0.0,0.0,0.0,0.0,0.0,0.0,0.0,0.0,0.0,0.0,0.0,0.0,0.0,0.0,0.0,0.0,0.0,0.0,0.0,0.0,0.0,0.0,0.0,0.0,0.0,0.0,0.0,0.0,0.0,0.0,0.0,0.0,0.0,0.0,0.0,0.0,0.0,0.0,0.0,0.0,0.0,0.0,0.0,0.0,0.0,0.0,0.0,0.0,0.0,0.0,0.0,0.0,0.0,0.0,0.0,0.0,0.0,0.0,0.0,0.0,0.0,0.0,0.0,0.0,0.0,0.0,0.0,0.0,0.0,0.0,0.0,0.0,0.0,0.0,0.0,0.0,0.0,0.0,0.0,0.0,0.0,0.0,0.0,0.0,0.0,0.0,0.0,0.0,0.2011,0.3717,0.3923,0.3954,0.4342,0.0,0.0,0.0,0.0,0.0,0.0,0.9277,0.9585,0.9846,0.9825,0.9832,0.9958,1.0232,1.0124,1.0171,1.0436,1.062,1.0654,1.0675,1.0717,0.7397,0.0805,0.0268,0.0,0.0,0.0,0.0,0.0,0.0,0.0,0.0,0.0,0.0,0.0,0.0,0.0,0.0,0.0,0.0,0.0,0.0,0.0,0.0,0.0,0.0,0.0,0.0,0.0,0.0,0.0,0.0,0.0,0.0,0.0,0.0,0.0,0.0,0.0,0.0,0.0,0.0,0.0,0.0,0.0,0.0,0.0,0.0,0.0,0.0,0.0,0.0,0.0,0.0,0.0,0.0,0.0,0.0,0.0,0.0,0.0,0.0,0.0,0.0,0.0,0.0,0.0,0.0,0.0,0.0,0.0,0.0,0.0,0.0,0.0,0.0,0.0,0.0,0.0,0.0,0.0,0.0,0.0,0.0,0.0,0.0,0.0,0.0,0.0,0.0,0.0,0.0,0.2372,0.4175,0.3784,0.3726,0.379,0.0,0.0,0.0,0.0,0.0,0.9818,0.9613,0.9765,0.9836,0.9846,0.9941,0.9975,0.993,1.0005,1.0025,0.9978,1.01,1.0276,1.0504,1.068,0.9825,0.8079,0.2683,0.0,0.0,0.0,0.0,0.0,0.0,0.0,0.0,0.0,0.0,0.0,0.0,0.0,0.0,0.0,0.0,0.0,0.0,0.0,0.0,0.0,0.0,0.0,0.0,0.0,0.0,0.0,0.0,0.0,0.0,0.0,0.0,0.0,0.0,0.0,0.0,0.0,0.0,0.0,0.0,0.0,0.0,0.0,0.0,0.0,0.0,0.0,0.0,0.0,0.0,0.0,0.0,0.0,0.0,0.0,0.0,0.0,0.0,0.0,0.0,0.0,0.0,0.0,0.0,0.0,0.0,0.0,0.0,0.0,0.0,0.0,0.0,0.0,0.0,0.0,0.0,0.0,0.0,0.0,0.0,0.0,0.0,0.0,0.0,0.0,0.0,0.0,0.1101,0.2593,0.3932,0.4739,0.4236,0.0,0.0,0.0,0.0,0.0,0.9391,0.9629,0.0,0.9858,0.9825,0.9839,0.9903,0.9937,0.9927,0.9937,0.9937,0.9927,1.0005,1.0127,1.0287,1.0404,1.067,1.0704,0.6708,0.3227,0.0,0.0,0.0,0.0,0.0,0.0,0.0,0.0,0.0,0.0,0.0,0.0,0.0,0.0,0.0,0.0,0.0,0.0,0.0,0.0,0.0,0.0,0.0,0.0,0.0,0.0,0.0,0.0,0.0,0.0,0.0,0.0,0.0,0.0,0.0,0.0,0.0,0.0,0.0,0.0,0.0,0.0,0.0,0.0,0.0,0.0,0.0,0.0,0.0,0.0,0.0,0.0,0.0,0.0,0.0,0.0,0.0,0.0,0.0,0.0,0.0,0.0,0.0,0.0,0.0,0.0,0.0,0.0,0.0,0.0,0.0,0.0,0.0,0.0,0.0,0.0,0.0108,0.058,0.0687,0.0584,0.0106,0.0,0.0,0.0,0.0,0.0,0.0,0.0,0.0,0.0,0.0,0.0,0.0,0.0,0.0,0.0,0.9347,0.0,0.9737,0.9795,0.9822,0.9822,0.9842,0.99,1.0008,0.9914,0.9903,1.0012,1.0019,1.0019,1.0019,1.0213,1.0524,1.0685,1.0704,0.6978,0.0,0.0,0.0,0.0,0.0,0.0,0.0,0.0,0.0,0.0,0.0,0.0,0.0,0.0,0.0,0.0,0.0,0.0,0.0,0.0,0.0,0.0,0.0,0.0,0.0,0.0,0.0,0.0,0.0,0.0,0.0,0.0,0.0,0.0,0.0,0.0,0.0,0.0,0.0,0.0,0.0,0.0,0.0,0.0,0.0,0.0,0.0,0.0,0.0,0.0,0.0,0.0,0.0,0.0,0.0,0.0,0.0,0.0,0.0,0.0,0.0,0.0,0.0,0.0,0.0,0.0,0.0,0.0,0.0,0.0,0.0,0.0,0.0,0.0,0.0,0.0,0.0585,0.3147,0.3789,0.3124,0.0563,0.0,0.0,0.0,0.0,0.0,0.0,0.0,0.0,0.0,0.0,0.0,0.0,0.0,0.0,0.9157,0.0,0.9815,0.9483,0.9676,0.9822,0.9822,0.9941,0.9968,0.9863,0.9958,0.9964,0.9859,0.9876,0.9886,0.9886,1.0195,1.0503,1.0684,1.0711,0.694,0.0,0.0,0.0,0.0,0.0,0.0,0.0,0.0,0.0,0.0,0.0,0.0,0.0,0.0,0.0,0.0,0.0,0.0,0.0,0.0,0.0,0.0,0.0,0.0,0.0,0.0,0.0,0.0,0.0,0.0,0.0,0.0,0.0,0.0,0.0,0.0,0.0,0.0,0.0,0.0,0.0,0.0,0.0,0.0,0.0,0.1025,0.2868,0.0881,0.0,0.0,0.0,0.0,0.0,0.0,0.0,0.0,0.0,0.0,0.0,0.0,0.0,0.0,0.0,0.0,0.0,0.0,0.0,0.0,0.0,0.0,0.0,0.0,0.0,0.0,0.0,0.0,0.0789,0.4168,0.496,0.4546,0.2978,0.0,0.0,0.0,0.0,0.0,0.0,0.0,0.0,0.0,0.0,0.0,0.0,0.9011,0.9178,0.0,0.0,0.9669,0.9625,0.9741,0.9822,0.9822,0.9886,0.9893,0.9825,0.9886,0.9893,0.9822,0.9832,0.8976,0.7133,0.7358,0.8352,1.0143,0.6571,0.3238,0.0,0.0,0.0,0.0,0.0,0.0,0.0,0.0,0.0,0.0,0.0,0.0,0.0,0.0,0.0,0.0,0.0,0.0,0.0,0.0,0.0,0.0,0.0,0.0,0.0,0.0,0.0,0.0,0.0,0.0,0.0,0.0,0.0,0.0,0.0,0.0,0.0,0.0,0.0,0.0,0.0,0.0,0.0,0.0,0.0,0.189,0.537,0.2565,0.0793,0.0,0.0,0.0,0.0,0.0,0.0,0.0,0.0,0.0,0.0,0.0,0.0,0.0,0.0,0.0,0.0,0.0,0.0,0.0,0.0,0.0,0.0,0.0,0.0,0.0,0.0,0.05,0.1576,0.3613,0.0,0.5315,0.492,0.0,0.0,0.0,0.0,0.0,0.0,0.0,0.0,0.0,0.0,0.8621,0.9039,0.9154,0.9269,0.9462,0.9517,0.9598,0.9754,0.9802,0.9791,0.9724,0.9781,0.9805,0.9774,0.9802,0.9822,0.9822,0.9825,0.8601,0.6031,0.5291,0.583,0.7436,0.2414,0.0,0.0,0.0,0.0,0.0,0.0,0.0,0.0,0.0,0.0,0.0,0.0,0.0,0.0,0.0,0.0,0.0,0.0,0.0,0.0,0.0,0.0,0.0,0.0,0.0,0.0,0.0,0.0,0.0,0.0,0.0,0.0,0.0,0.0,0.0,0.0,0.0,0.0,0.0,0.0,0.0,0.0,0.0,0.0,0.0,0.0,0.1848,0.5412,0.5113,0.3251,0.0,0.0,0.0,0.0,0.0,0.0,0.0,0.0,0.0,0.0,0.0,0.0,0.0,0.0,0.0,0.0,0.0,0.0,0.0,0.0,0.0,0.0,0.0,0.0,0.0,0.0,0.2066,0.3556,0.1044,0.2901,0.0,0.4683,0.0,0.0,0.0,0.0,0.0,0.0,0.0,0.0,0.0,0.0,0.9201,0.9517,0.0,0.9924,0.9802,0.9914,0.99,0.9649,0.9744,0.9707,0.9435,0.9666,0.9764,0.9632,0.9747,0.9822,0.9822,0.9842,0.9744,0.9406,0.6416,0.3454,0.0742,0.0248,0.0,0.0,0.0,0.0,0.0,0.0,0.0,0.0,0.0,0.0,0.0,0.0,0.0,0.0,0.0,0.0,0.0,0.0,0.0,0.0,0.0,0.0,0.0,0.0,0.0,0.0,0.0,0.0,0.0,0.0,0.0,0.0,0.0,0.0,0.0,0.0,0.0,0.0,0.0,0.0,0.0,0.0,0.0,0.0,0.0,0.2271,0.3487,0.3778,0.4845,0.4052,0.1641,0.0499,0.0,0.0,0.0,0.0,0.0,0.0,0.0,0.0,0.0,0.0,0.0,0.0,0.0,0.0,0.0,0.0,0.0,0.0,0.0,0.0,0.0,0.0,0.0,0.0,0.2186,0.421,0.3092,0.0,0.0,0.0,0.0,0.0,0.0,0.0,0.0,0.0,0.0,0.0,0.0,0.8886,0.9289,0.9686,0.9836,0.9852,0.9707,0.9741,0.9693,0.949,0.9517,0.95,0.9391,0.9486,0.9523,0.9469,0.9608,0.9646,0.9551,0.9649,0.9724,0.9768,0.6561,0.3293,0.0,0.0,0.0,0.0,0.0,0.0,0.0,0.0,0.0,0.0,0.0,0.0,0.0,0.0,0.0,0.0,0.0,0.0,0.0,0.0,0.0,0.0,0.0,0.0,0.0,0.0,0.0,0.0,0.0,0.0,0.0,0.0,0.0,0.0,0.0,0.0,0.0,0.0,0.0,0.0,0.0,0.0,0.0,0.0,0.1314,0.2006,0.2003,0.3727,0.4168,0.3469,0.4758,0.4463,0.2638,0.0808,0.0,0.0,0.0,0.0,0.0,0.0,0.0,0.0,0.0,0.0,0.0,0.0,0.0,0.0,0.0,0.0,0.0,0.0,0.0,0.0,0.0,0.068,0.1234,0.027,0.22,0.466,0.0,0.0,0.0,0.0,0.0,0.0,0.0,0.0,0.0,0.0,0.0,0.0,0.0,0.8967,0.9351,0.9703,0.9754,0.97,0.9554,0.9537,0.9479,0.9323,0.9354,0.9344,0.9249,0.9327,0.9361,0.931,0.9456,0.949,0.9384,0.949,0.9568,0.9731,0.7578,0.4237,0.0,0.0,0.0,0.0,0.0,0.0,0.0,0.0,0.0,0.0,0.0,0.0,0.0,0.0,0.0,0.0,0.0,0.0,0.0,0.0,0.0,0.0,0.0,0.0,0.0,0.0,0.0,0.0,0.0,0.0,0.0,0.0,0.0,0.0,0.0,0.0,0.0,0.0,0.0,0.0,0.0,0.0,0.0,0.0,0.4069,0.6255,0.6256,0.3874,0.3541,0.5098,0.5325,0.446,0.2631,0.0835,0.0,0.0,0.0,0.0,0.0,0.0,0.0,0.0,0.0,0.0,0.0,0.0,0.0,0.0,0.0,0.0,0.0,0.0,0.0,0.0,0.0,0.2133,0.3819,0.0864,0.2218,0.4952,0.0,0.0,0.0,0.0,0.0,0.0,0.0,0.0,0.0,0.0,0.0,0.0,0.8435,0.8988,0.9432,0.9585,0.9608,0.9551,0.9398,0.9381,0.932,0.9164,0.9289,0.9256,0.896,0.9211,0.931,0.9157,0.9296,0.9378,0.9378,0.9518,0.9425,0.9449,0.9625,0.6527,0.0,0.0,0.0,0.0,0.0,0.0,0.0,0.0,0.0,0.0,0.0,0.0,0.0,0.0,0.0,0.0,0.0,0.0,0.0,0.0,0.0,0.0,0.0,0.0,0.0,0.0,0.0,0.0,0.0,0.0,0.0,0.0,0.0,0.0,0.0,0.0,0.0,0.0,0.0,0.0,0.0,0.0,0.0,0.0,0.1205,0.2688,0.4402,0.4127,0.4222,0.4686,0.4937,0.4237,0.2642,0.0782,0.0,0.0,0.0,0.0,0.0,0.0,0.0,0.0,0.0,0.0,0.0,0.0,0.0,0.0,0.0,0.0,0.0,0.0,0.0,0.0,0.0,0.0625,0.169,0.3366,0.4465,0.0,0.0,0.0,0.0,0.0,0.0,0.0,0.0,0.0,0.0,0.0,0.0,0.0,0.8611,0.8882,0.9157,0.9412,0.9449,0.9391,0.9239,0.9222,0.9164,0.9018,0.9042,0.9035,0.8947,0.9022,0.9049,0.9005,0.914,0.9181,0.9096,0.9198,0.9158,0.9076,0.9129,0.6111,0.0,0.0,0.0,0.0,0.0,0.0,0.0,0.0,0.0,0.0,0.0,0.0,0.0,0.0,0.0,0.0,0.0,0.0,0.0,0.0,0.0,0.0,0.0,0.0,0.0,0.0,0.0,0.0,0.0,-0.337,0.0,0.0,0.0,0.0,0.0,0.0,0.0,0.0,0.0,0.0,0.0,0.0,0.0,0.0,0.0,0.07,0.2203,0.3835,0.4626,0.4527,0.4904,0.451,0.3332,0.1042,0.0,0.0,0.0,0.0,0.0,0.0,0.0,0.0,0.0,0.0,0.0,0.0,0.0,0.0,0.0,0.0,0.0,0.0,0.0,0.0,0.0,0.0,0.0728,0.4113,0.0,0.0,0.0,0.0,0.0,0.0,0.0,0.0,0.0,0.0,0.0,0.8326,0.8401,0.0,0.8767,0.8927,0.9086,0.9266,0.9289,0.9235,0.9086,0.9066,0.9032,0.8947,0.8882,0.8849,0.8849,0.8791,0.876,0.8771,0.8855,0.8982,0.892,0.9071,0.9052,0.8851,0.6529,0.3582,0.0,0.0,0.0,0.0,0.0,0.0,0.0,0.0,0.0,0.0,0.0,0.0,0.0,0.0,0.0,0.0,0.0,0.0,0.0,0.0,0.0,0.0,0.0,0.0,0.0,0.0,0.0,0.0,0.0,-0.3592,-0.3602,0.0,0.0,0.0,0.0,0.0,0.0,0.0,0.0,0.0,0.0,0.0,0.0,0.0,0.0,0.0,0.0,0.2995,0.4374,0.4242,0.4955,0.496,0.4353,0.1376,0.0135,0.0315,0.0112,0.0,0.0,0.0,0.0,0.0,0.0,0.0,0.0,0.0,0.0,0.0,0.0,0.0,0.0,0.0,0.0,0.0,0.0,0.0,0.0614,0.3332,0.0,0.0,0.0,0.0,0.0,0.0,0.0,0.0,0.0,0.0,0.8557,0.8669,0.8598,0.8611,0.8876,0.9028,0.9113,0.9113,0.91,0.9042,0.8913,0.8896,0.8896,0.8896,0.8771,0.8689,0.8689,0.856,0.8492,0.8622,0.8625,0.8639,0.8881,0.8932,0.8682,0.8125,0.2701,0.0,0.0,0.0,0.0,0.0,0.0,0.0,0.0,0.0,0.0,0.0,0.0,0.0,0.0,0.0,0.0,0.0,0.0,0.0,0.0,0.0,0.0,0.0,0.0,0.0,0.0,0.0,0.0,0.0,0.0,0.0,0.0,0.0,0.0,0.0,0.0,0.0,0.0,0.0,0.0,0.0,0.0,0.0,0.0,0.0,0.0,0.0,0.0,0.0683,0.1495,0.2429,0.3507,0.4179,0.4342,0.135,0.1055,0.2724,0.0814,0.0,0.0,0.0,0.0,0.0,0.0,0.0,0.0,0.0,0.0,0.0,0.0,0.0,0.0,0.0,0.0,0.0,0.0,0.0,0.0161,0.0818,0.305,0.0,0.0,0.0,0.0,0.0,0.0,0.0,0.0,0.0,0.8777,0.857,0.8699,0.8821,0.8767,0.8784,0.8804,0.8804,0.8703,0.8615,0.8584,0.8581,0.8581,0.8581,0.855,0.853,0.853,0.8503,0.8492,0.8622,0.8625,0.8646,0.8906,0.8945,0.6671,0.1931,0.0648,0.0,0.0,0.0,0.0,0.0,0.0,0.0,0.0,0.0,0.0,0.0,0.0,0.0,0.0,0.0,0.0,0.0,0.0,0.0,0.0,0.0,0.0,0.0,0.0,0.0,0.0,0.0,0.0,0.0,0.0,0.0,0.0,0.0,0.0,0.0,0.0,0.0,0.0,0.0,0.0,0.0,0.0,0.0,0.0,0.0,0.0,0.0,0.0,0.0,0.1043,0.0,0.3735,0.3808,0.332,0.1641,0.1579,0.2717,0.2027,0.1054,0.0,0.0,0.0,0.0,0.0,0.0,0.0135,0.1303,0.0,0.0,0.0,0.0,0.0,0.0,0.0,0.0,0.0,0.0,0.0,0.0,0.0,0.0,0.0,0.0,0.0,0.0,0.0,0.0,0.0,0.8574,0.8672,0.8513,0.8611,0.8696,0.8615,0.8601,0.8601,0.8601,0.8533,0.8482,0.8482,0.8482,0.8482,0.8482,0.8421,0.8381,0.8381,0.8323,0.8292,0.8313,0.8323,0.7182,0.4683,0.4618,0.316,0.0,0.0,0.0,0.0,0.0,0.0,0.0,0.0,0.0,0.0,0.0,0.0,0.0,0.0,0.0,0.0,0.0,0.0,0.0,0.0,0.0,0.0,0.0,0.0,0.0,0.0,0.0,0.0,0.0,0.0,0.0,0.0,0.0,0.0,0.0,0.0,0.0,0.0,0.0,0.0,0.0,0.0,0.0,0.0,0.0,0.0,0.0,-0.0423,-0.0423,0.0,0.0,0.0,0.0,0.0,0.0,0.2483,0.2298,0.2153,0.2182,0.3174,0.2336,0.0282,0.0094,0.0,0.0,0.0,0.0278,0.0899,0.2884,0.2294,0.0539,0.0134,0.0,0.0,0.0,0.0,0.0,0.0,0.0,0.0,0.0,0.0,0.0,0.0,0.0,0.0,0.0,0.0,0.0,0.8269,0.8482,0.8479,0.8452,0.8465,0.8472,0.8452,0.8445,0.8445,0.8445,0.8421,0.8404,0.8404,0.8404,0.8404,0.8404,0.8299,0.8235,0.8238,0.8133,0.7979,0.7995,0.8016,0.5564,0.0202,0.0,0.0,0.0,0.0,0.0,0.0,0.0,0.0,0.0,0.0,0.0,0.0,0.0,0.0,0.0,0.0,0.0,0.0,0.0,0.0,0.0,0.0,0.0,0.0,0.0,0.0,0.0,0.0,0.0,0.0,0.0,0.0,0.0,0.0,0.0,0.0,0.0,0.0,0.0,0.0,0.0,0.0,0.0,0.0,0.0,0.0,0.0,0.0,0.0,-0.2049,-0.2097,0.0,0.0,0.0,0.0,0.0,0.0,0.3747,0.0,0.3569,0.3355,0.3544,0.2816,0.1485,0.0406,0.0,0.0,0.0,0.1309,0.3158,0.3478,0.3385,0.2792,0.0716,0.0,0.0,0.0,0.0,0.0,0.0,0.0,0.0,0.0,0.0,0.0,0.0,0.0,0.0,0.0,0.0,0.0,0.0,0.836,0.8361,0.8336,0.8408,0.8442,0.8319,0.8299,0.8299,0.8299,0.8184,0.8099,0.8099,0.8099,0.8099,0.8099,0.8082,0.8079,0.7999,0.7985,0.7985,0.8019,0.8022,0.5564,0.0202,0.0,0.0,0.0,0.0,0.0,0.0,0.0,0.0,0.0,0.0,0.0,0.0,0.0,0.0,0.0,0.0,0.0,0.0,0.0,0.0,0.0,0.0,0.0,0.0,0.0,0.0,0.0,0.0,0.0,0.0,0.0,0.0,0.0,0.0,0.0,0.0,0.0,0.0,0.0,0.0,0.0,0.0,0.0,0.0,0.0,0.0,0.0,0.0,0.0,-0.2359,-0.306,-0.2039,0.0,0.0,0.0,0.4287,0.4849,0.0,0.0,0.0,0.0,0.3701,0.3312,0.2635,0.0759,0.0,0.0,0.0,0.0674,0.1753,0.3105,0.3609,0.3337,0.1611,0.0581,0.0,0.0,0.0,0.0,0.0,0.0,0.0,0.0,0.0,0.0,0.0,0.0,0.0,0.0,0.0,0.0695,0.318,0.4869,0.6387,0.788,0.8225,0.8241,0.818,0.817,0.817,0.817,0.8012,0.7965,0.7959,0.7959,0.7952,0.8041,0.7952,0.7962,0.7972,0.7992,0.8009,0.8026,0.5159,0.2424,0.0101,0.0,0.0,0.0,0.0,0.0,0.0,0.0,0.0,0.0,0.0,0.0,0.0,0.0,0.0,0.0,0.0,0.0,0.0,0.0,0.0,0.0,0.0,0.0,0.0,0.0,0.0,0.0,0.0,0.0,0.0,0.0,0.0,0.0,0.0,0.0,0.0,0.0,0.0,0.0,0.0,0.0,0.0,0.0,0.0,0.0,0.0,0.0,0.0,0.0,-0.2066,-0.3296,0.0,0.0,0.0,0.2073,0.3785,0.4752,0.0,0.4504,0.0,0.0,0.0,0.0,0.3449,0.1658,0.0714,0.0447,0.0448,0.0627,0.1165,0.296,0.3598,0.3465,0.2551,0.125,0.0,0.0,0.0,0.0,0.0,0.0,0.0,0.0,0.0,0.0,0.0,0.0,0.0,0.0,0.0,0.0,0.0,0.157,0.3578,0.557,0.6517,0.6962,0.6962,0.6962,0.6962,0.6962,0.6936,0.7015,0.7006,0.7585,0.7963,0.8045,0.7994,0.8028,0.8028,0.7989,0.7394,0.6034,0.2206,0.0,0.0,0.0,0.0,0.0,0.0,0.0,0.0,0.0,0.0,0.0,0.0,0.0,0.0,0.0,0.0,0.0,0.0,0.0,0.0,0.0,0.0991,0.226,0.0628,0.0,0.0,0.0,0.0,0.0,0.0,0.0,0.0,0.0,0.0,0.0,0.0,0.0,0.0,0.0,0.0,0.0,0.0,0.0,0.0,0.0,0.0,0.0,0.0,0.0,0.0,0.0,-0.1252,0.0,0.0,0.0,0.0,0.0159,0.1695,0.3419,0.5378,0.4772,0.4216,0.3816,0.0,0.0,0.0,0.0,0.2724,0.1697,0.1697,0.241,0.3445,0.0,0.0,0.0,0.0,0.0,0.0,0.0,0.0,0.0,0.0,0.0,0.0,0.0,0.0,0.0,0.0,0.0,0.0,0.0,0.0,0.0,0.0,0.0094,0.0287,0.0382,0.2454,0.4218,0.4218,0.4218,0.4218,0.4218,0.4256,0.4212,0.4212,0.648,0.797,0.797,0.8004,0.7997,0.801,0.8045,0.5824,0.0689,0.0197,0.0,0.0,0.0,0.0,0.0,0.0,0.0,0.0,0.0,0.0,0.0,0.0,0.0,0.0,0.0,0.0,0.0,0.0,0.0,0.0,0.0,0.3782,0.8567,0.2348,0.0,0.0,0.0,0.0,0.0,0.0,0.0,0.0,0.0,0.0,0.0,0.0,0.0,0.0,0.0,0.0,0.0,0.0,0.0,0.0,0.0,0.0,0.0,0.0,0.0,0.0,0.0,-0.0403,0.0,0.0,0.0,-0.1127,0.2318,0.2053,0.2792,0.4262,0.4304,0.4287,0.4251,0.3816,0.0,0.0,0.0,0.0,0.0,0.0,0.0,0.0,0.0,0.0,0.0,0.0,0.0,0.0,0.0,0.0,0.0,0.0,0.0,0.0,0.0,0.0,0.0,0.0,0.0,0.0,0.0,0.0,0.0,0.0,0.0,0.0,0.0,0.0778,0.1477,0.146,0.1472,0.1477,0.1459,0.1448,0.1442,0.144,0.2292,0.3518,0.5235,0.7028,0.7959,0.7962,0.4859,0.2038,0.0096,0.0,0.0,0.0,0.0,0.0,0.0,0.0,0.0,0.0,0.0,0.0,0.0,0.0,0.0,0.0,0.0,0.0,0.0,0.0,0.0,0.0,0.0,0.3996,0.9559,0.7155,0.3611,0.0,0.0,0.0,0.0,0.0,0.0,0.0,0.0,0.0,0.0,0.0,0.0,0.0,0.0,0.0,0.0,0.0,0.0,0.0,0.0,0.0,0.0,0.0,0.0,0.0,0.0,0.0,0.0,0.0,0.0,0.0,0.0,0.2775,0.2906,0.3799,0.3996,0.4148,0.0,0.0,0.0,0.3649,0.0,0.0,0.3734,0.0,0.0,0.0,0.0,0.0,0.0,0.0,0.0,0.0,0.0,0.0,0.0,0.0,0.0,0.0,0.0,0.0,0.0,0.0,0.0,-0.2156,-0.14,0.0,-0.1674,-0.117,-0.0503,0.0,0.0,0.0,0.0,0.0,0.0,0.0,0.0,0.0,0.0,0.0,0.0,0.0739,0.2491,0.4287,0.5349,0.5349,0.1988,0.0,0.0,0.0,0.0,0.0,0.0,0.0,0.0,0.0,0.0,0.0,0.0,0.0,0.0,0.0,0.0,0.0,0.0,0.0,0.0,0.0,0.0,0.0,0.0,0.336,0.8242,0.939,0.7096,0.2998,0.0,0.0,0.0,0.0,0.0,0.0,0.0,0.0,0.0,0.0,0.0,0.0,0.0,0.0,0.0,0.0,0.0,0.0,0.0,0.0,0.0,0.0,0.0,0.0,0.0,0.0,0.0,-0.0,-0.2339,0.0,0.0,0.0,0.3821,0.418,0.3924,0.3785,0.3795,0.0,0.3927,0.3799,0.0,0.3887,0.4043,0.0,0.0,0.0,0.457,0.4522,0.0,0.4113,0.0,0.0,0.0,0.0,0.0,0.0,0.0,0.0,0.0,0.0,0.0,0.0,0.0,0.0,-0.3062,0.0,-0.4929,-0.3454,-0.1535,-0.0163,-0.0083,-0.0,0.0,0.0,0.0,0.0,0.0,0.0,0.0,0.0,0.0,0.0,0.0,0.0,0.0,0.0,0.0,0.0,0.0,0.0,0.0,0.0,0.0,0.0,0.0,0.0,0.0,0.0,0.0,0.0,0.0,0.0,0.0,0.0,0.0,0.0,0.0,0.0,0.0,0.0,0.0,0.1897,0.5174,0.8518,0.9818,0.8906,0.0,0.0,0.0,0.0,0.0,0.0,0.0,0.0,0.0,0.0,0.0,0.0,0.0,0.0,0.0938,0.009,0.0,0.0,0.0,0.0,0.0,0.0,0.0,0.0,0.0,0.0,0.0,-0.0,-0.0674,0.0135,0.2323,0.3197,0.3651,0.0,0.368,0.3639,0.3643,0.3683,0.0,0.0,0.3836,0.3948,0.0,0.0,0.0,0.0,0.0,0.4535,0.4619,0.0,0.4142,0.3708,0.0,0.0,0.0,0.0,0.0,0.0,0.0,0.0,0.0,0.0,0.0,0.0,-0.3586,-0.4165,-0.416,-0.4348,-0.4515,-0.4003,-0.2308,-0.0866,0.0,0.0,0.0,0.0,0.0,0.0,0.0,0.0,0.0,0.0,0.0,0.0,0.0,0.0,0.0,0.0,0.0,0.0,0.0,0.0,0.0,0.0,0.0,0.0,0.0,0.0,0.0,0.0,0.0,0.0,0.0,0.0,0.0,0.0,0.0,0.0,0.0,0.0,0.0,0.0584,0.2012,0.7752,0.9849,0.9558,0.0,0.0,0.0,0.0,0.0,0.0,0.0,0.0,0.0,0.0,0.0,0.0,0.0,0.0,0.0,0.1567,0.0582,0.0,0.0,0.0,0.0,0.0,0.0,0.0,0.0,0.0,0.0,0.0,0.0,0.0359,0.1071,0.2779,0.3592,0.3581,0.0,0.0,0.0,0.0,0.0,0.0,0.3826,0.0,0.0,0.4311,0.447,0.0,0.0,0.0,0.4938,0.4712,0.4598,0.0,0.0,0.0,0.0,0.0,0.0,0.0,0.0,0.0,0.0,0.0,0.0,0.0,-0.2853,-0.3562,-0.3968,-0.4612,-0.5142,-0.5045,-0.3285,-0.2338,-0.1725,-0.1197,-0.0482,0.0,0.0,0.0,0.0,0.0,0.0,0.0,0.0,0.0,0.0,0.0,0.0,0.0,0.0,0.0,0.0,0.0,0.0,0.0,0.0,0.0,0.0,0.0,0.0,0.0,0.0,0.0,0.0,0.0,0.0,0.0,0.0,0.0,0.0,0.0,0.0,0.0,0.0466,0.4306,0.7427,0.9358,0.0,0.0,0.0,0.0,0.0,0.0,0.0,0.0,0.0,0.0,0.0,0.0,0.0,0.0,0.0,0.0,0.1523,0.0134,0.0,0.0,0.0,0.0,0.0,0.0,0.0,0.0,0.0,0.0,0.0,0.0,0.0045,0.2328,0.3452,0.3581,0.0,0.0,0.0,0.0,0.0,0.3792,0.3812,0.4097,0.0,0.0,0.4958,0.5335,0.5335,0.5388,0.5335,0.5011,0.4743,0.0,0.0,0.0,0.0,0.0,0.0,0.0,0.0,0.0,0.0,0.0,-0.0396,0.0,-0.1818,-0.3093,-0.4104,-0.4362,-0.4406,-0.4222,-0.3549,-0.3916,-0.4033,-0.3031,-0.1591,-0.0445,-0.0082,0.0,0.0,0.0,0.0,0.0,0.0,0.0,0.0,0.0,0.0,0.0,0.0,0.0,0.0,0.0,0.0,0.0,0.0,0.0,0.0,0.0,0.0,0.0,0.0,0.0,0.0,0.0,0.0,0.0,0.0,0.0,0.0,0.0,0.0,0.0,0.0,0.0,0.3735,0.7889,0.0,0.0,0.0,0.0,0.0,0.0,0.0,0.0,0.0,0.0,0.0,0.0,0.0,0.0,0.0,0.0,0.2281,0.1028,0.0045,0.0,0.0,0.0,0.0,0.0,0.0,0.0,0.0,0.0,0.0,0.0,0.0045,0.1474,0.2679,0.3581,0.3581,0.0,0.0,0.0,0.0,0.3802,0.3924,0.0,0.471,0.4728,0.4894,0.5176,0.5176,0.5294,0.5333,0.5123,0.4793,0.4429,0.0,0.0,0.0,0.0,0.0,0.0,0.0,0.0,0.0,0.0,0.0,0.0,-0.3655,-0.399,-0.4018,-0.4033,-0.3899,-0.3827,-0.3986,-0.388,-0.3795,-0.3889,-0.3928,-0.299,-0.0369,0.0,0.0,0.0,0.0,0.0,0.0,0.0,0.0,0.0,0.0,0.0,0.0,0.0,0.0,0.0,0.0,0.0,0.0,0.0,0.0,0.0,0.0,0.0,0.0,0.0,0.0,0.0,0.0,0.0,0.0,0.0,0.0,0.0,0.0,0.0,0.0,0.0,0.0835,0.1692,0.0,0.0,0.0,0.0,0.0,0.0,0.0,0.0,0.0,0.0,0.0,0.0,0.0,0.0,0.0,0.0,0.0,0.0,0.0,0.0,0.0,0.0,0.0,0.0,0.0,0.0,0.0,0.0,0.0,0.0,0.0045,0.1251,0.2457,0.3588,0.3581,0.0,0.0,0.0,0.3887,0.3976,0.4022,0.0,0.4536,0.472,0.4945,0.5085,0.522,0.5298,0.5359,0.5098,0.3776,0.0,0.0,0.2422,0.0,0.0,0.0,0.0,0.0,0.0,0.0,-0.4506,0.0,0.0,0.0,-0.4027,-0.3604,-0.3008,-0.3274,-0.3705,-0.4046,-0.3826,-0.367,-0.3883,-0.4103,-0.3771,-0.241,-0.0957,0.0,0.0,-0.1332,-0.1621,-0.0143,0.0,0.0,0.0,0.0,0.0,0.0,0.0,0.0,0.0,0.0,0.0,0.0,0.0,0.0,0.0,0.0,0.0,0.0,0.0,0.0,0.0,0.0,0.0,0.0,0.0,0.0,0.0,0.0,0.0,0.0,0.0,0.0,0.0,0.0,0.0,0.0,0.0,0.0,0.0,0.0,0.0,0.0,0.0,0.0,0.0,0.0,0.0,0.0,0.0,0.0,0.0,0.0,0.0,0.0,0.0048,0.0,0.0,0.0,0.0,0.0,0.0,0.0,0.0,0.0,0.0984,0.2235,0.3598,0.3585,0.0,0.0,0.0,0.0,0.4244,0.0,0.425,0.4458,0.4807,0.5053,0.5206,0.5321,0.5432,0.5329,0.5111,0.2976,0.0911,0.2983,0.1969,0.0,0.0,0.0,0.0,0.0,0.0,0.0,0.0,0.0,-0.411,0.0,0.0,0.0,-0.2356,-0.2603,-0.3024,0.0,0.0,-0.3339,-0.3562,-0.3621,-0.3767,-0.4264,-0.2334,-0.0773,-0.0459,-0.2553,-0.3177,-0.1094,-0.0344,0.0,0.0,0.0,0.0,0.0,0.0,0.0,0.0,0.0,0.0,0.0,0.0,0.0,0.0,0.0,0.0,0.0,0.0,0.0,0.0,0.0,0.0,0.0,0.0,0.0,0.0,0.0,0.0,0.0,0.0,0.0,0.0,-0.3615,-0.1889,0.0,0.0,0.0,0.0,0.0,0.0,0.0,0.0,0.0,0.0,0.0,0.0,0.0,0.0,0.0,0.0,0.4431,0.0,0.0,0.0,0.0,0.0,0.0,0.0,0.0,0.0,0.0,0.0,0.0,0.0134,0.1431,0.3598,0.3585,0.0,0.0,0.0,0.4182,0.0,0.4714,0.4982,0.0,0.5098,0.5203,0.5342,0.5422,0.5428,0.5369,0.0,0.4031,0.2203,0.0,0.0262,0.0,0.0,0.0,0.0,0.0,0.0,0.0,0.0,-0.4538,0.0,0.0,0.0,-0.2621,-0.355,0.0,-0.0762,0.0,0.0,0.0,-0.3443,-0.3612,-0.3617,-0.3697,-0.3881,-0.3485,-0.2125,-0.2037,-0.2585,-0.3877,-0.154,0.0,0.0,0.0,0.0,0.0,0.0,0.0,0.0,0.0,0.0,0.0,0.0,0.0,0.0,0.0,0.0,0.0,0.0,0.0,0.0,0.0,0.0,0.0,0.0,0.0,0.0,0.0,0.0,0.0,0.0,0.0,0.0,0.0,0.0448,0.0,0.0,0.0,0.0,0.0,0.0,0.0,0.0,0.0,0.0,0.0,0.0,0.0,0.0,0.0,0.4076,0.0,0.0,0.0,0.0,0.0977,0.0,0.0,0.0,0.0,0.0,0.0,0.0,0.0,0.0,0.1008,0.2788,0.3366,0.0,0.4043,0.0,0.4462,0.0,0.0,0.0,0.0,0.5237,0.5304,0.5428,0.5428,0.542,0.5498,0.0,0.4229,0.0,0.0,0.0,0.0,0.0,0.0,0.0,0.0,0.0,0.0,0.0,0.0,0.0,-0.4381,0.0,-0.3301,0.0,0.0,0.0,0.0,0.0,0.0,0.0,-0.3597,-0.3358,-0.2664,-0.2755,-0.2937,-0.2997,-0.304,-0.3096,-0.3134,-0.1239,-0.0606,-0.1967,-0.2718,-0.2232,-0.0132,0.0,0.0,0.0,0.0,0.0,0.0,0.0,0.0,0.0,0.0,0.0,0.0,0.0,0.0,0.0,0.0,0.0,0.0,0.0,0.0,0.0,0.0,0.0,0.0,0.0,0.0,0.0,0.0,0.0,0.0,0.0,0.0,0.0,0.0,0.0,0.0,0.0,0.0,0.0,0.4945,0.4887,0.0,0.0,0.4735,0.4893,0.0,0.0,0.4595,0.4724,0.2581,0.0,0.0,0.0,0.0,0.0,0.0,0.0425,0.1213,0.1222,0.1767,0.277,0.0,0.3878,0.4175,0.0,0.4723,0.4677,0.505,0.4874,0.4499,0.5124,0.5432,0.5432,0.541,0.5494,0.5606,0.5496,0.4293,0.2362,0.0585,0.0,0.0,0.0,0.0,0.0,0.0,0.0,0.0,0.0,0.0,0.0,0.0,0.0,0.0,0.0,0.0,0.0,0.0,0.0,-0.2585,-0.3465,0.0,-0.2546,-0.2326,-0.2014,-0.2117,-0.3017,-0.3624,-0.3649,-0.2669,-0.1026,-0.072,-0.2492,-0.4177,-0.4094,-0.162,-0.0547,0.0,0.0,0.0,0.0,0.0,0.0,0.0,0.0,0.0,0.0,0.0,0.0,0.0,0.0,0.0,0.0,0.0,0.0,0.0,0.0,0.0,0.0,0.0,0.0,0.0,0.0,0.0,0.1934,0.0,0.0,0.0,0.0,0.0,0.0,0.0,0.0,0.0,0.0,0.0,0.0,0.0,0.0,0.0,0.4972,0.5114,0.0,0.4615,0.4502,0.4769,0.3413,0.0,0.0,0.0,0.0,0.0,0.1514,0.4379,0.4372,0.426,0.4143,0.405,0.415,0.446,0.4521,0.4743,0.5125,0.5301,0.4353,0.2943,0.0,0.5372,0.5449,0.5532,0.5586,0.5637,0.5731,0.438,0.2409,0.0604,0.0,0.0,0.0,0.0,0.0,0.0,0.0,-0.087,-0.4506,-0.505,0.0,0.0,0.0,-0.471,0.0,0.0,0.0,0.0,0.0,-0.3578,-0.3577,-0.1654,0.0,0.0,-0.2523,-0.1827,-0.1847,-0.3112,-0.39,-0.3566,-0.1386,-0.0052,-0.0112,-0.2871,-0.4724,-0.5172,-0.1905,0.0,0.0,0.0,0.0,0.0,0.0,0.0,0.0,0.0,0.0,0.0,0.0,0.0,0.0,0.0,0.0,0.0,0.0,0.0,0.0,0.0,0.0,0.0,0.0,0.0,0.0,0.0,0.0,0.0,0.0,0.0,0.0,0.0,0.4263,0.0,0.0,0.0,0.0,0.0,0.5878,0.5939,0.0,0.0,0.5521,0.5572,0.5298,0.0,0.0,0.0,0.4609,0.0,0.0,0.0,0.0,0.1478,0.199,0.2977,0.4002,0.4477,0.4385,0.4341,0.4446,0.0,0.0,0.0,0.0,0.0,0.409,0.4241,0.0,0.5514,0.5603,0.5655,0.5722,0.5828,0.5806,0.451,0.2626,0.062,0.0,0.0,0.0,0.0,0.0,0.0,0.0,-0.029,-0.1494,-0.352,-0.5068,-0.4671,-0.4631,0.0,0.0,0.0,0.0,0.0,0.0,-0.3594,-0.3587,-0.2926,-0.2111,0.0,-0.0854,-0.0587,-0.0593,-0.2454,0.0,-0.3589,-0.2882,-0.2055,-0.1254,-0.2316,-0.3498,-0.4711,-0.4024,-0.2505,-0.0073,0.0,0.0,0.0,0.0,0.0,0.0,0.0,0.0,0.0,0.0,0.0,0.0,0.0,0.0,0.0,0.0,0.0,0.0,0.0,0.0,0.0,0.0,0.0,0.0,0.1861,0.0,0.0,0.0,0.0,0.0,0.0,0.0,0.0,0.0,0.5525,0.0,0.6369,0.0,0.6461,0.0,0.6298,0.6078,0.5969,0.5735,0.0,0.5511,0.5335,0.0,0.0,0.0,0.0,0.0,0.0,0.3074,0.3135,0.4055,0.452,0.4473,0.4484,0.4535,0.4629,0.0,0.5016,0.0,0.0,0.4426,0.0,0.4897,0.4953,0.5109,0.5607,0.583,0.5966,0.5974,0.4722,0.2734,0.0627,0.0,0.0,0.0,0.0,0.0,0.0,0.0,0.0,0.0,-0.1724,-0.3572,-0.3786,-0.3766,-0.374,-0.3917,0.0,0.0,0.0,-0.3354,-0.3217,-0.3556,-0.3615,-0.2747,0.0,0.0,0.0,0.0,-0.1387,0.0,0.0,-0.3579,-0.3112,-0.1893,-0.2467,-0.3372,-0.4548,-0.4988,-0.3895,-0.1015,-0.0298,0.0,0.0,0.0,0.0,0.0,0.0,0.0,0.0,0.0,0.0,0.0,0.0,0.0,0.0,0.0,0.0,0.0,0.0,0.0,0.0,0.0,0.0,0.0,0.0,0.0,0.0,0.0,0.4073,0.0,0.0,0.0,0.5213,0.0,0.5796,0.6251,0.6685,0.6742,0.6854,0.7129,0.6881,0.659,0.6302,0.6139,0.0,0.0,0.5532,0.5543,0.5413,0.0,0.0,0.0,0.0,0.4604,0.4766,0.4615,0.448,0.4519,0.4473,0.0,0.4549,0.4918,0.4989,0.4942,0.5084,0.5246,0.5312,0.4331,0.3958,0.415,0.5381,0.5911,0.6067,0.6237,0.4859,0.2734,0.0627,0.0,0.0,0.0,0.0,0.0,0.0,0.0,0.0,0.0,0.0,-0.0436,-0.2177,-0.2317,-0.2103,-0.2102,-0.2339,-0.2457,0.0,-0.2073,-0.2372,-0.3257,-0.3436,-0.2613,-0.0314,0.0,0.0,0.0,0.0,0.0,0.0,-0.3519,-0.3067,-0.1794,-0.3104,-0.4233,0.0,-0.4869,-0.422,-0.2748,-0.0969,0.0,0.0,0.0,0.0,0.0,0.0,0.0,0.0,0.0,0.0,0.0,0.0,0.0,0.0,0.0,0.0,0.0,0.0,0.0,0.0,0.0,0.0,0.0,0.3614,0.3878,0.4172,0.0,0.4412,0.4457,0.0,0.0,0.0,0.0,0.6441,0.6943,0.7173,0.7299,0.7353,0.7316,0.7041,0.0,0.0,0.0,0.0,0.5708,0.5833,0.5708,0.5397,0.5422,0.0,0.5021,0.0,0.475,0.4752,0.4657,0.4575,0.4519,0.4522,0.4528,0.4636,0.4779,0.5008,0.5297,0.5322,0.5325,0.5387,0.5095,0.5294,0.5755,0.603,0.6156,0.621,0.6264,0.4854,0.2734,0.0626,0.0,0.0,0.0,0.0,0.0,0.0,0.0,0.0,0.0,0.0,-0.0132,-0.0598,-0.0655,-0.0575,-0.0558,-0.0628,-0.0682,-0.0563,-0.0549,-0.0635,0.0,0.0,0.0,0.0,0.0,0.0,0.0,0.0,-0.0224,-0.0852,-0.2525,-0.2718,-0.0635,-0.2459,-0.3873,-0.4348,-0.4952,-0.4481,-0.2742,-0.0959,0.0,0.0,0.0,0.0,0.0,0.0,0.0,0.0,0.0,0.0,0.0,0.0,0.0,0.0,0.0,0.0,0.0,0.0,0.0,0.0,0.0,0.0,0.0,0.4202,0.0,0.0,0.4548,0.0,0.0,0.506,0.5423,0.0,0.6268,0.68,0.0,0.7448,0.7489,0.7516,0.756,0.7231,0.0,0.6997,0.0,0.0,0.6112,0.6054,0.585,0.5471,0.5463,0.0,0.5233,0.0,0.4935,0.4789,0.4721,0.4609,0.4519,0.4519,0.4548,0.4701,0.4826,0.5154,0.5524,0.5408,0.5521,0.0,0.5567,0.5822,0.6169,0.6232,0.628,0.6271,0.6281,0.5497,0.4001,0.094,0.0,0.0,0.0,0.0,0.0,0.0,0.0,0.0,0.0,0.0,0.0,0.0,0.0,0.0,0.0,0.0,0.0,0.0,0.0,0.0,0.0,0.0,0.0,0.0,0.0,0.0,0.0,0.0,0.0,0.0,-0.1215,-0.1663,-0.0848,-0.2172,-0.3329,-0.4167,-0.4783,-0.482,-0.405,-0.1412,0.0,0.0,0.0,0.0,0.0,0.0,0.0,0.0,0.0,0.0,0.0,0.0,0.0,0.0,0.0,0.0,0.0,0.0,0.0,0.0,0.0,0.0,0.0,0.4494,0.0,0.0,0.0,0.0,0.0,0.0,0.584,0.0,0.6685,0.0,0.7329,0.7597,0.7509,0.7533,0.7787,0.0,0.7248,0.7363,0.7092,0.6793,0.6485,0.6186,0.5891,0.5596,0.546,0.5449,0.0,0.0,0.5087,0.4945,0.4792,0.464,0.4546,0.0,0.0,0.0,0.5026,0.5312,0.5652,0.5547,0.5658,0.5965,0.5868,0.5928,0.6078,0.6227,0.6281,0.6278,0.597,0.6071,0.5686,0.1963,0.0456,0.0,0.0,0.0,0.0,0.0,0.0,0.0,0.0,0.0,0.0,0.0,0.0,0.0,0.0,0.0,0.0,0.0,0.0,0.0,0.0,0.0,0.0,0.0,0.0,0.0,0.0,0.0,0.0,0.0,0.0,-0.045,-0.1485,-0.178,-0.2579,-0.4155,-0.4562,-0.5044,-0.5693,-0.2246,-0.0313,-0.0,0.0,0.0,0.0,0.0,0.0,0.0,0.0,0.0,0.0,0.0,0.0,0.0,0.0,0.0,0.0,0.0,0.0,0.0,0.0,0.0,0.0,0.0,0.0,0.0,0.0,0.0,0.5766,0.6407,0.6529,0.6668,0.7017,0.7431,0.7712,0.777,0.775,0.7753,0.7807,0.7634,0.0,0.0,0.0,0.0,0.6485,0.6186,0.5891,0.5596,0.5562,0.5488,0.0,0.0,0.5243,0.5091,0.4945,0.4799,0.4646,0.0,0.0,0.4718,0.5142,0.5404,0.5456,0.578,0.5902,0.6036,0.6169,0.6191,0.6227,0.6274,0.6288,0.6038,0.4224,0.487,0.6169,0.5445,0.2775,0.0,0.0,0.0,0.0,0.0,0.0,0.0,0.0,0.0,0.0,0.0,0.0,0.0,0.0,0.0,0.0,0.0,0.0,0.0,0.0,0.0,0.0,0.0,0.0,0.0,0.0,0.0,0.0,0.0,0.0,-0.0091,-0.0282,-0.0382,-0.1589,-0.429,-0.4529,-0.4719,-0.5049,-0.3399,-0.1721,-0.0,0.0,0.0,0.0,0.0,0.0,0.0,0.0,0.0,0.0,0.0,0.0,0.0,0.0,0.0,0.0,0.0,0.0,0.0,0.0,0.0,0.0,0.0,0.0,0.0,0.0,0.0,0.0,0.0,0.7065,0.7217,0.736,0.7567,0.7729,0.7801,0.7811,0.7841,0.7923,0.7655,0.7485,0.7489,0.7207,0.6905,0.6603,0.638,0.6122,0.5823,0.5667,0.5552,0.5481,0.5466,0.5281,0.5128,0.506,0.4952,0.4809,0.0,0.485,0.0,0.5321,0.5525,0.561,0.5909,0.6094,0.6152,0.6246,0.629,0.6264,0.6288,0.5572,0.4618,0.4709,0.4008,0.3066,0.3066,0.1622,0.0,0.0,0.0,0.0,0.0,0.0,0.0,0.0,0.0,0.0,0.0,0.0,0.0,0.0,0.0,0.0,0.0,0.0,0.0,0.0,0.0,0.0,0.0,0.0,0.0,0.0,0.0,0.0,0.0,0.0,0.0,0.0,0.0,-0.0962,-0.3209,-0.4182,-0.482,-0.5137,-0.37,-0.197,-0.0,0.0,0.0,0.0,0.0,0.0,0.0,0.0,0.0,0.0,0.0,0.0,0.0,0.0,0.0,0.0,0.0,0.0,0.0,0.0,0.0,0.0,0.0,0.5393,0.0,0.0,0.6146,0.658,0.7109,0.7721,0.7935,0.7689,0.7692,0.7736,0.7848,0.7862,0.7909,0.8028,0.7719,0.7539,0.7597,0.7343,0.7058,0.6763,0.6569,0.6349,0.6084,0.582,0.5654,0.0,0.0,0.5332,0.5179,0.5145,0.5053,0.4925,0.5101,0.5179,0.5203,0.5538,0.5749,0.5864,0.6017,0.6152,0.6338,0.6264,0.6264,0.6268,0.6295,0.5182,0.3917,0.4724,0.2752,0.0,0.0,0.0,0.0,0.0,0.0,0.0,0.0,0.0,0.0,0.0,0.0,0.0,0.0,0.0,0.0,0.0,0.0,0.0,0.0,0.0,0.0,0.0,0.0,0.0,0.0,0.0,0.0,0.0,0.0,0.0,0.0,0.0,0.0,0.0,0.0,-0.0677,-0.2247,-0.3857,-0.4931,-0.5256,-0.395,-0.2192,-0.0,0.0,0.0,0.0,0.0,0.0,0.0,0.0,0.0,0.0,0.0,0.0,0.0,0.0,0.0,0.0,0.0,0.0,0.0,0.0,0.0,0.0,0.0,0.0,0.0,0.0,0.0,0.6976,0.7302,0.8621,0.918,0.8076,0.7997,0.8001,0.8018,0.8018,0.8024,0.8038,0.8001,0.7868,0.7614,0.7444,0.7217,0.6919,0.6627,0.64,0.6244,0.6074,0.5857,0.0,0.0,0.5491,0.5338,0.5196,0.5053,0.4931,0.5213,0.5342,0.5369,0.5803,0.5996,0.602,0.6176,0.6247,0.6264,0.6274,0.6278,0.6281,0.6315,0.6165,0.5445,0.1806,0.0314,0.0,0.0,0.0,0.0,0.0,0.0,0.0,0.0,0.0,0.0,0.0,0.0,0.0,0.0,0.0,0.0,0.0,0.0,0.0,0.0,0.0,0.0,0.0,0.0,0.0,0.0,0.0,0.1014,0.3781,0.0,0.0,0.0,0.0,0.0,0.0,0.0,-0.079,-0.2557,-0.3829,-0.4666,-0.4922,-0.5052,-0.3458,-0.0,0.0,0.0,0.0,0.0,0.0,0.0,0.0,0.0,0.0,0.0,0.0,0.0,0.0,0.0,0.0,0.0,0.0,0.0,0.0,0.0,0.0,0.0,0.0,0.6617,0.6912,0.7694,0.845,0.8792,0.9431,0.9718,0.9304,0.9217,0.8924,0.8038,0.8038,0.8038,0.8038,0.7957,0.7851,0.7733,0.7502,0.7278,0.7065,0.677,0.6539,0.639,0.6152,0.5928,0.0,0.0,0.5559,0.5498,0.5433,0.5423,0.5454,0.5572,0.5627,0.5644,0.5915,0.603,0.6044,0.62,0.6338,0.6264,0.6274,0.6278,0.6285,0.6318,0.6329,0.5686,0.1414,0.0,0.0,0.0,0.0,0.0,0.0,0.0,0.0,0.0,0.0,0.0,0.0,0.0,0.0,0.0,0.0,0.0,0.0,0.1991,0.3804,0.3763,0.1727,0.0,0.0,0.0,0.0,0.0,0.0,0.0,0.4152,0.0,0.1968,0.0,0.0,0.0,0.0,0.0,-0.0695,-0.2326,-0.4219,-0.5179,-0.5019,-0.4247,-0.3744,-0.3787,-0.1245,0.0,0.0,0.0,0.0,0.0,0.0,0.0,0.0,0.0,0.0,0.0,0.0,0.0,0.0,0.0,0.0,0.0,0.0,0.0,0.0,0.7738,0.7926,0.8155,0.8446,0.9328,1.0057,1.0337,1.0835,1.097,1.0583,1.0872,1.0386,0.8233,0.8038,0.8038,0.8038,0.794,0.7858,0.7814,0.7577,0.737,0.7214,0.6926,0.6695,0.6542,0.6288,0.6064,0.5867,0.5769,0.5694,0.565,0.565,0.5705,0.5803,0.5847,0.5867,0.5878,0.603,0.6098,0.6108,0.6217,0.6338,0.6264,0.6278,0.5883,0.5407,0.6077,0.6332,0.5689,0.1413,0.0,0.0,0.0,0.0,0.0,0.0,0.0,0.0,0.0,0.0,0.0,0.0,0.0,0.0,0.0,0.0,0.0355,0.1563,0.4215,0.6302,0.6324,0.3877,0.1467,0.0202,0.0,0.0,0.0,0.0,0.0,0.2934,0.3952,0.3646,0.1559,0.0505,0.0,0.0,0.0,-0.0448,-0.147,-0.4039,-0.5359,-0.5179,-0.3891,-0.3653,-0.4424,-0.1529,0.0,0.0,0.0,0.0,0.0,0.0,0.0,0.0,0.0,0.0,0.0,0.0,0.0,0.0,0.0,0.0,0.0,0.0,0.0,0.0,0.9725,1.0664,1.1513,1.165,1.1691,1.1696,1.1701,1.2947,1.3392,1.2042,1.3006,1.2323,0.8428,0.8038,0.8038,0.8038,0.8038,0.7974,0.7821,0.7678,0.7529,0.7373,0.7085,0.6854,0.6702,0.6546,0.6322,0.6027,0.6023,0.5945,0.58,0.58,0.58,0.581,0.5959,0.6027,0.6037,0.6193,0.6335,0.6257,0.6261,0.6338,0.6264,0.6288,0.5018,0.3439,0.5517,0.6335,0.562,0.1412,0.0,0.0,0.0,0.0,0.0,0.0,0.0,0.0,0.0,0.0,0.0,0.0,0.0,0.0,0.0,0.0,0.1166,0.5349,0.6296,0.6282,0.6335,0.6226,0.4879,0.0676,0.0,0.0,0.0,0.0,0.0,0.0057,0.2692,0.4457,0.4449,0.1724,0.0,0.0,0.0,-0.0,-0.0,-0.2886,-0.4768,-0.5346,-0.4776,-0.3023,-0.0087,-0.0,0.0,0.0,0.0,0.0,0.0,0.0,0.0,0.0,0.0,0.0,0.0,0.0,0.0,0.0,0.0,0.0,0.0,0.0,0.0,0.0,0.9765,1.0246,1.0798,1.1636,1.2603,1.3177,1.3177,1.3628,1.3782,1.3295,1.2813,1.175,0.9608,0.941,0.9019,0.8038,0.8038,0.8018,0.797,0.7736,0.758,0.7529,0.7143,0.6905,0.6858,0.6603,0.638,0.6186,0.6081,0.6006,0.5959,0.6064,0.6115,0.6115,0.6166,0.6186,0.619,0.624,0.6338,0.6338,0.6338,0.6338,0.6264,0.6278,0.5246,0.3904,0.407,0.5037,0.5689,0.1411,0.0,0.0,0.0,0.0,0.0,0.0,0.0,0.0,0.0,0.0,0.0,0.0,0.0,0.0,0.0,0.0,0.1202,0.5457,0.629,0.6294,0.6311,0.6289,0.5845,0.4488,0.3065,0.2017,0.1835,0.1627,0.1957,0.3202,0.219,0.2233,0.43,0.1796,0.0,0.0,0.0,0.0,0.0,-0.0899,-0.2464,-0.4683,-0.5398,-0.3861,-0.0,0.0,0.0,0.0,0.0,0.0,0.0,0.0,0.0,0.0,0.0,0.0,0.0,0.0,0.0,0.0,0.0,0.0,0.0,0.0,0.0,0.0,1.056,1.1458,1.2425,1.3204,1.4076,1.4657,1.4657,1.4657,1.4657,1.4657,1.3884,1.2915,1.1648,1.1453,1.0578,0.8237,0.8432,0.8531,0.8038,0.7814,0.7678,0.7678,0.7302,0.7068,0.701,0.677,0.6542,0.6339,0.619,0.6115,0.6118,0.6217,0.6338,0.6338,0.6338,0.6338,0.6338,0.6338,0.6338,0.6338,0.6338,0.6338,0.6264,0.6274,0.5718,0.4927,0.4457,0.5179,0.5755,0.2348,0.0627,0.0,0.0,0.0,0.0,0.0,0.0,0.0,0.0,0.0,0.0,0.0,0.0,0.0,0.0,0.1228,0.2854,0.4704,0.574,0.6285,0.6274,0.6273,0.631,0.6309,0.5091,0.4089,0.3904,0.3613,0.3808,0.4942,0.2075,0.0731,0.2596,0.1093,0.0,0.0,0.0,0.0,0.0,0.0,-0.0869,-0.2723,-0.3524,-0.2626,-0.0,0.0,0.0,0.0,0.0,0.0,0.0,0.0,0.0,0.0,0.0,0.0,0.0,0.0,0.0,0.0,0.0,0.0,0.0,0.0,0.0,0.0,1.1848,1.3884,1.573,1.5825,1.5832,1.5832,1.5832,1.5832,1.5832,1.5832,1.5832,1.5337,1.407,1.3974,1.2517,0.8627,0.9316,0.9509,0.8233,0.7896,0.7811,0.7811,0.7529,0.7302,0.716,0.7007,0.6783,0.6488,0.6346,0.6352,0.6352,0.6268,0.6338,0.6338,0.6338,0.6338,0.6338,0.6338,0.6338,0.6338,0.6338,0.6338,0.6264,0.6274,0.6278,0.6278,0.6278,0.6285,0.5973,0.3988,0.1876,0.0,0.0,0.0,0.0,0.0,0.0,0.0,0.0,0.0,0.0,0.0,0.0,0.0079,0.0393,0.3461,0.5758,0.3754,0.4929,0.6274,0.6264,0.6338,0.6294,0.63,0.6122,0.5974,0.5819,0.56,0.5446,0.5431,0.2441,0.028,0.0,0.0,0.0,0.0,0.0,0.0,0.0,0.0,0.0,0.0,0.0,0.0,0.0,0.0,0.0,0.0,0.0,0.0,0.0,0.0,0.0,0.0,0.0,0.0,0.0,0.0,0.0,0.0,0.0,0.0,0.0,0.0,0.0,0.0,1.175,1.3204,1.4657,1.5635,1.5832,1.5832,1.5832,1.5832,1.5832,1.5832,1.5832,1.5337,1.407,1.4752,1.4172,1.1263,1.0391,0.9899,0.9509,0.8474,0.7811,0.7811,0.7529,0.7353,0.7319,0.7061,0.6834,0.6647,0.6498,0.6424,0.642,0.6312,0.6338,0.6338,0.6338,0.6338,0.6338,0.6338,0.6338,0.6338,0.6338,0.6338,0.6338,0.6264,0.6264,0.6264,0.6264,0.6274,0.62,0.5721,0.3049,0.0,0.0,0.0,0.0,0.0,0.0,0.0,0.0,0.0,0.0,0.0,0.0,0.0864,0.4095,0.5608,0.6159,0.5649,0.5957,0.6274,0.6264,0.6338,0.6287,0.6061,0.6034,0.5918,0.5662,0.5576,0.5572,0.5651,0.488,0.3237,0.0288,0.0,0.0,0.0,0.0,0.0,0.0,0.0,0.0,0.0,0.0,0.0,0.0,0.0,0.0,0.0,0.0,0.0,0.0,0.0,0.0,0.0,0.0,0.0,0.0,0.0,0.0,0.0,0.0,0.0,0.0,0.0,0.0,0.0,1.2522,1.3884,1.4949,1.5635,1.5832,1.5832,1.5832,1.5985,1.6032,1.5852,1.5945,1.5684,1.4867,1.5439,1.5242,1.3788,1.2522,1.1258,1.0096,0.9225,0.8492,0.7916,0.7695,0.7543,0.7478,0.7248,0.7024,0.6803,0.6651,0.6576,0.6573,0.6427,0.6359,0.6356,0.6288,0.6338,0.6338,0.6338,0.6338,0.6338,0.6338,0.6338,0.6338,0.6338,0.6338,0.6338,0.6338,0.6264,0.6271,0.6278,0.4779,0.2506,0.0626,0.0,0.0,0.0,0.0,0.0,0.0,0.0,0.0,0.0,0.1425,0.3471,0.5769,0.6287,0.6302,0.6281,0.6274,0.6268,0.6264,0.6338,0.6234,0.6149,0.6017,0.5871,0.5708,0.563,0.5616,0.5758,0.5898,0.5222,0.3206,0.1185,0.0,0.0,0.0,0.0,0.0,0.0,0.0,0.0,0.0,0.0,0.0,0.0,0.0,0.0,0.0,0.0,0.0,0.0,0.0,0.0,0.0,0.0,0.0,0.0,0.0,0.0,0.0,0.0,0.0,0.0,0.0,0.0,1.368,1.4981,1.5879,1.5838,1.5879,1.5919,1.5919,1.6226,1.6326,1.5965,1.6192,1.6259,1.5932,1.5899,1.5899,1.5899,1.4873,1.3102,1.0485,1.0096,0.941,0.8038,0.7892,0.7753,0.7634,0.7461,0.7238,0.6959,0.681,0.6736,0.6732,0.6576,0.6495,0.6468,0.6346,0.6281,0.6338,0.6338,0.6338,0.6338,0.6338,0.6338,0.6338,0.6338,0.6338,0.6338,0.6338,0.6338,0.6264,0.6274,0.6285,0.5655,0.1721,0.047,0.0393,0.0079,0.0,0.0,0.0,0.0,0.0,0.0,0.3227,0.643,0.639,0.6381,0.6342,0.6342,0.6315,0.6291,0.6291,0.6352,0.6244,0.62,0.5973,0.5793,0.5772,0.5705,0.5708,0.5854,0.6149,0.6393,0.661,0.324,0.0759,0.0085,0.0,0.0,0.0,0.0,0.0,0.0,0.0,0.0,0.0,0.0,0.0,0.0,0.0,0.0,0.0,0.0,0.0,0.0,0.0,0.0,0.0,0.0,0.0,0.0,0.0,0.0,0.0,0.0,0.0,0.0,1.3776,1.5139,1.6126,1.5872,1.6106,1.6319,1.6319,1.6513,1.658,1.6353,1.6653,1.6714,1.6253,1.6206,1.6206,1.6206,1.5774,1.437,1.175,1.0583,0.941,0.8038,0.7892,0.7801,0.778,0.7509,0.7285,0.7105,0.6963,0.6895,0.6892,0.6736,0.6597,0.6471,0.6451,0.6373,0.6338,0.6338,0.6338,0.6338,0.6338,0.6338,0.6338,0.6338,0.6338,0.6338,0.6338,0.6338,0.6338,0.6264,0.6271,0.5883,0.3361,0.2656,0.2276,0.0482,0.0,0.0,0.0,0.0,0.0,0.0,0.351,0.6878,0.6719,0.6685,0.6733,0.6637,0.6529,0.6437,0.6437,0.6342,0.6176,0.5915,0.5833,0.5759,0.564,0.582,0.6017,0.6169,0.6451,0.6647,0.6767,0.6063,0.4088,0.0265,0.0,0.0,0.0,0.0,0.0,0.0,0.0,0.0,0.0,0.0,0.0,0.0,0.0,0.0,0.0,0.0,0.0,0.0,0.0,0.0,0.0,0.0,0.0,0.0,0.0,0.0,0.0,0.0,0.0,0.0,1.4555,1.5543,1.5992,1.5852,1.6239,1.6673,1.6994,1.7121,1.7068,1.6767,1.6934,1.6974,1.6693,1.6426,1.6273,1.6273,1.5999,1.4663,1.2042,1.1361,1.0096,0.8038,0.797,0.7896,0.7814,0.7604,0.7417,0.7265,0.72,0.7126,0.7041,0.6892,0.6787,0.6715,0.663,0.6512,0.6376,0.6376,0.6332,0.6268,0.6342,0.6376,0.6383,0.6468,0.6498,0.6498,0.6498,0.6498,0.6498,0.6498,0.6505,0.6267,0.5281,0.4221,0.3419,0.3546,0.3727,0.3812,0.3814,0.2919,0.1936,0.1959,0.4493,0.6934,0.6753,0.678,0.6709,0.6702,0.6644,0.6569,0.6488,0.642,0.6302,0.6084,0.5979,0.5928,0.5949,0.6067,0.624,0.6471,0.6759,0.6973,0.7149,0.7131,0.5863,0.2947,0.1025,0.0,0.0,0.0,0.0,0.0,0.0,0.0,0.0,0.0,0.0,0.0,0.0,0.0,0.0,0.0,0.0,0.0,0.0,0.0,0.0,0.0,0.0,0.0,0.0,0.0,0.0,0.0,0.0,0.0,1.5242,1.5832,1.5832,1.5832,1.6426,1.7014,1.7328,1.7495,1.7475,1.7174,1.7201,1.7168,1.6954,1.666,1.642,1.6286,1.6066,1.4731,1.2047,1.1945,1.0779,0.8137,0.8038,0.7967,0.7814,0.7702,0.7577,0.7424,0.739,0.7312,0.719,0.7044,0.6959,0.6922,0.6807,0.6668,0.6525,0.6525,0.6464,0.6373,0.6481,0.6525,0.6539,0.6658,0.6702,0.6702,0.6702,0.6702,0.6702,0.6702,0.6705,0.6629,0.6632,0.5618,0.4615,0.6276,0.6946,0.7175,0.714,0.5817,0.4453,0.4552,0.5717,0.6875,0.697,0.6973,0.6868,0.6902,0.6851,0.6766,0.6651,0.6569,0.6478,0.6332,0.621,0.6186,0.6342,0.6393,0.6525,0.682,0.7088,0.7295,0.7414,0.7476,0.6988,0.5823,0.336,0.1358,0.0098,0.0,0.0,0.0,0.0,0.0,0.0,0.0,0.0,0.0,0.0,0.0,0.0,0.0,0.0,0.0,0.0,0.0,0.0,0.0,0.0,0.0,0.0,0.0,0.0,0.0,0.0,0.0,1.573,1.5832,1.5832,1.5832,1.6767,1.7348,1.6847,1.7235,1.7569,1.7542,1.7549,1.7341,1.6787,1.6941,1.6867,1.6319,1.6253,1.5033,1.2058,1.1945,1.0779,0.8137,0.8038,0.7967,0.7814,0.7801,0.7726,0.7584,0.7441,0.7366,0.7353,0.7197,0.7054,0.6929,0.6915,0.6827,0.6681,0.6681,0.6678,0.6668,0.6678,0.6681,0.6685,0.6698,0.6702,0.6702,0.6702,0.6702,0.6702,0.6702,0.6702,0.6705,0.6798,0.6625,0.6566,0.6915,0.7241,0.7329,0.7108,0.6979,0.6923,0.7259,0.7175,0.7217,0.7506,0.7441,0.7363,0.7506,0.7305,0.7105,0.7092,0.6868,0.6634,0.6481,0.6447,0.6491,0.6647,0.679,0.699,0.7285,0.7465,0.757,0.7584,0.7634,0.7631,0.753,0.7486,0.5233,0.0301,0.0,0.0,0.0,0.0,0.0,0.0,0.0,0.0,0.0,0.0,0.0,0.0,0.0,0.0,0.0,0.0,0.0,0.0,0.0,0.0,0.0,0.0,0.0,0.0,0.0,0.0,0.0,1.551,1.642,1.6921,1.6921,1.7288,1.7508,1.7281,1.7442,1.7582,1.7582,1.7582,1.7495,1.7275,1.7188,1.6981,1.658,1.638,1.535,1.3312,1.2334,1.0779,0.8137,0.8038,0.8014,0.7953,0.7953,0.7879,0.7729,0.7672,0.76,0.7509,0.7356,0.7255,0.72,0.7102,0.698,0.6844,0.6844,0.6787,0.6709,0.6803,0.6844,0.6861,0.7048,0.7115,0.7129,0.7224,0.7258,0.7258,0.7258,0.7258,0.7258,0.7265,0.7261,0.7272,0.7346,0.7441,0.7516,0.7458,0.7444,0.7461,0.7612,0.7485,0.7468,0.758,0.7556,0.7529,0.7587,0.7506,0.7397,0.7302,0.7193,0.7065,0.6912,0.6888,0.6939,0.7095,0.7166,0.7312,0.7607,0.7695,0.777,0.7865,0.7828,0.7865,0.7865,0.7945,0.6385,0.2655,0.0933,0.0,0.0,0.0,0.0,0.0,0.0,0.0,0.0,0.0,0.0,0.0,0.0,0.0,0.0,0.0,0.0,0.0,0.0,0.0,0.0,0.0,0.0,0.0,0.0,0.0,0.0,1.6019,1.7027,1.7582,1.7582,1.7582,1.7582,1.7582,1.7582,1.7582,1.7582,1.7582,1.7549,1.7455,1.7355,1.7094,1.6613,1.6473,1.5739,1.3998,1.2231,1.0288,0.8137,0.8038,0.8038,0.8038,0.8038,0.7987,0.7882,0.7834,0.7763,0.7662,0.7512,0.7444,0.7438,0.7333,0.7204,0.7068,0.7068,0.7007,0.6922,0.7024,0.7095,0.7163,0.7366,0.7444,0.7458,0.7563,0.76,0.76,0.76,0.76,0.76,0.76,0.76,0.76,0.76,0.7631,0.7665,0.7665,0.7702,0.7726,0.7678,0.7634,0.7624,0.7716,0.7699,0.7678,0.7729,0.7699,0.7634,0.7529,0.7472,0.7407,0.7302,0.7285,0.7336,0.7489,0.7509,0.76,0.7851,0.7882,0.7923,0.8028,0.8038,0.8038,0.8038,0.8102,0.6551,0.2913,0.0956,0.0,0.0,0.0,0.0,0.0,0.0,0.0,0.0,0.0,0.0,0.0,0.0,0.0,0.0,0.0,0.0,0.0,0.0,0.0,0.0,0.0,0.0,0.0,0.0,0.0,0.0,1.7468,1.7582,1.7582,1.7582,1.7582,1.7582,1.7582,1.7582,1.7582,1.7582,1.7582,1.7475,1.7188,1.7408,1.7228,1.6359,1.6547,1.5946,1.401,1.1458,0.941,0.8038,0.8038,0.8038,0.8038,0.8038,0.8038,0.8038,0.7885,0.7814,0.7811,0.7668,0.76,0.76,0.76,0.7516,0.7373,0.7373,0.7373,0.7373,0.7373,0.7465,0.76,0.76,0.76,0.76,0.7604,0.7604,0.7604,0.7604,0.7604,0.7604,0.7604,0.7604,0.7604,0.7604,0.7702,0.7814,0.7814,0.7923,0.8004,0.7851,0.7706,0.7682,0.7974,0.7923,0.7858,0.8007,0.7919,0.7814,0.7814,0.7699,0.7604,0.7604,0.7604,0.7651,0.7794,0.7814,0.7868,0.8021,0.8038,0.8038,0.8041,0.8041,0.8041,0.8041,0.8197,0.5938,0.0318,0.0,0.0,0.0,0.0,0.0,0.0,0.0,0.0,0.0,0.0,0.0,0.0,0.0,0.0,0.0,0.0,0.0,0.0,0.0,0.0,0.0,0.0,0.0,0.0,0.0,0.0,0.0,1.7468,1.7582,1.7582,1.7582,1.7582,1.7582,1.7582,1.7582,1.7582,1.7582,1.7582,1.7549,1.7462,1.7528,1.7395,1.6927,1.6967,1.584,1.3001,1.1053,0.941,0.8038,0.8038,0.8038,0.8038,0.8038,0.8038,0.8038,0.7994,0.797,0.7967,0.7818,0.7746,0.7743,0.7645,0.7577,0.7533,0.7533,0.7533,0.7533,0.7533,0.756,0.7611,0.7709,0.7746,0.7763,0.7868,0.7909,0.7909,0.7909,0.7909,0.7909,0.7909,0.7909,0.7909,0.7909,0.7936,0.797,0.797,0.8004,0.8028,0.7984,0.794,0.7933,0.8021,0.8004,0.7984,0.8031,0.8004,0.797,0.797,0.7936,0.7909,0.7909,0.7909,0.7923,0.7967,0.797,0.7987,0.8035,0.8038,0.8082,0.8191,0.8201,0.8245,0.8343,0.8404,0.7764,0.6072,0.2198,0.0,0.0,0.0,0.0,0.0,0.0,0.0,0.0,0.0,0.0,0.0,0.0,0.0,0.0,0.0,0.0,0.0,0.0,0.0,0.0,0.0,0.0,0.0,0.0,0.0,0.0,1.7482,1.7582,1.7582,1.7582,1.7582,1.7582,1.7582,1.7582,1.7582,1.7582,1.7582,1.7582,1.7582,1.7582,1.7468,1.7174,1.6516,1.5065,1.2622,1.1002,0.9514,0.813,0.8072,0.8038,0.8038,0.8038,0.8038,0.8038,0.8038,0.8038,0.8038,0.7943,0.7899,0.7896,0.7814,0.774,0.7682,0.7682,0.7682,0.7682,0.7682,0.7719,0.7784,0.7868,0.7899,0.7913,0.8007,0.8038,0.8038,0.8038,0.8038,0.8038,0.8038,0.8038,0.8052,0.8113,0.813,0.813,0.813,0.813,0.8116,0.8055,0.8038,0.8038,0.8038,0.8038,0.8038,0.8038,0.8038,0.8038,0.8038,0.8038,0.8038,0.8038,0.8092,0.813,0.813,0.818,0.8214,0.8214,0.8214,0.8252,0.8343,0.8353,0.8414,0.856,0.8669,0.8655,0.863,0.4693,0.2367,0.192,0.0689,0.0,0.0,0.0,0.0,0.0,0.0,0.0,0.0,0.0,0.0,0.0,0.0,0.0,0.0,0.0,0.0,0.0,0.0,0.0,0.0,0.0,0.0,0.0,1.7515,1.7582,1.7582,1.7582,1.7582,1.7582,1.7582,1.7582,1.7582,1.7582,1.7582,1.7582,1.7582,1.7582,1.7475,1.7215,1.5456,1.3857,1.2725,1.0999,0.9486,0.8392,0.8153,0.8072,0.8062,0.8045,0.8038,0.8038,0.8038,0.8038,0.8038,0.8038,0.8038,0.8038,0.8038,0.7963,0.7831,0.7831,0.7831,0.7831,0.7831,0.7916,0.8038,0.8038,0.8038,0.8038,0.8038,0.8038,0.8038,0.8038,0.8038,0.8038,0.8038,0.8048,0.8089,0.8231,0.8279,0.8286,0.8275,0.8272,0.8235,0.8079,0.8038,0.8038,0.8038,0.8038,0.8038,0.8038,0.8038,0.8041,0.8058,0.8062,0.8065,0.8075,0.8197,0.8289,0.8289,0.8401,0.8482,0.8482,0.8482,0.8486,0.8503,0.8516,0.8584,0.874,0.875,0.8825,0.889,0.7398,0.6187,0.5392,0.2447,0.0588,0.0,0.0,0.0,0.0,0.0,0.0,0.0,0.0,0.0,0.0,0.0,0.0,0.0,0.0,0.0,0.0,0.0,0.0,0.0,0.0,0.0,0.0,1.7562,1.7582,1.7582,1.7582,1.7582,1.7582,1.7582,1.7582,1.7582,1.7582,1.7582,1.7582,1.7582,1.7582,1.7555,1.7495,1.499,1.3164,1.2955,1.0377,0.8741,0.8435,0.8404,0.8333,0.8221,0.8102,0.8038,0.8038,0.8038,0.8038,0.8038,0.8038,0.8038,0.8038,0.8038,0.8021,0.7991,0.7991,0.7991,0.7991,0.7991,0.8011,0.8038,0.8038,0.8038,0.8038,0.8038,0.8038,0.8038,0.8038,0.8038,0.8038,0.8038,0.8123,0.8228,0.8258,0.835,0.8411,0.8299,0.8272,0.8235,0.8079,0.8038,0.8038,0.8038,0.8038,0.8038,0.8038,0.8038,0.8075,0.8197,0.8221,0.8255,0.8367,0.8414,0.8435,0.8435,0.8462,0.8482,0.8482,0.8482,0.853,0.8648,0.8771,0.8899,0.9045,0.9059,0.9133,0.9191,0.8756,0.8659,0.8684,0.7994,0.5158,0.0,0.0,0.0,0.0,0.0,0.0,0.0,0.0,0.0,0.0,0.0,0.0,0.0,0.0,0.0,0.0,0.0,0.0,0.0,0.0,0.0,0.0,1.7582,1.7582,1.7582,1.7582,1.7582,1.7582,1.7582,1.7582,1.7655,1.7849,1.7702,1.7642,1.7789,1.7669,1.7582,1.7582,1.4978,1.3199,1.3199,1.0337,0.8665,0.8594,0.852,0.8445,0.8374,0.8292,0.818,0.8038,0.8038,0.8038,0.8038,0.8038,0.8038,0.8038,0.8038,0.8038,0.8038,0.8038,0.8038,0.8038,0.8038,0.8038,0.8038,0.8038,0.8038,0.8038,0.8038,0.8089,0.814,0.8065,0.8133,0.8238,0.817,0.8252,0.8384,0.8459,0.8533,0.8574,0.8503,0.8428,0.835,0.8272,0.8197,0.815,0.815,0.815,0.817,0.8235,0.8252,0.8275,0.8357,0.837,0.8394,0.8469,0.8543,0.8618,0.8689,0.8699,0.8723,0.8794,0.874,0.8757,0.8906,0.9059,0.9181,0.9256,0.9262,0.93,0.9275,0.9349,0.9513,0.9652,0.9816,0.7433,0.2428,0.0736,0.0,0.0,0.0,0.0,0.0,0.0,0.0,0.0,0.0,0.0,0.0,0.0,0.0,0.0,0.0,0.0,0.0,0.0,0.0,0.0,1.7582,1.7582,1.7582,1.7582,1.7582,1.7582,1.7582,1.7582,1.7702,1.805,1.7796,1.7682,1.7943,1.7782,1.7682,1.7736,1.52,1.3472,1.3391,1.0626,0.8916,0.8791,0.8642,0.8547,0.8523,0.852,0.8387,0.8116,0.8092,0.8079,0.8079,0.8052,0.8038,0.8038,0.8038,0.8038,0.8038,0.8038,0.8038,0.8038,0.8038,0.8038,0.8041,0.8069,0.8079,0.8082,0.8106,0.8197,0.8286,0.8157,0.8279,0.8462,0.8343,0.8408,0.8547,0.8672,0.873,0.8743,0.8716,0.8618,0.8516,0.8489,0.8394,0.8313,0.834,0.8326,0.834,0.8459,0.8482,0.8489,0.8516,0.854,0.8567,0.8594,0.8726,0.8869,0.8998,0.9015,0.9049,0.9144,0.9049,0.9032,0.9178,0.9306,0.9391,0.9418,0.9418,0.9432,0.9456,0.9578,0.9646,0.9646,0.9781,0.8494,0.5784,0.1972,0.0,0.0,0.0,0.0,0.0,0.0,0.0,0.0,0.0,0.0,0.0,0.0,0.0,0.0,0.0,0.0,0.0,0.0,0.0,0.0,1.7582,1.7582,1.7582,1.7582,1.7582,1.7582,1.7582,1.7582,1.7602,1.7655,1.7615,1.7595,1.7642,1.7849,1.8083,1.8343,1.5569,1.3876,1.3841,1.0876,0.9117,0.9093,0.8954,0.8815,0.8682,0.8679,0.8594,0.8421,0.8299,0.8238,0.8238,0.8102,0.8038,0.8038,0.8038,0.8038,0.8038,0.8038,0.8038,0.8038,0.8038,0.8038,0.8055,0.8187,0.8238,0.8255,0.8377,0.8435,0.8452,0.8428,0.8448,0.8479,0.8459,0.8557,0.8682,0.8706,0.8804,0.8879,0.8747,0.8696,0.8648,0.8516,0.8469,0.8489,0.8621,0.855,0.8459,0.8479,0.8482,0.8523,0.8655,0.8788,0.892,0.9042,0.9191,0.93,0.932,0.932,0.9279,0.9167,0.9133,0.9184,0.9337,0.9367,0.9435,0.9568,0.9578,0.9632,0.9754,0.9781,0.9791,0.9791,0.9832,0.9622,0.9152,0.3116,0.0,0.0,0.0,0.0,0.0,0.0,0.0,0.0,0.0,0.0,0.0,0.0,0.0,0.0,0.0,0.0,0.0,0.0,0.0,0.0,1.7582,1.7582,1.7582,1.7582,1.7582,1.7582,1.7582,1.7582,1.7642,1.7816,1.7689,1.7649,1.7822,1.7963,1.7714,1.7204,1.5302,1.4058,1.3937,1.1016,0.9242,0.9157,0.9015,0.8906,0.8838,0.8838,0.8804,0.8737,0.8503,0.8387,0.8384,0.8238,0.8211,0.8282,0.8204,0.8214,0.8286,0.8286,0.8241,0.817,0.817,0.8116,0.8058,0.8211,0.8272,0.8289,0.8431,0.8537,0.8598,0.8509,0.8598,0.8723,0.8635,0.8771,0.8957,0.8957,0.955,1.0051,0.93,0.9511,0.9828,0.9179,0.892,0.8896,0.9049,0.9032,0.896,0.8872,0.8923,0.9005,0.9072,0.914,0.9205,0.9269,0.9337,0.9412,0.9496,0.9435,0.9357,0.9289,0.9357,0.9435,0.9503,0.9581,0.9656,0.9724,0.9727,0.9754,0.9819,0.9822,0.9822,0.9822,0.9832,0.9774,0.9771,0.514,0.1776,0.0,0.0,0.0,0.0,0.0,0.0,0.0,0.0,0.0,0.0,0.0,0.0,0.0,0.0,0.0,0.0,0.0,0.0,0.0]}]]